<?xml version="1.0" encoding="UTF-8" standalone="no" ?>
<gpx xmlns="http://www.topografix.com/GPX/1/1" xmlns:xsi="http://www.w3.org/2001/XMLSchema-instance" xsi:schemaLocation="http://www.topografix.com/GPX/1/1 http://www.topografix.com/GPX/1/1/gpx.xsd" version="1.1" creator="VisuGPX - https://www.visugpx.com">
  <metadata>
    <name>Lisle sur Tarn</name>
    <desc><![CDATA[Randonnée dans le Tarn]]></desc>
  </metadata>
  <trk>
    <name><![CDATA[20 déc. 2012 09:33:15]]></name>
    <cmt><![CDATA[20 déc. 2012 09:33:15]]></cmt>
    <trkseg>
      <trkpt lat="43.86309" lon="1.81721">
        <ele>114</ele>
        <time>2012-12-20T08:33:15Z</time>
      </trkpt>
      <trkpt lat="43.86313" lon="1.81709">
        <ele>118</ele>
        <time>2012-12-20T08:33:24Z</time>
      </trkpt>
      <trkpt lat="43.86317" lon="1.81696">
        <ele>121</ele>
        <time>2012-12-20T08:33:35Z</time>
      </trkpt>
      <trkpt lat="43.8632" lon="1.81686">
        <ele>123</ele>
        <time>2012-12-20T08:33:43Z</time>
      </trkpt>
      <trkpt lat="43.86322" lon="1.8168">
        <ele>124</ele>
        <time>2012-12-20T08:33:45Z</time>
      </trkpt>
      <trkpt lat="43.8633" lon="1.81673">
        <ele>124</ele>
        <time>2012-12-20T08:33:55Z</time>
      </trkpt>
      <trkpt lat="43.86337" lon="1.8168">
        <ele>124</ele>
        <time>2012-12-20T08:34:02Z</time>
      </trkpt>
      <trkpt lat="43.86342" lon="1.81683">
        <ele>125</ele>
        <time>2012-12-20T08:34:06Z</time>
      </trkpt>
      <trkpt lat="43.86347" lon="1.81687">
        <ele>125</ele>
        <time>2012-12-20T08:34:09Z</time>
      </trkpt>
      <trkpt lat="43.86357" lon="1.81693">
        <ele>125</ele>
        <time>2012-12-20T08:34:17Z</time>
      </trkpt>
      <trkpt lat="43.86367" lon="1.81695">
        <ele>124</ele>
        <time>2012-12-20T08:34:28Z</time>
      </trkpt>
      <trkpt lat="43.86376" lon="1.81702">
        <ele>124</ele>
        <time>2012-12-20T08:34:36Z</time>
      </trkpt>
      <trkpt lat="43.86375" lon="1.81705">
        <ele>126</ele>
        <time>2012-12-20T08:34:56Z</time>
      </trkpt>
      <trkpt lat="43.86381" lon="1.8171">
        <ele>126</ele>
        <time>2012-12-20T08:35:06Z</time>
      </trkpt>
      <trkpt lat="43.86387" lon="1.81713">
        <ele>125</ele>
        <time>2012-12-20T08:35:11Z</time>
      </trkpt>
      <trkpt lat="43.86392" lon="1.81713">
        <ele>125</ele>
        <time>2012-12-20T08:35:16Z</time>
      </trkpt>
      <trkpt lat="43.86396" lon="1.81708">
        <ele>126</ele>
        <time>2012-12-20T08:35:21Z</time>
      </trkpt>
      <trkpt lat="43.86398" lon="1.81702">
        <ele>128</ele>
        <time>2012-12-20T08:35:24Z</time>
      </trkpt>
      <trkpt lat="43.86398" lon="1.81695">
        <ele>130</ele>
        <time>2012-12-20T08:35:30Z</time>
      </trkpt>
      <trkpt lat="43.86401" lon="1.81684">
        <ele>130</ele>
        <time>2012-12-20T08:35:39Z</time>
      </trkpt>
      <trkpt lat="43.86405" lon="1.81679">
        <ele>129</ele>
        <time>2012-12-20T08:35:43Z</time>
      </trkpt>
      <trkpt lat="43.86411" lon="1.81678">
        <ele>129</ele>
        <time>2012-12-20T08:35:48Z</time>
      </trkpt>
      <trkpt lat="43.86416" lon="1.81678">
        <ele>129</ele>
        <time>2012-12-20T08:35:52Z</time>
      </trkpt>
      <trkpt lat="43.86421" lon="1.81676">
        <ele>129</ele>
        <time>2012-12-20T08:35:57Z</time>
      </trkpt>
      <trkpt lat="43.86426" lon="1.81677">
        <ele>129</ele>
        <time>2012-12-20T08:36:00Z</time>
      </trkpt>
      <trkpt lat="43.86435" lon="1.81681">
        <ele>130</ele>
        <time>2012-12-20T08:36:07Z</time>
      </trkpt>
      <trkpt lat="43.86442" lon="1.81687">
        <ele>129</ele>
        <time>2012-12-20T08:36:16Z</time>
      </trkpt>
      <trkpt lat="43.86447" lon="1.81694">
        <ele>128</ele>
        <time>2012-12-20T08:36:21Z</time>
      </trkpt>
      <trkpt lat="43.8645" lon="1.817">
        <ele>129</ele>
        <time>2012-12-20T08:36:26Z</time>
      </trkpt>
      <trkpt lat="43.86451" lon="1.81707">
        <ele>129</ele>
        <time>2012-12-20T08:36:30Z</time>
      </trkpt>
      <trkpt lat="43.86456" lon="1.81713">
        <ele>130</ele>
        <time>2012-12-20T08:36:39Z</time>
      </trkpt>
      <trkpt lat="43.86461" lon="1.81715">
        <ele>130</ele>
        <time>2012-12-20T08:36:44Z</time>
      </trkpt>
      <trkpt lat="43.86466" lon="1.81714">
        <ele>132</ele>
        <time>2012-12-20T08:36:50Z</time>
      </trkpt>
      <trkpt lat="43.8647" lon="1.81711">
        <ele>132</ele>
        <time>2012-12-20T08:36:54Z</time>
      </trkpt>
      <trkpt lat="43.86474" lon="1.8171">
        <ele>132</ele>
        <time>2012-12-20T08:36:59Z</time>
      </trkpt>
      <trkpt lat="43.8648" lon="1.81708">
        <ele>131</ele>
        <time>2012-12-20T08:37:05Z</time>
      </trkpt>
      <trkpt lat="43.86485" lon="1.81704">
        <ele>131</ele>
        <time>2012-12-20T08:37:10Z</time>
      </trkpt>
      <trkpt lat="43.8649" lon="1.81701">
        <ele>131</ele>
        <time>2012-12-20T08:37:15Z</time>
      </trkpt>
      <trkpt lat="43.86494" lon="1.817">
        <ele>131</ele>
        <time>2012-12-20T08:37:20Z</time>
      </trkpt>
      <trkpt lat="43.86499" lon="1.817">
        <ele>131</ele>
        <time>2012-12-20T08:37:24Z</time>
      </trkpt>
      <trkpt lat="43.86505" lon="1.81697">
        <ele>131</ele>
        <time>2012-12-20T08:37:29Z</time>
      </trkpt>
      <trkpt lat="43.8651" lon="1.81695">
        <ele>132</ele>
        <time>2012-12-20T08:37:33Z</time>
      </trkpt>
      <trkpt lat="43.86514" lon="1.81691">
        <ele>131</ele>
        <time>2012-12-20T08:37:39Z</time>
      </trkpt>
      <trkpt lat="43.86518" lon="1.81688">
        <ele>130</ele>
        <time>2012-12-20T08:37:43Z</time>
      </trkpt>
      <trkpt lat="43.86523" lon="1.81686">
        <ele>129</ele>
        <time>2012-12-20T08:37:47Z</time>
      </trkpt>
      <trkpt lat="43.86527" lon="1.81686">
        <ele>129</ele>
        <time>2012-12-20T08:37:52Z</time>
      </trkpt>
      <trkpt lat="43.86532" lon="1.81687">
        <ele>130</ele>
        <time>2012-12-20T08:37:56Z</time>
      </trkpt>
      <trkpt lat="43.86538" lon="1.81687">
        <ele>131</ele>
        <time>2012-12-20T08:38:02Z</time>
      </trkpt>
      <trkpt lat="43.86543" lon="1.81686">
        <ele>131</ele>
        <time>2012-12-20T08:38:06Z</time>
      </trkpt>
      <trkpt lat="43.86549" lon="1.81684">
        <ele>132</ele>
        <time>2012-12-20T08:38:11Z</time>
      </trkpt>
      <trkpt lat="43.86556" lon="1.81681">
        <ele>131</ele>
        <time>2012-12-20T08:38:19Z</time>
      </trkpt>
      <trkpt lat="43.86561" lon="1.81678">
        <ele>132</ele>
        <time>2012-12-20T08:38:24Z</time>
      </trkpt>
      <trkpt lat="43.86566" lon="1.81675">
        <ele>131</ele>
        <time>2012-12-20T08:38:28Z</time>
      </trkpt>
      <trkpt lat="43.86571" lon="1.81673">
        <ele>131</ele>
        <time>2012-12-20T08:38:34Z</time>
      </trkpt>
      <trkpt lat="43.86576" lon="1.81672">
        <ele>132</ele>
        <time>2012-12-20T08:38:40Z</time>
      </trkpt>
      <trkpt lat="43.86583" lon="1.81673">
        <ele>133</ele>
        <time>2012-12-20T08:38:46Z</time>
      </trkpt>
      <trkpt lat="43.86589" lon="1.81673">
        <ele>133</ele>
        <time>2012-12-20T08:38:51Z</time>
      </trkpt>
      <trkpt lat="43.86593" lon="1.81671">
        <ele>133</ele>
        <time>2012-12-20T08:38:55Z</time>
      </trkpt>
      <trkpt lat="43.86598" lon="1.81669">
        <ele>132</ele>
        <time>2012-12-20T08:38:59Z</time>
      </trkpt>
      <trkpt lat="43.86603" lon="1.81669">
        <ele>132</ele>
        <time>2012-12-20T08:39:03Z</time>
      </trkpt>
      <trkpt lat="43.86608" lon="1.81668">
        <ele>132</ele>
        <time>2012-12-20T08:39:07Z</time>
      </trkpt>
      <trkpt lat="43.86616" lon="1.81665">
        <ele>132</ele>
        <time>2012-12-20T08:39:15Z</time>
      </trkpt>
      <trkpt lat="43.8662" lon="1.81663">
        <ele>132</ele>
        <time>2012-12-20T08:39:21Z</time>
      </trkpt>
      <trkpt lat="43.86626" lon="1.81661">
        <ele>133</ele>
        <time>2012-12-20T08:39:27Z</time>
      </trkpt>
      <trkpt lat="43.86631" lon="1.81659">
        <ele>134</ele>
        <time>2012-12-20T08:39:32Z</time>
      </trkpt>
      <trkpt lat="43.86636" lon="1.81657">
        <ele>134</ele>
        <time>2012-12-20T08:39:37Z</time>
      </trkpt>
      <trkpt lat="43.86641" lon="1.81656">
        <ele>133</ele>
        <time>2012-12-20T08:39:42Z</time>
      </trkpt>
      <trkpt lat="43.86646" lon="1.81654">
        <ele>133</ele>
        <time>2012-12-20T08:39:46Z</time>
      </trkpt>
      <trkpt lat="43.86651" lon="1.81653">
        <ele>131</ele>
        <time>2012-12-20T08:39:51Z</time>
      </trkpt>
      <trkpt lat="43.86657" lon="1.8165">
        <ele>131</ele>
        <time>2012-12-20T08:39:57Z</time>
      </trkpt>
      <trkpt lat="43.86667" lon="1.81645">
        <ele>132</ele>
        <time>2012-12-20T08:40:04Z</time>
      </trkpt>
      <trkpt lat="43.86671" lon="1.81644">
        <ele>132</ele>
        <time>2012-12-20T08:40:08Z</time>
      </trkpt>
      <trkpt lat="43.86676" lon="1.81642">
        <ele>132</ele>
        <time>2012-12-20T08:40:13Z</time>
      </trkpt>
      <trkpt lat="43.86681" lon="1.81639">
        <ele>131</ele>
        <time>2012-12-20T08:40:17Z</time>
      </trkpt>
      <trkpt lat="43.86686" lon="1.81636">
        <ele>130</ele>
        <time>2012-12-20T08:40:22Z</time>
      </trkpt>
      <trkpt lat="43.8669" lon="1.81633">
        <ele>130</ele>
        <time>2012-12-20T08:40:26Z</time>
      </trkpt>
      <trkpt lat="43.86695" lon="1.81631">
        <ele>130</ele>
        <time>2012-12-20T08:40:31Z</time>
      </trkpt>
      <trkpt lat="43.867" lon="1.81629">
        <ele>130</ele>
        <time>2012-12-20T08:40:36Z</time>
      </trkpt>
      <trkpt lat="43.86704" lon="1.81626">
        <ele>131</ele>
        <time>2012-12-20T08:40:40Z</time>
      </trkpt>
      <trkpt lat="43.86711" lon="1.81623">
        <ele>131</ele>
        <time>2012-12-20T08:40:46Z</time>
      </trkpt>
      <trkpt lat="43.86715" lon="1.8162">
        <ele>131</ele>
        <time>2012-12-20T08:40:49Z</time>
      </trkpt>
      <trkpt lat="43.86719" lon="1.81617">
        <ele>132</ele>
        <time>2012-12-20T08:40:53Z</time>
      </trkpt>
      <trkpt lat="43.86723" lon="1.81613">
        <ele>133</ele>
        <time>2012-12-20T08:40:58Z</time>
      </trkpt>
      <trkpt lat="43.86727" lon="1.81609">
        <ele>133</ele>
        <time>2012-12-20T08:41:02Z</time>
      </trkpt>
      <trkpt lat="43.86731" lon="1.81607">
        <ele>132</ele>
        <time>2012-12-20T08:41:06Z</time>
      </trkpt>
      <trkpt lat="43.86736" lon="1.81603">
        <ele>133</ele>
        <time>2012-12-20T08:41:10Z</time>
      </trkpt>
      <trkpt lat="43.86741" lon="1.816">
        <ele>132</ele>
        <time>2012-12-20T08:41:13Z</time>
      </trkpt>
      <trkpt lat="43.86746" lon="1.81594">
        <ele>133</ele>
        <time>2012-12-20T08:41:19Z</time>
      </trkpt>
      <trkpt lat="43.8675" lon="1.8159">
        <ele>132</ele>
        <time>2012-12-20T08:41:25Z</time>
      </trkpt>
      <trkpt lat="43.86755" lon="1.81588">
        <ele>131</ele>
        <time>2012-12-20T08:41:29Z</time>
      </trkpt>
      <trkpt lat="43.86759" lon="1.81585">
        <ele>131</ele>
        <time>2012-12-20T08:41:32Z</time>
      </trkpt>
      <trkpt lat="43.86763" lon="1.81583">
        <ele>131</ele>
        <time>2012-12-20T08:41:36Z</time>
      </trkpt>
      <trkpt lat="43.86768" lon="1.81579">
        <ele>130</ele>
        <time>2012-12-20T08:41:41Z</time>
      </trkpt>
      <trkpt lat="43.86773" lon="1.81575">
        <ele>131</ele>
        <time>2012-12-20T08:41:46Z</time>
      </trkpt>
      <trkpt lat="43.86777" lon="1.81573">
        <ele>131</ele>
        <time>2012-12-20T08:41:51Z</time>
      </trkpt>
      <trkpt lat="43.86783" lon="1.8157">
        <ele>131</ele>
        <time>2012-12-20T08:41:56Z</time>
      </trkpt>
      <trkpt lat="43.86787" lon="1.81568">
        <ele>131</ele>
        <time>2012-12-20T08:42:00Z</time>
      </trkpt>
      <trkpt lat="43.86792" lon="1.81566">
        <ele>130</ele>
        <time>2012-12-20T08:42:04Z</time>
      </trkpt>
      <trkpt lat="43.86797" lon="1.81565">
        <ele>131</ele>
        <time>2012-12-20T08:42:08Z</time>
      </trkpt>
      <trkpt lat="43.86803" lon="1.81564">
        <ele>131</ele>
        <time>2012-12-20T08:42:14Z</time>
      </trkpt>
      <trkpt lat="43.86808" lon="1.81563">
        <ele>131</ele>
        <time>2012-12-20T08:42:19Z</time>
      </trkpt>
      <trkpt lat="43.86813" lon="1.81562">
        <ele>132</ele>
        <time>2012-12-20T08:42:22Z</time>
      </trkpt>
      <trkpt lat="43.86819" lon="1.81559">
        <ele>132</ele>
        <time>2012-12-20T08:42:26Z</time>
      </trkpt>
      <trkpt lat="43.86824" lon="1.81557">
        <ele>132</ele>
        <time>2012-12-20T08:42:30Z</time>
      </trkpt>
      <trkpt lat="43.86829" lon="1.81556">
        <ele>132</ele>
        <time>2012-12-20T08:42:34Z</time>
      </trkpt>
      <trkpt lat="43.86834" lon="1.81555">
        <ele>133</ele>
        <time>2012-12-20T08:42:38Z</time>
      </trkpt>
      <trkpt lat="43.86839" lon="1.81555">
        <ele>132</ele>
        <time>2012-12-20T08:42:42Z</time>
      </trkpt>
      <trkpt lat="43.86844" lon="1.81555">
        <ele>131</ele>
        <time>2012-12-20T08:42:47Z</time>
      </trkpt>
      <trkpt lat="43.8685" lon="1.81554">
        <ele>131</ele>
        <time>2012-12-20T08:42:51Z</time>
      </trkpt>
      <trkpt lat="43.86854" lon="1.81554">
        <ele>131</ele>
        <time>2012-12-20T08:42:55Z</time>
      </trkpt>
      <trkpt lat="43.8686" lon="1.81553">
        <ele>130</ele>
        <time>2012-12-20T08:43:00Z</time>
      </trkpt>
      <trkpt lat="43.86864" lon="1.81552">
        <ele>130</ele>
        <time>2012-12-20T08:43:05Z</time>
      </trkpt>
      <trkpt lat="43.86868" lon="1.81549">
        <ele>130</ele>
        <time>2012-12-20T08:43:09Z</time>
      </trkpt>
      <trkpt lat="43.86867" lon="1.81543">
        <ele>130</ele>
        <time>2012-12-20T08:43:14Z</time>
      </trkpt>
      <trkpt lat="43.86863" lon="1.81537">
        <ele>130</ele>
        <time>2012-12-20T08:43:20Z</time>
      </trkpt>
      <trkpt lat="43.86859" lon="1.81533">
        <ele>131</ele>
        <time>2012-12-20T08:43:24Z</time>
      </trkpt>
      <trkpt lat="43.86855" lon="1.81529">
        <ele>132</ele>
        <time>2012-12-20T08:43:29Z</time>
      </trkpt>
      <trkpt lat="43.86851" lon="1.81524">
        <ele>132</ele>
        <time>2012-12-20T08:43:33Z</time>
      </trkpt>
      <trkpt lat="43.86847" lon="1.8152">
        <ele>131</ele>
        <time>2012-12-20T08:43:37Z</time>
      </trkpt>
      <trkpt lat="43.86842" lon="1.81517">
        <ele>130</ele>
        <time>2012-12-20T08:43:41Z</time>
      </trkpt>
      <trkpt lat="43.86838" lon="1.81513">
        <ele>130</ele>
        <time>2012-12-20T08:43:45Z</time>
      </trkpt>
      <trkpt lat="43.86833" lon="1.81509">
        <ele>130</ele>
        <time>2012-12-20T08:43:49Z</time>
      </trkpt>
      <trkpt lat="43.86828" lon="1.81505">
        <ele>131</ele>
        <time>2012-12-20T08:43:54Z</time>
      </trkpt>
      <trkpt lat="43.86824" lon="1.81502">
        <ele>131</ele>
        <time>2012-12-20T08:43:59Z</time>
      </trkpt>
      <trkpt lat="43.86819" lon="1.81498">
        <ele>131</ele>
        <time>2012-12-20T08:44:04Z</time>
      </trkpt>
      <trkpt lat="43.86815" lon="1.81495">
        <ele>132</ele>
        <time>2012-12-20T08:44:09Z</time>
      </trkpt>
      <trkpt lat="43.86814" lon="1.81488">
        <ele>132</ele>
        <time>2012-12-20T08:44:15Z</time>
      </trkpt>
      <trkpt lat="43.86817" lon="1.81475">
        <ele>133</ele>
        <time>2012-12-20T08:44:25Z</time>
      </trkpt>
      <trkpt lat="43.86819" lon="1.81468">
        <ele>132</ele>
        <time>2012-12-20T08:44:30Z</time>
      </trkpt>
      <trkpt lat="43.86822" lon="1.81463">
        <ele>132</ele>
        <time>2012-12-20T08:44:35Z</time>
      </trkpt>
      <trkpt lat="43.86824" lon="1.81456">
        <ele>132</ele>
        <time>2012-12-20T08:44:40Z</time>
      </trkpt>
      <trkpt lat="43.86826" lon="1.81449">
        <ele>131</ele>
        <time>2012-12-20T08:44:44Z</time>
      </trkpt>
      <trkpt lat="43.8683" lon="1.81444">
        <ele>131</ele>
        <time>2012-12-20T08:44:49Z</time>
      </trkpt>
      <trkpt lat="43.86833" lon="1.8144">
        <ele>131</ele>
        <time>2012-12-20T08:44:54Z</time>
      </trkpt>
      <trkpt lat="43.86837" lon="1.81434">
        <ele>130</ele>
        <time>2012-12-20T08:44:59Z</time>
      </trkpt>
      <trkpt lat="43.86842" lon="1.81427">
        <ele>131</ele>
        <time>2012-12-20T08:45:05Z</time>
      </trkpt>
      <trkpt lat="43.86845" lon="1.81422">
        <ele>131</ele>
        <time>2012-12-20T08:45:09Z</time>
      </trkpt>
      <trkpt lat="43.86849" lon="1.81417">
        <ele>132</ele>
        <time>2012-12-20T08:45:14Z</time>
      </trkpt>
      <trkpt lat="43.86852" lon="1.81411">
        <ele>132</ele>
        <time>2012-12-20T08:45:18Z</time>
      </trkpt>
      <trkpt lat="43.86856" lon="1.81404">
        <ele>132</ele>
        <time>2012-12-20T08:45:24Z</time>
      </trkpt>
      <trkpt lat="43.86861" lon="1.814">
        <ele>131</ele>
        <time>2012-12-20T08:45:28Z</time>
      </trkpt>
      <trkpt lat="43.86866" lon="1.81398">
        <ele>131</ele>
        <time>2012-12-20T08:45:32Z</time>
      </trkpt>
      <trkpt lat="43.8687" lon="1.81393">
        <ele>130</ele>
        <time>2012-12-20T08:45:39Z</time>
      </trkpt>
      <trkpt lat="43.86875" lon="1.81389">
        <ele>131</ele>
        <time>2012-12-20T08:45:45Z</time>
      </trkpt>
      <trkpt lat="43.86881" lon="1.81384">
        <ele>132</ele>
        <time>2012-12-20T08:45:50Z</time>
      </trkpt>
      <trkpt lat="43.86886" lon="1.81378">
        <ele>131</ele>
        <time>2012-12-20T08:45:56Z</time>
      </trkpt>
      <trkpt lat="43.86891" lon="1.81375">
        <ele>132</ele>
        <time>2012-12-20T08:46:01Z</time>
      </trkpt>
      <trkpt lat="43.86895" lon="1.81371">
        <ele>132</ele>
        <time>2012-12-20T08:46:05Z</time>
      </trkpt>
      <trkpt lat="43.86899" lon="1.81366">
        <ele>131</ele>
        <time>2012-12-20T08:46:10Z</time>
      </trkpt>
      <trkpt lat="43.86903" lon="1.81361">
        <ele>131</ele>
        <time>2012-12-20T08:46:15Z</time>
      </trkpt>
      <trkpt lat="43.86909" lon="1.81356">
        <ele>131</ele>
        <time>2012-12-20T08:46:20Z</time>
      </trkpt>
      <trkpt lat="43.86913" lon="1.81352">
        <ele>132</ele>
        <time>2012-12-20T08:46:25Z</time>
      </trkpt>
      <trkpt lat="43.86917" lon="1.81346">
        <ele>135</ele>
        <time>2012-12-20T08:46:31Z</time>
      </trkpt>
      <trkpt lat="43.86922" lon="1.81342">
        <ele>137</ele>
        <time>2012-12-20T08:46:36Z</time>
      </trkpt>
      <trkpt lat="43.86926" lon="1.81337">
        <ele>137</ele>
        <time>2012-12-20T08:46:41Z</time>
      </trkpt>
      <trkpt lat="43.8693" lon="1.81331">
        <ele>136</ele>
        <time>2012-12-20T08:46:46Z</time>
      </trkpt>
      <trkpt lat="43.86934" lon="1.81326">
        <ele>136</ele>
        <time>2012-12-20T08:46:50Z</time>
      </trkpt>
      <trkpt lat="43.86941" lon="1.8132">
        <ele>136</ele>
        <time>2012-12-20T08:46:56Z</time>
      </trkpt>
      <trkpt lat="43.86943" lon="1.81315">
        <ele>136</ele>
        <time>2012-12-20T08:47:02Z</time>
      </trkpt>
      <trkpt lat="43.86947" lon="1.81309">
        <ele>134</ele>
        <time>2012-12-20T08:47:07Z</time>
      </trkpt>
      <trkpt lat="43.86951" lon="1.81304">
        <ele>133</ele>
        <time>2012-12-20T08:47:11Z</time>
      </trkpt>
      <trkpt lat="43.86955" lon="1.81299">
        <ele>134</ele>
        <time>2012-12-20T08:47:16Z</time>
      </trkpt>
      <trkpt lat="43.86959" lon="1.81293">
        <ele>134</ele>
        <time>2012-12-20T08:47:21Z</time>
      </trkpt>
      <trkpt lat="43.86963" lon="1.8129">
        <ele>134</ele>
        <time>2012-12-20T08:47:26Z</time>
      </trkpt>
      <trkpt lat="43.86967" lon="1.81286">
        <ele>134</ele>
        <time>2012-12-20T08:47:31Z</time>
      </trkpt>
      <trkpt lat="43.86972" lon="1.81283">
        <ele>133</ele>
        <time>2012-12-20T08:47:36Z</time>
      </trkpt>
      <trkpt lat="43.86976" lon="1.81279">
        <ele>134</ele>
        <time>2012-12-20T08:47:41Z</time>
      </trkpt>
      <trkpt lat="43.86982" lon="1.81277">
        <ele>133</ele>
        <time>2012-12-20T08:47:45Z</time>
      </trkpt>
      <trkpt lat="43.86986" lon="1.81274">
        <ele>133</ele>
        <time>2012-12-20T08:47:48Z</time>
      </trkpt>
      <trkpt lat="43.86991" lon="1.81271">
        <ele>133</ele>
        <time>2012-12-20T08:47:52Z</time>
      </trkpt>
      <trkpt lat="43.86995" lon="1.8127">
        <ele>134</ele>
        <time>2012-12-20T08:47:56Z</time>
      </trkpt>
      <trkpt lat="43.87" lon="1.81267">
        <ele>134</ele>
        <time>2012-12-20T08:48:01Z</time>
      </trkpt>
      <trkpt lat="43.87004" lon="1.81264">
        <ele>134</ele>
        <time>2012-12-20T08:48:06Z</time>
      </trkpt>
      <trkpt lat="43.87009" lon="1.81261">
        <ele>135</ele>
        <time>2012-12-20T08:48:11Z</time>
      </trkpt>
      <trkpt lat="43.87014" lon="1.81258">
        <ele>135</ele>
        <time>2012-12-20T08:48:16Z</time>
      </trkpt>
      <trkpt lat="43.8702" lon="1.81253">
        <ele>135</ele>
        <time>2012-12-20T08:48:22Z</time>
      </trkpt>
      <trkpt lat="43.87024" lon="1.81249">
        <ele>136</ele>
        <time>2012-12-20T08:48:26Z</time>
      </trkpt>
      <trkpt lat="43.87029" lon="1.81245">
        <ele>135</ele>
        <time>2012-12-20T08:48:30Z</time>
      </trkpt>
      <trkpt lat="43.87033" lon="1.81243">
        <ele>135</ele>
        <time>2012-12-20T08:48:37Z</time>
      </trkpt>
      <trkpt lat="43.87037" lon="1.8124">
        <ele>135</ele>
        <time>2012-12-20T08:48:43Z</time>
      </trkpt>
      <trkpt lat="43.87046" lon="1.81233">
        <ele>135</ele>
        <time>2012-12-20T08:48:55Z</time>
      </trkpt>
      <trkpt lat="43.87051" lon="1.8123">
        <ele>135</ele>
        <time>2012-12-20T08:48:59Z</time>
      </trkpt>
      <trkpt lat="43.87056" lon="1.81225">
        <ele>134</ele>
        <time>2012-12-20T08:49:04Z</time>
      </trkpt>
      <trkpt lat="43.8706" lon="1.81222">
        <ele>134</ele>
        <time>2012-12-20T08:49:08Z</time>
      </trkpt>
      <trkpt lat="43.87065" lon="1.81218">
        <ele>136</ele>
        <time>2012-12-20T08:49:13Z</time>
      </trkpt>
      <trkpt lat="43.87067" lon="1.81212">
        <ele>137</ele>
        <time>2012-12-20T08:49:18Z</time>
      </trkpt>
      <trkpt lat="43.87069" lon="1.81204">
        <ele>136</ele>
        <time>2012-12-20T08:49:23Z</time>
      </trkpt>
      <trkpt lat="43.87066" lon="1.81199">
        <ele>135</ele>
        <time>2012-12-20T08:49:27Z</time>
      </trkpt>
      <trkpt lat="43.87063" lon="1.81194">
        <ele>134</ele>
        <time>2012-12-20T08:49:34Z</time>
      </trkpt>
      <trkpt lat="43.8706" lon="1.81189">
        <ele>134</ele>
        <time>2012-12-20T08:49:39Z</time>
      </trkpt>
      <trkpt lat="43.87059" lon="1.81182">
        <ele>134</ele>
        <time>2012-12-20T08:49:43Z</time>
      </trkpt>
      <trkpt lat="43.87057" lon="1.81177">
        <ele>134</ele>
        <time>2012-12-20T08:49:47Z</time>
      </trkpt>
      <trkpt lat="43.87054" lon="1.81171">
        <ele>134</ele>
        <time>2012-12-20T08:49:50Z</time>
      </trkpt>
      <trkpt lat="43.8705" lon="1.81166">
        <ele>133</ele>
        <time>2012-12-20T08:49:55Z</time>
      </trkpt>
      <trkpt lat="43.87048" lon="1.8116">
        <ele>133</ele>
        <time>2012-12-20T08:49:59Z</time>
      </trkpt>
      <trkpt lat="43.87043" lon="1.81155">
        <ele>134</ele>
        <time>2012-12-20T08:50:05Z</time>
      </trkpt>
      <trkpt lat="43.87039" lon="1.8115">
        <ele>134</ele>
        <time>2012-12-20T08:50:11Z</time>
      </trkpt>
      <trkpt lat="43.87035" lon="1.81145">
        <ele>134</ele>
        <time>2012-12-20T08:50:15Z</time>
      </trkpt>
      <trkpt lat="43.87032" lon="1.8114">
        <ele>134</ele>
        <time>2012-12-20T08:50:19Z</time>
      </trkpt>
      <trkpt lat="43.87028" lon="1.81135">
        <ele>134</ele>
        <time>2012-12-20T08:50:23Z</time>
      </trkpt>
      <trkpt lat="43.87025" lon="1.8113">
        <ele>135</ele>
        <time>2012-12-20T08:50:26Z</time>
      </trkpt>
      <trkpt lat="43.87022" lon="1.81126">
        <ele>136</ele>
        <time>2012-12-20T08:50:30Z</time>
      </trkpt>
      <trkpt lat="43.87016" lon="1.8112">
        <ele>135</ele>
        <time>2012-12-20T08:50:36Z</time>
      </trkpt>
      <trkpt lat="43.8701" lon="1.81115">
        <ele>135</ele>
        <time>2012-12-20T08:50:42Z</time>
      </trkpt>
      <trkpt lat="43.87006" lon="1.8111">
        <ele>134</ele>
        <time>2012-12-20T08:50:48Z</time>
      </trkpt>
      <trkpt lat="43.87002" lon="1.81106">
        <ele>134</ele>
        <time>2012-12-20T08:50:52Z</time>
      </trkpt>
      <trkpt lat="43.86997" lon="1.81102">
        <ele>133</ele>
        <time>2012-12-20T08:50:56Z</time>
      </trkpt>
      <trkpt lat="43.86992" lon="1.81099">
        <ele>133</ele>
        <time>2012-12-20T08:51:00Z</time>
      </trkpt>
      <trkpt lat="43.86987" lon="1.81095">
        <ele>133</ele>
        <time>2012-12-20T08:51:05Z</time>
      </trkpt>
      <trkpt lat="43.86983" lon="1.81091">
        <ele>133</ele>
        <time>2012-12-20T08:51:09Z</time>
      </trkpt>
      <trkpt lat="43.86979" lon="1.81087">
        <ele>132</ele>
        <time>2012-12-20T08:51:12Z</time>
      </trkpt>
      <trkpt lat="43.86976" lon="1.81082">
        <ele>132</ele>
        <time>2012-12-20T08:51:16Z</time>
      </trkpt>
      <trkpt lat="43.86972" lon="1.81078">
        <ele>132</ele>
        <time>2012-12-20T08:51:21Z</time>
      </trkpt>
      <trkpt lat="43.86969" lon="1.81072">
        <ele>133</ele>
        <time>2012-12-20T08:51:28Z</time>
      </trkpt>
      <trkpt lat="43.86965" lon="1.81068">
        <ele>133</ele>
        <time>2012-12-20T08:51:31Z</time>
      </trkpt>
      <trkpt lat="43.86961" lon="1.81064">
        <ele>133</ele>
        <time>2012-12-20T08:51:35Z</time>
      </trkpt>
      <trkpt lat="43.86957" lon="1.81059">
        <ele>133</ele>
        <time>2012-12-20T08:51:39Z</time>
      </trkpt>
      <trkpt lat="43.86951" lon="1.81055">
        <ele>133</ele>
        <time>2012-12-20T08:51:44Z</time>
      </trkpt>
      <trkpt lat="43.86946" lon="1.81054">
        <ele>133</ele>
        <time>2012-12-20T08:51:49Z</time>
      </trkpt>
      <trkpt lat="43.86942" lon="1.81052">
        <ele>133</ele>
        <time>2012-12-20T08:51:53Z</time>
      </trkpt>
      <trkpt lat="43.86937" lon="1.81049">
        <ele>132</ele>
        <time>2012-12-20T08:51:57Z</time>
      </trkpt>
      <trkpt lat="43.86933" lon="1.81046">
        <ele>132</ele>
        <time>2012-12-20T08:52:01Z</time>
      </trkpt>
      <trkpt lat="43.86928" lon="1.81042">
        <ele>132</ele>
        <time>2012-12-20T08:52:06Z</time>
      </trkpt>
      <trkpt lat="43.86923" lon="1.81038">
        <ele>132</ele>
        <time>2012-12-20T08:52:12Z</time>
      </trkpt>
      <trkpt lat="43.86918" lon="1.81035">
        <ele>131</ele>
        <time>2012-12-20T08:52:17Z</time>
      </trkpt>
      <trkpt lat="43.86913" lon="1.81032">
        <ele>130</ele>
        <time>2012-12-20T08:52:21Z</time>
      </trkpt>
      <trkpt lat="43.86908" lon="1.81031">
        <ele>130</ele>
        <time>2012-12-20T08:52:25Z</time>
      </trkpt>
      <trkpt lat="43.86898" lon="1.81028">
        <ele>130</ele>
        <time>2012-12-20T08:52:33Z</time>
      </trkpt>
      <trkpt lat="43.86893" lon="1.81027">
        <ele>130</ele>
        <time>2012-12-20T08:52:39Z</time>
      </trkpt>
      <trkpt lat="43.86889" lon="1.81025">
        <ele>131</ele>
        <time>2012-12-20T08:52:44Z</time>
      </trkpt>
      <trkpt lat="43.86883" lon="1.81023">
        <ele>131</ele>
        <time>2012-12-20T08:52:48Z</time>
      </trkpt>
      <trkpt lat="43.86878" lon="1.81022">
        <ele>128</ele>
        <time>2012-12-20T08:52:52Z</time>
      </trkpt>
      <trkpt lat="43.86873" lon="1.81019">
        <ele>128</ele>
        <time>2012-12-20T08:52:57Z</time>
      </trkpt>
      <trkpt lat="43.86868" lon="1.81018">
        <ele>129</ele>
        <time>2012-12-20T08:53:01Z</time>
      </trkpt>
      <trkpt lat="43.86864" lon="1.81014">
        <ele>129</ele>
        <time>2012-12-20T08:53:07Z</time>
      </trkpt>
      <trkpt lat="43.86861" lon="1.81009">
        <ele>130</ele>
        <time>2012-12-20T08:53:12Z</time>
      </trkpt>
      <trkpt lat="43.86856" lon="1.81006">
        <ele>131</ele>
        <time>2012-12-20T08:53:17Z</time>
      </trkpt>
      <trkpt lat="43.86852" lon="1.81002">
        <ele>130</ele>
        <time>2012-12-20T08:53:23Z</time>
      </trkpt>
      <trkpt lat="43.86848" lon="1.80998">
        <ele>130</ele>
        <time>2012-12-20T08:53:26Z</time>
      </trkpt>
      <trkpt lat="43.86841" lon="1.80989">
        <ele>131</ele>
        <time>2012-12-20T08:53:33Z</time>
      </trkpt>
      <trkpt lat="43.86835" lon="1.80984">
        <ele>133</ele>
        <time>2012-12-20T08:53:41Z</time>
      </trkpt>
      <trkpt lat="43.86831" lon="1.80981">
        <ele>133</ele>
        <time>2012-12-20T08:53:46Z</time>
      </trkpt>
      <trkpt lat="43.86826" lon="1.80978">
        <ele>133</ele>
        <time>2012-12-20T08:53:50Z</time>
      </trkpt>
      <trkpt lat="43.86822" lon="1.80973">
        <ele>132</ele>
        <time>2012-12-20T08:53:55Z</time>
      </trkpt>
      <trkpt lat="43.86817" lon="1.80971">
        <ele>133</ele>
        <time>2012-12-20T08:54:00Z</time>
      </trkpt>
      <trkpt lat="43.86813" lon="1.80967">
        <ele>132</ele>
        <time>2012-12-20T08:54:05Z</time>
      </trkpt>
      <trkpt lat="43.86809" lon="1.80963">
        <ele>132</ele>
        <time>2012-12-20T08:54:09Z</time>
      </trkpt>
      <trkpt lat="43.86805" lon="1.80958">
        <ele>132</ele>
        <time>2012-12-20T08:54:14Z</time>
      </trkpt>
      <trkpt lat="43.86801" lon="1.80953">
        <ele>131</ele>
        <time>2012-12-20T08:54:18Z</time>
      </trkpt>
      <trkpt lat="43.86797" lon="1.80948">
        <ele>131</ele>
        <time>2012-12-20T08:54:22Z</time>
      </trkpt>
      <trkpt lat="43.86793" lon="1.80945">
        <ele>131</ele>
        <time>2012-12-20T08:54:27Z</time>
      </trkpt>
      <trkpt lat="43.86789" lon="1.80939">
        <ele>133</ele>
        <time>2012-12-20T08:54:32Z</time>
      </trkpt>
      <trkpt lat="43.86785" lon="1.80935">
        <ele>133</ele>
        <time>2012-12-20T08:54:36Z</time>
      </trkpt>
      <trkpt lat="43.86781" lon="1.8093">
        <ele>132</ele>
        <time>2012-12-20T08:54:41Z</time>
      </trkpt>
      <trkpt lat="43.86778" lon="1.80925">
        <ele>131</ele>
        <time>2012-12-20T08:54:46Z</time>
      </trkpt>
      <trkpt lat="43.86774" lon="1.80919">
        <ele>130</ele>
        <time>2012-12-20T08:54:50Z</time>
      </trkpt>
      <trkpt lat="43.86771" lon="1.80914">
        <ele>131</ele>
        <time>2012-12-20T08:54:54Z</time>
      </trkpt>
      <trkpt lat="43.86768" lon="1.80908">
        <ele>131</ele>
        <time>2012-12-20T08:54:57Z</time>
      </trkpt>
      <trkpt lat="43.86765" lon="1.80903">
        <ele>131</ele>
        <time>2012-12-20T08:55:01Z</time>
      </trkpt>
      <trkpt lat="43.86759" lon="1.80902">
        <ele>131</ele>
        <time>2012-12-20T08:55:06Z</time>
      </trkpt>
      <trkpt lat="43.86753" lon="1.809">
        <ele>131</ele>
        <time>2012-12-20T08:55:11Z</time>
      </trkpt>
      <trkpt lat="43.86749" lon="1.80898">
        <ele>130</ele>
        <time>2012-12-20T08:55:15Z</time>
      </trkpt>
      <trkpt lat="43.86742" lon="1.80893">
        <ele>129</ele>
        <time>2012-12-20T08:55:22Z</time>
      </trkpt>
      <trkpt lat="43.86739" lon="1.80888">
        <ele>128</ele>
        <time>2012-12-20T08:55:26Z</time>
      </trkpt>
      <trkpt lat="43.86734" lon="1.80883">
        <ele>127</ele>
        <time>2012-12-20T08:55:31Z</time>
      </trkpt>
      <trkpt lat="43.86726" lon="1.80877">
        <ele>129</ele>
        <time>2012-12-20T08:55:39Z</time>
      </trkpt>
      <trkpt lat="43.86717" lon="1.80869">
        <ele>128</ele>
        <time>2012-12-20T08:55:46Z</time>
      </trkpt>
      <trkpt lat="43.86708" lon="1.80862">
        <ele>128</ele>
        <time>2012-12-20T08:55:55Z</time>
      </trkpt>
      <trkpt lat="43.86701" lon="1.80853">
        <ele>129</ele>
        <time>2012-12-20T08:56:02Z</time>
      </trkpt>
      <trkpt lat="43.86695" lon="1.80849">
        <ele>132</ele>
        <time>2012-12-20T08:56:10Z</time>
      </trkpt>
      <trkpt lat="43.86695" lon="1.80842">
        <ele>132</ele>
        <time>2012-12-20T08:56:13Z</time>
      </trkpt>
      <trkpt lat="43.86698" lon="1.80835">
        <ele>132</ele>
        <time>2012-12-20T08:56:18Z</time>
      </trkpt>
      <trkpt lat="43.86701" lon="1.80831">
        <ele>132</ele>
        <time>2012-12-20T08:56:23Z</time>
      </trkpt>
      <trkpt lat="43.86705" lon="1.80827">
        <ele>132</ele>
        <time>2012-12-20T08:56:27Z</time>
      </trkpt>
      <trkpt lat="43.86712" lon="1.80817">
        <ele>133</ele>
        <time>2012-12-20T08:56:35Z</time>
      </trkpt>
      <trkpt lat="43.86715" lon="1.80812">
        <ele>133</ele>
        <time>2012-12-20T08:56:39Z</time>
      </trkpt>
      <trkpt lat="43.86718" lon="1.80807">
        <ele>132</ele>
        <time>2012-12-20T08:56:43Z</time>
      </trkpt>
      <trkpt lat="43.8672" lon="1.80802">
        <ele>132</ele>
        <time>2012-12-20T08:56:47Z</time>
      </trkpt>
      <trkpt lat="43.86724" lon="1.80798">
        <ele>132</ele>
        <time>2012-12-20T08:56:51Z</time>
      </trkpt>
      <trkpt lat="43.86728" lon="1.80795">
        <ele>132</ele>
        <time>2012-12-20T08:56:54Z</time>
      </trkpt>
      <trkpt lat="43.86732" lon="1.8079">
        <ele>133</ele>
        <time>2012-12-20T08:56:57Z</time>
      </trkpt>
      <trkpt lat="43.86735" lon="1.80786">
        <ele>133</ele>
        <time>2012-12-20T08:57:01Z</time>
      </trkpt>
      <trkpt lat="43.86738" lon="1.80781">
        <ele>134</ele>
        <time>2012-12-20T08:57:05Z</time>
      </trkpt>
      <trkpt lat="43.86744" lon="1.80774">
        <ele>133</ele>
        <time>2012-12-20T08:57:11Z</time>
      </trkpt>
      <trkpt lat="43.86748" lon="1.8077">
        <ele>132</ele>
        <time>2012-12-20T08:57:15Z</time>
      </trkpt>
      <trkpt lat="43.86751" lon="1.80765">
        <ele>131</ele>
        <time>2012-12-20T08:57:20Z</time>
      </trkpt>
      <trkpt lat="43.86756" lon="1.80761">
        <ele>132</ele>
        <time>2012-12-20T08:57:25Z</time>
      </trkpt>
      <trkpt lat="43.86759" lon="1.80756">
        <ele>132</ele>
        <time>2012-12-20T08:57:29Z</time>
      </trkpt>
      <trkpt lat="43.86762" lon="1.8075">
        <ele>132</ele>
        <time>2012-12-20T08:57:32Z</time>
      </trkpt>
      <trkpt lat="43.86765" lon="1.80744">
        <ele>133</ele>
        <time>2012-12-20T08:57:36Z</time>
      </trkpt>
      <trkpt lat="43.86772" lon="1.8074">
        <ele>133</ele>
        <time>2012-12-20T08:57:43Z</time>
      </trkpt>
      <trkpt lat="43.86774" lon="1.80737">
        <ele>133</ele>
        <time>2012-12-20T08:57:50Z</time>
      </trkpt>
      <trkpt lat="43.86779" lon="1.80735">
        <ele>133</ele>
        <time>2012-12-20T08:57:54Z</time>
      </trkpt>
      <trkpt lat="43.86783" lon="1.80734">
        <ele>135</ele>
        <time>2012-12-20T08:57:58Z</time>
      </trkpt>
      <trkpt lat="43.86788" lon="1.80735">
        <ele>135</ele>
        <time>2012-12-20T08:58:02Z</time>
      </trkpt>
      <trkpt lat="43.86793" lon="1.80737">
        <ele>135</ele>
        <time>2012-12-20T08:58:06Z</time>
      </trkpt>
      <trkpt lat="43.86797" lon="1.80739">
        <ele>135</ele>
        <time>2012-12-20T08:58:09Z</time>
      </trkpt>
      <trkpt lat="43.86801" lon="1.80742">
        <ele>135</ele>
        <time>2012-12-20T08:58:13Z</time>
      </trkpt>
      <trkpt lat="43.86805" lon="1.80746">
        <ele>134</ele>
        <time>2012-12-20T08:58:17Z</time>
      </trkpt>
      <trkpt lat="43.86809" lon="1.8075">
        <ele>134</ele>
        <time>2012-12-20T08:58:21Z</time>
      </trkpt>
      <trkpt lat="43.86815" lon="1.80753">
        <ele>135</ele>
        <time>2012-12-20T08:58:25Z</time>
      </trkpt>
      <trkpt lat="43.86819" lon="1.80756">
        <ele>135</ele>
        <time>2012-12-20T08:58:29Z</time>
      </trkpt>
      <trkpt lat="43.86825" lon="1.80758">
        <ele>135</ele>
        <time>2012-12-20T08:58:34Z</time>
      </trkpt>
      <trkpt lat="43.8683" lon="1.80757">
        <ele>135</ele>
        <time>2012-12-20T08:58:38Z</time>
      </trkpt>
      <trkpt lat="43.86835" lon="1.80755">
        <ele>134</ele>
        <time>2012-12-20T08:58:42Z</time>
      </trkpt>
      <trkpt lat="43.8684" lon="1.80753">
        <ele>134</ele>
        <time>2012-12-20T08:58:46Z</time>
      </trkpt>
      <trkpt lat="43.86844" lon="1.8075">
        <ele>134</ele>
        <time>2012-12-20T08:58:50Z</time>
      </trkpt>
      <trkpt lat="43.86849" lon="1.80748">
        <ele>134</ele>
        <time>2012-12-20T08:58:54Z</time>
      </trkpt>
      <trkpt lat="43.86854" lon="1.80746">
        <ele>134</ele>
        <time>2012-12-20T08:58:58Z</time>
      </trkpt>
      <trkpt lat="43.86859" lon="1.80742">
        <ele>134</ele>
        <time>2012-12-20T08:59:03Z</time>
      </trkpt>
      <trkpt lat="43.86864" lon="1.8074">
        <ele>133</ele>
        <time>2012-12-20T08:59:08Z</time>
      </trkpt>
      <trkpt lat="43.86869" lon="1.80738">
        <ele>134</ele>
        <time>2012-12-20T08:59:13Z</time>
      </trkpt>
      <trkpt lat="43.86873" lon="1.80734">
        <ele>134</ele>
        <time>2012-12-20T08:59:18Z</time>
      </trkpt>
      <trkpt lat="43.86878" lon="1.8073">
        <ele>134</ele>
        <time>2012-12-20T08:59:22Z</time>
      </trkpt>
      <trkpt lat="43.86881" lon="1.80726">
        <ele>134</ele>
        <time>2012-12-20T08:59:26Z</time>
      </trkpt>
      <trkpt lat="43.86889" lon="1.80717">
        <ele>132</ele>
        <time>2012-12-20T08:59:36Z</time>
      </trkpt>
      <trkpt lat="43.86898" lon="1.80714">
        <ele>132</ele>
        <time>2012-12-20T08:59:48Z</time>
      </trkpt>
      <trkpt lat="43.86907" lon="1.8071">
        <ele>131</ele>
        <time>2012-12-20T08:59:56Z</time>
      </trkpt>
      <trkpt lat="43.86913" lon="1.80703">
        <ele>130</ele>
        <time>2012-12-20T09:00:05Z</time>
      </trkpt>
      <trkpt lat="43.86925" lon="1.80697">
        <ele>130</ele>
        <time>2012-12-20T09:00:20Z</time>
      </trkpt>
      <trkpt lat="43.86934" lon="1.80689">
        <ele>128</ele>
        <time>2012-12-20T09:00:27Z</time>
      </trkpt>
      <trkpt lat="43.86943" lon="1.80682">
        <ele>129</ele>
        <time>2012-12-20T09:00:34Z</time>
      </trkpt>
      <trkpt lat="43.8695" lon="1.80675">
        <ele>128</ele>
        <time>2012-12-20T09:00:42Z</time>
      </trkpt>
      <trkpt lat="43.86959" lon="1.8067">
        <ele>127</ele>
        <time>2012-12-20T09:00:48Z</time>
      </trkpt>
      <trkpt lat="43.86968" lon="1.80665">
        <ele>129</ele>
        <time>2012-12-20T09:00:55Z</time>
      </trkpt>
      <trkpt lat="43.86974" lon="1.80663">
        <ele>130</ele>
        <time>2012-12-20T09:01:00Z</time>
      </trkpt>
      <trkpt lat="43.86979" lon="1.8066">
        <ele>132</ele>
        <time>2012-12-20T09:01:04Z</time>
      </trkpt>
      <trkpt lat="43.86984" lon="1.80658">
        <ele>133</ele>
        <time>2012-12-20T09:01:08Z</time>
      </trkpt>
      <trkpt lat="43.86988" lon="1.80653">
        <ele>134</ele>
        <time>2012-12-20T09:01:13Z</time>
      </trkpt>
      <trkpt lat="43.86991" lon="1.80651">
        <ele>134</ele>
        <time>2012-12-20T09:01:22Z</time>
      </trkpt>
      <trkpt lat="43.86996" lon="1.80647">
        <ele>133</ele>
        <time>2012-12-20T09:01:33Z</time>
      </trkpt>
      <trkpt lat="43.86999" lon="1.80643">
        <ele>132</ele>
        <time>2012-12-20T09:01:38Z</time>
      </trkpt>
      <trkpt lat="43.87004" lon="1.80641">
        <ele>132</ele>
        <time>2012-12-20T09:01:43Z</time>
      </trkpt>
      <trkpt lat="43.87012" lon="1.80636">
        <ele>132</ele>
        <time>2012-12-20T09:01:49Z</time>
      </trkpt>
      <trkpt lat="43.87016" lon="1.80633">
        <ele>132</ele>
        <time>2012-12-20T09:01:52Z</time>
      </trkpt>
      <trkpt lat="43.87022" lon="1.8063">
        <ele>132</ele>
        <time>2012-12-20T09:01:57Z</time>
      </trkpt>
      <trkpt lat="43.87028" lon="1.80626">
        <ele>133</ele>
        <time>2012-12-20T09:02:04Z</time>
      </trkpt>
      <trkpt lat="43.87032" lon="1.80624">
        <ele>133</ele>
        <time>2012-12-20T09:02:09Z</time>
      </trkpt>
      <trkpt lat="43.87037" lon="1.80621">
        <ele>133</ele>
        <time>2012-12-20T09:02:14Z</time>
      </trkpt>
      <trkpt lat="43.87042" lon="1.80618">
        <ele>132</ele>
        <time>2012-12-20T09:02:19Z</time>
      </trkpt>
      <trkpt lat="43.87047" lon="1.80615">
        <ele>130</ele>
        <time>2012-12-20T09:02:24Z</time>
      </trkpt>
      <trkpt lat="43.87051" lon="1.80611">
        <ele>130</ele>
        <time>2012-12-20T09:02:29Z</time>
      </trkpt>
      <trkpt lat="43.87056" lon="1.80608">
        <ele>130</ele>
        <time>2012-12-20T09:02:36Z</time>
      </trkpt>
      <trkpt lat="43.87065" lon="1.80603">
        <ele>131</ele>
        <time>2012-12-20T09:02:45Z</time>
      </trkpt>
      <trkpt lat="43.87071" lon="1.80599">
        <ele>132</ele>
        <time>2012-12-20T09:02:52Z</time>
      </trkpt>
      <trkpt lat="43.87076" lon="1.80596">
        <ele>132</ele>
        <time>2012-12-20T09:02:56Z</time>
      </trkpt>
      <trkpt lat="43.8708" lon="1.80593">
        <ele>131</ele>
        <time>2012-12-20T09:02:59Z</time>
      </trkpt>
      <trkpt lat="43.87085" lon="1.8059">
        <ele>129</ele>
        <time>2012-12-20T09:03:04Z</time>
      </trkpt>
      <trkpt lat="43.8709" lon="1.80588">
        <ele>131</ele>
        <time>2012-12-20T09:03:09Z</time>
      </trkpt>
      <trkpt lat="43.87094" lon="1.80585">
        <ele>132</ele>
        <time>2012-12-20T09:03:12Z</time>
      </trkpt>
      <trkpt lat="43.871" lon="1.80582">
        <ele>133</ele>
        <time>2012-12-20T09:03:18Z</time>
      </trkpt>
      <trkpt lat="43.87105" lon="1.80579">
        <ele>133</ele>
        <time>2012-12-20T09:03:22Z</time>
      </trkpt>
      <trkpt lat="43.87109" lon="1.80574">
        <ele>132</ele>
        <time>2012-12-20T09:03:27Z</time>
      </trkpt>
      <trkpt lat="43.87113" lon="1.80572">
        <ele>132</ele>
        <time>2012-12-20T09:03:31Z</time>
      </trkpt>
      <trkpt lat="43.87118" lon="1.8057">
        <ele>133</ele>
        <time>2012-12-20T09:03:36Z</time>
      </trkpt>
      <trkpt lat="43.87123" lon="1.8057">
        <ele>134</ele>
        <time>2012-12-20T09:03:41Z</time>
      </trkpt>
      <trkpt lat="43.87128" lon="1.80571">
        <ele>134</ele>
        <time>2012-12-20T09:03:45Z</time>
      </trkpt>
      <trkpt lat="43.87133" lon="1.80572">
        <ele>134</ele>
        <time>2012-12-20T09:03:49Z</time>
      </trkpt>
      <trkpt lat="43.87138" lon="1.80575">
        <ele>134</ele>
        <time>2012-12-20T09:03:54Z</time>
      </trkpt>
      <trkpt lat="43.87142" lon="1.80578">
        <ele>134</ele>
        <time>2012-12-20T09:03:59Z</time>
      </trkpt>
      <trkpt lat="43.87147" lon="1.8058">
        <ele>134</ele>
        <time>2012-12-20T09:04:03Z</time>
      </trkpt>
      <trkpt lat="43.87151" lon="1.80585">
        <ele>133</ele>
        <time>2012-12-20T09:04:08Z</time>
      </trkpt>
      <trkpt lat="43.87156" lon="1.80591">
        <ele>134</ele>
        <time>2012-12-20T09:04:13Z</time>
      </trkpt>
      <trkpt lat="43.8716" lon="1.80594">
        <ele>134</ele>
        <time>2012-12-20T09:04:18Z</time>
      </trkpt>
      <trkpt lat="43.87163" lon="1.80598">
        <ele>134</ele>
        <time>2012-12-20T09:04:23Z</time>
      </trkpt>
      <trkpt lat="43.87171" lon="1.80597">
        <ele>134</ele>
        <time>2012-12-20T09:04:30Z</time>
      </trkpt>
      <trkpt lat="43.87181" lon="1.80592">
        <ele>134</ele>
        <time>2012-12-20T09:04:38Z</time>
      </trkpt>
      <trkpt lat="43.8719" lon="1.80591">
        <ele>135</ele>
        <time>2012-12-20T09:04:46Z</time>
      </trkpt>
      <trkpt lat="43.872" lon="1.80588">
        <ele>136</ele>
        <time>2012-12-20T09:04:53Z</time>
      </trkpt>
      <trkpt lat="43.87209" lon="1.80584">
        <ele>136</ele>
        <time>2012-12-20T09:05:03Z</time>
      </trkpt>
      <trkpt lat="43.87218" lon="1.80581">
        <ele>136</ele>
        <time>2012-12-20T09:05:11Z</time>
      </trkpt>
      <trkpt lat="43.87224" lon="1.8058">
        <ele>136</ele>
        <time>2012-12-20T09:05:15Z</time>
      </trkpt>
      <trkpt lat="43.87229" lon="1.80578">
        <ele>135</ele>
        <time>2012-12-20T09:05:19Z</time>
      </trkpt>
      <trkpt lat="43.87236" lon="1.80574">
        <ele>134</ele>
        <time>2012-12-20T09:05:24Z</time>
      </trkpt>
      <trkpt lat="43.87241" lon="1.80573">
        <ele>133</ele>
        <time>2012-12-20T09:05:28Z</time>
      </trkpt>
      <trkpt lat="43.87246" lon="1.8057">
        <ele>132</ele>
        <time>2012-12-20T09:05:32Z</time>
      </trkpt>
      <trkpt lat="43.87252" lon="1.80569">
        <ele>132</ele>
        <time>2012-12-20T09:05:37Z</time>
      </trkpt>
      <trkpt lat="43.87257" lon="1.80565">
        <ele>132</ele>
        <time>2012-12-20T09:05:42Z</time>
      </trkpt>
      <trkpt lat="43.87263" lon="1.8056">
        <ele>133</ele>
        <time>2012-12-20T09:05:48Z</time>
      </trkpt>
      <trkpt lat="43.87273" lon="1.80556">
        <ele>133</ele>
        <time>2012-12-20T09:05:57Z</time>
      </trkpt>
      <trkpt lat="43.87283" lon="1.80555">
        <ele>134</ele>
        <time>2012-12-20T09:06:07Z</time>
      </trkpt>
      <trkpt lat="43.8729" lon="1.80548">
        <ele>134</ele>
        <time>2012-12-20T09:06:14Z</time>
      </trkpt>
      <trkpt lat="43.87299" lon="1.80541">
        <ele>134</ele>
        <time>2012-12-20T09:06:21Z</time>
      </trkpt>
      <trkpt lat="43.87306" lon="1.80534">
        <ele>134</ele>
        <time>2012-12-20T09:06:29Z</time>
      </trkpt>
      <trkpt lat="43.87311" lon="1.80531">
        <ele>134</ele>
        <time>2012-12-20T09:06:34Z</time>
      </trkpt>
      <trkpt lat="43.8732" lon="1.80523">
        <ele>135</ele>
        <time>2012-12-20T09:06:44Z</time>
      </trkpt>
      <trkpt lat="43.87324" lon="1.80511">
        <ele>136</ele>
        <time>2012-12-20T09:06:50Z</time>
      </trkpt>
      <trkpt lat="43.87331" lon="1.80502">
        <ele>135</ele>
        <time>2012-12-20T09:06:59Z</time>
      </trkpt>
      <trkpt lat="43.8734" lon="1.80497">
        <ele>136</ele>
        <time>2012-12-20T09:07:08Z</time>
      </trkpt>
      <trkpt lat="43.87349" lon="1.80492">
        <ele>135</ele>
        <time>2012-12-20T09:07:21Z</time>
      </trkpt>
      <trkpt lat="43.87359" lon="1.80488">
        <ele>135</ele>
        <time>2012-12-20T09:07:29Z</time>
      </trkpt>
      <trkpt lat="43.87368" lon="1.80484">
        <ele>135</ele>
        <time>2012-12-20T09:07:35Z</time>
      </trkpt>
      <trkpt lat="43.87378" lon="1.8048">
        <ele>135</ele>
        <time>2012-12-20T09:07:42Z</time>
      </trkpt>
      <trkpt lat="43.87387" lon="1.80476">
        <ele>136</ele>
        <time>2012-12-20T09:07:49Z</time>
      </trkpt>
      <trkpt lat="43.87396" lon="1.80471">
        <ele>136</ele>
        <time>2012-12-20T09:07:58Z</time>
      </trkpt>
      <trkpt lat="43.87401" lon="1.80469">
        <ele>137</ele>
        <time>2012-12-20T09:08:03Z</time>
      </trkpt>
      <trkpt lat="43.87405" lon="1.80467">
        <ele>136</ele>
        <time>2012-12-20T09:08:08Z</time>
      </trkpt>
      <trkpt lat="43.87411" lon="1.80465">
        <ele>136</ele>
        <time>2012-12-20T09:08:12Z</time>
      </trkpt>
      <trkpt lat="43.8742" lon="1.80462">
        <ele>137</ele>
        <time>2012-12-20T09:08:20Z</time>
      </trkpt>
      <trkpt lat="43.87427" lon="1.80458">
        <ele>136</ele>
        <time>2012-12-20T09:08:27Z</time>
      </trkpt>
      <trkpt lat="43.87437" lon="1.80454">
        <ele>136</ele>
        <time>2012-12-20T09:08:35Z</time>
      </trkpt>
      <trkpt lat="43.87442" lon="1.80453">
        <ele>135</ele>
        <time>2012-12-20T09:08:40Z</time>
      </trkpt>
      <trkpt lat="43.87448" lon="1.80452">
        <ele>136</ele>
        <time>2012-12-20T09:08:45Z</time>
      </trkpt>
      <trkpt lat="43.87455" lon="1.80447">
        <ele>138</ele>
        <time>2012-12-20T09:08:53Z</time>
      </trkpt>
      <trkpt lat="43.8746" lon="1.80444">
        <ele>138</ele>
        <time>2012-12-20T09:08:57Z</time>
      </trkpt>
      <trkpt lat="43.87465" lon="1.80441">
        <ele>138</ele>
        <time>2012-12-20T09:09:01Z</time>
      </trkpt>
      <trkpt lat="43.8747" lon="1.80439">
        <ele>137</ele>
        <time>2012-12-20T09:09:06Z</time>
      </trkpt>
      <trkpt lat="43.87474" lon="1.80436">
        <ele>138</ele>
        <time>2012-12-20T09:09:10Z</time>
      </trkpt>
      <trkpt lat="43.87479" lon="1.80433">
        <ele>138</ele>
        <time>2012-12-20T09:09:16Z</time>
      </trkpt>
      <trkpt lat="43.87484" lon="1.8043">
        <ele>137</ele>
        <time>2012-12-20T09:09:22Z</time>
      </trkpt>
      <trkpt lat="43.8749" lon="1.80427">
        <ele>135</ele>
        <time>2012-12-20T09:09:29Z</time>
      </trkpt>
      <trkpt lat="43.87495" lon="1.80425">
        <ele>135</ele>
        <time>2012-12-20T09:09:33Z</time>
      </trkpt>
      <trkpt lat="43.875" lon="1.80423">
        <ele>136</ele>
        <time>2012-12-20T09:09:37Z</time>
      </trkpt>
      <trkpt lat="43.87505" lon="1.8042">
        <ele>136</ele>
        <time>2012-12-20T09:09:41Z</time>
      </trkpt>
      <trkpt lat="43.87511" lon="1.80418">
        <ele>136</ele>
        <time>2012-12-20T09:09:46Z</time>
      </trkpt>
      <trkpt lat="43.87515" lon="1.80415">
        <ele>138</ele>
        <time>2012-12-20T09:09:51Z</time>
      </trkpt>
      <trkpt lat="43.8752" lon="1.80414">
        <ele>138</ele>
        <time>2012-12-20T09:09:56Z</time>
      </trkpt>
      <trkpt lat="43.87526" lon="1.80413">
        <ele>139</ele>
        <time>2012-12-20T09:10:00Z</time>
      </trkpt>
      <trkpt lat="43.87531" lon="1.80414">
        <ele>139</ele>
        <time>2012-12-20T09:10:04Z</time>
      </trkpt>
      <trkpt lat="43.87536" lon="1.80416">
        <ele>139</ele>
        <time>2012-12-20T09:10:09Z</time>
      </trkpt>
      <trkpt lat="43.87541" lon="1.80419">
        <ele>137</ele>
        <time>2012-12-20T09:10:14Z</time>
      </trkpt>
      <trkpt lat="43.87549" lon="1.80423">
        <ele>136</ele>
        <time>2012-12-20T09:10:20Z</time>
      </trkpt>
      <trkpt lat="43.87555" lon="1.80425">
        <ele>137</ele>
        <time>2012-12-20T09:10:26Z</time>
      </trkpt>
      <trkpt lat="43.87561" lon="1.80424">
        <ele>137</ele>
        <time>2012-12-20T09:10:31Z</time>
      </trkpt>
      <trkpt lat="43.87565" lon="1.80422">
        <ele>136</ele>
        <time>2012-12-20T09:10:37Z</time>
      </trkpt>
      <trkpt lat="43.8757" lon="1.80418">
        <ele>137</ele>
        <time>2012-12-20T09:10:43Z</time>
      </trkpt>
      <trkpt lat="43.87576" lon="1.80415">
        <ele>138</ele>
        <time>2012-12-20T09:10:49Z</time>
      </trkpt>
      <trkpt lat="43.8758" lon="1.80413">
        <ele>140</ele>
        <time>2012-12-20T09:10:53Z</time>
      </trkpt>
      <trkpt lat="43.87586" lon="1.80411">
        <ele>140</ele>
        <time>2012-12-20T09:10:58Z</time>
      </trkpt>
      <trkpt lat="43.87591" lon="1.80408">
        <ele>139</ele>
        <time>2012-12-20T09:11:03Z</time>
      </trkpt>
      <trkpt lat="43.87596" lon="1.80405">
        <ele>137</ele>
        <time>2012-12-20T09:11:08Z</time>
      </trkpt>
      <trkpt lat="43.876" lon="1.80403">
        <ele>137</ele>
        <time>2012-12-20T09:11:13Z</time>
      </trkpt>
      <trkpt lat="43.87605" lon="1.80401">
        <ele>137</ele>
        <time>2012-12-20T09:11:17Z</time>
      </trkpt>
      <trkpt lat="43.8761" lon="1.804">
        <ele>136</ele>
        <time>2012-12-20T09:11:21Z</time>
      </trkpt>
      <trkpt lat="43.87614" lon="1.80398">
        <ele>134</ele>
        <time>2012-12-20T09:11:25Z</time>
      </trkpt>
      <trkpt lat="43.87619" lon="1.80396">
        <ele>133</ele>
        <time>2012-12-20T09:11:30Z</time>
      </trkpt>
      <trkpt lat="43.87625" lon="1.80393">
        <ele>133</ele>
        <time>2012-12-20T09:11:35Z</time>
      </trkpt>
      <trkpt lat="43.8763" lon="1.80391">
        <ele>134</ele>
        <time>2012-12-20T09:11:39Z</time>
      </trkpt>
      <trkpt lat="43.87634" lon="1.80388">
        <ele>135</ele>
        <time>2012-12-20T09:11:44Z</time>
      </trkpt>
      <trkpt lat="43.87639" lon="1.80386">
        <ele>136</ele>
        <time>2012-12-20T09:11:48Z</time>
      </trkpt>
      <trkpt lat="43.87647" lon="1.80383">
        <ele>135</ele>
        <time>2012-12-20T09:11:56Z</time>
      </trkpt>
      <trkpt lat="43.87654" lon="1.8038">
        <ele>134</ele>
        <time>2012-12-20T09:12:03Z</time>
      </trkpt>
      <trkpt lat="43.87663" lon="1.80377">
        <ele>135</ele>
        <time>2012-12-20T09:12:12Z</time>
      </trkpt>
      <trkpt lat="43.87667" lon="1.80375">
        <ele>135</ele>
        <time>2012-12-20T09:12:15Z</time>
      </trkpt>
      <trkpt lat="43.87672" lon="1.80372">
        <ele>136</ele>
        <time>2012-12-20T09:12:19Z</time>
      </trkpt>
      <trkpt lat="43.87677" lon="1.8037">
        <ele>136</ele>
        <time>2012-12-20T09:12:22Z</time>
      </trkpt>
      <trkpt lat="43.87683" lon="1.80368">
        <ele>137</ele>
        <time>2012-12-20T09:12:26Z</time>
      </trkpt>
      <trkpt lat="43.87688" lon="1.80363">
        <ele>137</ele>
        <time>2012-12-20T09:12:31Z</time>
      </trkpt>
      <trkpt lat="43.87693" lon="1.80361">
        <ele>138</ele>
        <time>2012-12-20T09:12:35Z</time>
      </trkpt>
      <trkpt lat="43.87698" lon="1.80359">
        <ele>137</ele>
        <time>2012-12-20T09:12:40Z</time>
      </trkpt>
      <trkpt lat="43.87703" lon="1.80356">
        <ele>137</ele>
        <time>2012-12-20T09:12:45Z</time>
      </trkpt>
      <trkpt lat="43.87708" lon="1.80354">
        <ele>137</ele>
        <time>2012-12-20T09:12:49Z</time>
      </trkpt>
      <trkpt lat="43.87714" lon="1.80353">
        <ele>137</ele>
        <time>2012-12-20T09:12:52Z</time>
      </trkpt>
      <trkpt lat="43.87718" lon="1.80351">
        <ele>138</ele>
        <time>2012-12-20T09:12:57Z</time>
      </trkpt>
      <trkpt lat="43.87722" lon="1.80348">
        <ele>139</ele>
        <time>2012-12-20T09:13:03Z</time>
      </trkpt>
      <trkpt lat="43.87723" lon="1.80344">
        <ele>137</ele>
        <time>2012-12-20T09:15:48Z</time>
      </trkpt>
      <trkpt lat="43.87727" lon="1.80342">
        <ele>137</ele>
        <time>2012-12-20T09:16:26Z</time>
      </trkpt>
      <trkpt lat="43.8773" lon="1.80342">
        <ele>138</ele>
        <time>2012-12-20T09:16:59Z</time>
      </trkpt>
      <trkpt lat="43.87736" lon="1.80341">
        <ele>138</ele>
        <time>2012-12-20T09:17:04Z</time>
      </trkpt>
      <trkpt lat="43.87742" lon="1.80336">
        <ele>137</ele>
        <time>2012-12-20T09:17:10Z</time>
      </trkpt>
      <trkpt lat="43.87747" lon="1.80334">
        <ele>138</ele>
        <time>2012-12-20T09:17:15Z</time>
      </trkpt>
      <trkpt lat="43.87753" lon="1.80333">
        <ele>138</ele>
        <time>2012-12-20T09:17:20Z</time>
      </trkpt>
      <trkpt lat="43.87758" lon="1.80332">
        <ele>137</ele>
        <time>2012-12-20T09:17:24Z</time>
      </trkpt>
      <trkpt lat="43.87763" lon="1.80331">
        <ele>136</ele>
        <time>2012-12-20T09:17:28Z</time>
      </trkpt>
      <trkpt lat="43.87768" lon="1.80331">
        <ele>135</ele>
        <time>2012-12-20T09:17:33Z</time>
      </trkpt>
      <trkpt lat="43.87773" lon="1.80329">
        <ele>136</ele>
        <time>2012-12-20T09:17:37Z</time>
      </trkpt>
      <trkpt lat="43.87778" lon="1.80328">
        <ele>136</ele>
        <time>2012-12-20T09:17:41Z</time>
      </trkpt>
      <trkpt lat="43.87783" lon="1.80327">
        <ele>136</ele>
        <time>2012-12-20T09:17:46Z</time>
      </trkpt>
      <trkpt lat="43.87788" lon="1.80326">
        <ele>137</ele>
        <time>2012-12-20T09:17:51Z</time>
      </trkpt>
      <trkpt lat="43.87794" lon="1.80324">
        <ele>137</ele>
        <time>2012-12-20T09:17:58Z</time>
      </trkpt>
      <trkpt lat="43.87798" lon="1.80322">
        <ele>138</ele>
        <time>2012-12-20T09:18:02Z</time>
      </trkpt>
      <trkpt lat="43.87803" lon="1.80318">
        <ele>139</ele>
        <time>2012-12-20T09:18:07Z</time>
      </trkpt>
      <trkpt lat="43.87808" lon="1.80316">
        <ele>139</ele>
        <time>2012-12-20T09:18:12Z</time>
      </trkpt>
      <trkpt lat="43.87812" lon="1.80313">
        <ele>139</ele>
        <time>2012-12-20T09:18:17Z</time>
      </trkpt>
      <trkpt lat="43.87817" lon="1.8031">
        <ele>139</ele>
        <time>2012-12-20T09:18:22Z</time>
      </trkpt>
      <trkpt lat="43.87822" lon="1.80309">
        <ele>139</ele>
        <time>2012-12-20T09:18:26Z</time>
      </trkpt>
      <trkpt lat="43.87826" lon="1.80307">
        <ele>139</ele>
        <time>2012-12-20T09:18:31Z</time>
      </trkpt>
      <trkpt lat="43.87835" lon="1.803">
        <ele>138</ele>
        <time>2012-12-20T09:18:39Z</time>
      </trkpt>
      <trkpt lat="43.8784" lon="1.80298">
        <ele>137</ele>
        <time>2012-12-20T09:18:43Z</time>
      </trkpt>
      <trkpt lat="43.87844" lon="1.80296">
        <ele>137</ele>
        <time>2012-12-20T09:18:47Z</time>
      </trkpt>
      <trkpt lat="43.87848" lon="1.80293">
        <ele>138</ele>
        <time>2012-12-20T09:18:53Z</time>
      </trkpt>
      <trkpt lat="43.87854" lon="1.8029">
        <ele>138</ele>
        <time>2012-12-20T09:19:01Z</time>
      </trkpt>
      <trkpt lat="43.87858" lon="1.80288">
        <ele>138</ele>
        <time>2012-12-20T09:19:05Z</time>
      </trkpt>
      <trkpt lat="43.87864" lon="1.80286">
        <ele>139</ele>
        <time>2012-12-20T09:19:10Z</time>
      </trkpt>
      <trkpt lat="43.87869" lon="1.80283">
        <ele>139</ele>
        <time>2012-12-20T09:19:14Z</time>
      </trkpt>
      <trkpt lat="43.87876" lon="1.80276">
        <ele>140</ele>
        <time>2012-12-20T09:19:26Z</time>
      </trkpt>
      <trkpt lat="43.8788" lon="1.80273">
        <ele>142</ele>
        <time>2012-12-20T09:19:31Z</time>
      </trkpt>
      <trkpt lat="43.87884" lon="1.80271">
        <ele>142</ele>
        <time>2012-12-20T09:19:35Z</time>
      </trkpt>
      <trkpt lat="43.87889" lon="1.80269">
        <ele>142</ele>
        <time>2012-12-20T09:19:39Z</time>
      </trkpt>
      <trkpt lat="43.87894" lon="1.80266">
        <ele>142</ele>
        <time>2012-12-20T09:19:44Z</time>
      </trkpt>
      <trkpt lat="43.879" lon="1.80264">
        <ele>144</ele>
        <time>2012-12-20T09:19:50Z</time>
      </trkpt>
      <trkpt lat="43.87906" lon="1.80262">
        <ele>144</ele>
        <time>2012-12-20T09:19:56Z</time>
      </trkpt>
      <trkpt lat="43.87914" lon="1.80258">
        <ele>143</ele>
        <time>2012-12-20T09:20:02Z</time>
      </trkpt>
      <trkpt lat="43.87918" lon="1.80255">
        <ele>142</ele>
        <time>2012-12-20T09:20:06Z</time>
      </trkpt>
      <trkpt lat="43.87924" lon="1.80253">
        <ele>141</ele>
        <time>2012-12-20T09:20:11Z</time>
      </trkpt>
      <trkpt lat="43.87929" lon="1.80253">
        <ele>140</ele>
        <time>2012-12-20T09:20:15Z</time>
      </trkpt>
      <trkpt lat="43.87934" lon="1.80251">
        <ele>139</ele>
        <time>2012-12-20T09:20:20Z</time>
      </trkpt>
      <trkpt lat="43.8794" lon="1.8025">
        <ele>138</ele>
        <time>2012-12-20T09:20:26Z</time>
      </trkpt>
      <trkpt lat="43.87946" lon="1.80248">
        <ele>139</ele>
        <time>2012-12-20T09:20:30Z</time>
      </trkpt>
      <trkpt lat="43.8795" lon="1.80246">
        <ele>140</ele>
        <time>2012-12-20T09:20:34Z</time>
      </trkpt>
      <trkpt lat="43.87955" lon="1.80244">
        <ele>140</ele>
        <time>2012-12-20T09:20:39Z</time>
      </trkpt>
      <trkpt lat="43.87961" lon="1.80242">
        <ele>140</ele>
        <time>2012-12-20T09:20:44Z</time>
      </trkpt>
      <trkpt lat="43.87966" lon="1.8024">
        <ele>141</ele>
        <time>2012-12-20T09:20:48Z</time>
      </trkpt>
      <trkpt lat="43.87971" lon="1.80239">
        <ele>141</ele>
        <time>2012-12-20T09:20:54Z</time>
      </trkpt>
      <trkpt lat="43.87977" lon="1.80237">
        <ele>141</ele>
        <time>2012-12-20T09:20:59Z</time>
      </trkpt>
      <trkpt lat="43.87982" lon="1.80235">
        <ele>142</ele>
        <time>2012-12-20T09:21:04Z</time>
      </trkpt>
      <trkpt lat="43.87986" lon="1.80233">
        <ele>142</ele>
        <time>2012-12-20T09:21:08Z</time>
      </trkpt>
      <trkpt lat="43.87991" lon="1.80232">
        <ele>143</ele>
        <time>2012-12-20T09:21:13Z</time>
      </trkpt>
      <trkpt lat="43.87996" lon="1.8023">
        <ele>144</ele>
        <time>2012-12-20T09:21:18Z</time>
      </trkpt>
      <trkpt lat="43.88" lon="1.80228">
        <ele>144</ele>
        <time>2012-12-20T09:21:22Z</time>
      </trkpt>
      <trkpt lat="43.88006" lon="1.80228">
        <ele>144</ele>
        <time>2012-12-20T09:21:26Z</time>
      </trkpt>
      <trkpt lat="43.88012" lon="1.80224">
        <ele>144</ele>
        <time>2012-12-20T09:21:32Z</time>
      </trkpt>
      <trkpt lat="43.88022" lon="1.80221">
        <ele>143</ele>
        <time>2012-12-20T09:21:41Z</time>
      </trkpt>
      <trkpt lat="43.88029" lon="1.80221">
        <ele>142</ele>
        <time>2012-12-20T09:21:48Z</time>
      </trkpt>
      <trkpt lat="43.88034" lon="1.8022">
        <ele>142</ele>
        <time>2012-12-20T09:21:52Z</time>
      </trkpt>
      <trkpt lat="43.88043" lon="1.80225">
        <ele>143</ele>
        <time>2012-12-20T09:22:03Z</time>
      </trkpt>
      <trkpt lat="43.88047" lon="1.80237">
        <ele>146</ele>
        <time>2012-12-20T09:22:12Z</time>
      </trkpt>
      <trkpt lat="43.88048" lon="1.80246">
        <ele>146</ele>
        <time>2012-12-20T09:22:16Z</time>
      </trkpt>
      <trkpt lat="43.88053" lon="1.80258">
        <ele>144</ele>
        <time>2012-12-20T09:22:25Z</time>
      </trkpt>
      <trkpt lat="43.88056" lon="1.8027">
        <ele>144</ele>
        <time>2012-12-20T09:22:34Z</time>
      </trkpt>
      <trkpt lat="43.88059" lon="1.80282">
        <ele>144</ele>
        <time>2012-12-20T09:22:44Z</time>
      </trkpt>
      <trkpt lat="43.88064" lon="1.80295">
        <ele>145</ele>
        <time>2012-12-20T09:22:53Z</time>
      </trkpt>
      <trkpt lat="43.88069" lon="1.80306">
        <ele>143</ele>
        <time>2012-12-20T09:23:03Z</time>
      </trkpt>
      <trkpt lat="43.88076" lon="1.80303">
        <ele>143</ele>
        <time>2012-12-20T09:23:08Z</time>
      </trkpt>
      <trkpt lat="43.88084" lon="1.80296">
        <ele>144</ele>
        <time>2012-12-20T09:23:16Z</time>
      </trkpt>
      <trkpt lat="43.88092" lon="1.8029">
        <ele>144</ele>
        <time>2012-12-20T09:23:26Z</time>
      </trkpt>
      <trkpt lat="43.88103" lon="1.80287">
        <ele>143</ele>
        <time>2012-12-20T09:23:36Z</time>
      </trkpt>
      <trkpt lat="43.88112" lon="1.80284">
        <ele>141</ele>
        <time>2012-12-20T09:23:43Z</time>
      </trkpt>
      <trkpt lat="43.8812" lon="1.80278">
        <ele>141</ele>
        <time>2012-12-20T09:23:53Z</time>
      </trkpt>
      <trkpt lat="43.88129" lon="1.80272">
        <ele>141</ele>
        <time>2012-12-20T09:24:02Z</time>
      </trkpt>
      <trkpt lat="43.88138" lon="1.80268">
        <ele>141</ele>
        <time>2012-12-20T09:24:10Z</time>
      </trkpt>
      <trkpt lat="43.88144" lon="1.80267">
        <ele>140</ele>
        <time>2012-12-20T09:24:16Z</time>
      </trkpt>
      <trkpt lat="43.88151" lon="1.80261">
        <ele>139</ele>
        <time>2012-12-20T09:24:24Z</time>
      </trkpt>
      <trkpt lat="43.88159" lon="1.80257">
        <ele>140</ele>
        <time>2012-12-20T09:24:30Z</time>
      </trkpt>
      <trkpt lat="43.88168" lon="1.80252">
        <ele>141</ele>
        <time>2012-12-20T09:24:37Z</time>
      </trkpt>
      <trkpt lat="43.88176" lon="1.80247">
        <ele>143</ele>
        <time>2012-12-20T09:24:46Z</time>
      </trkpt>
      <trkpt lat="43.88185" lon="1.80244">
        <ele>144</ele>
        <time>2012-12-20T09:24:54Z</time>
      </trkpt>
      <trkpt lat="43.88189" lon="1.8024">
        <ele>144</ele>
        <time>2012-12-20T09:25:00Z</time>
      </trkpt>
      <trkpt lat="43.88195" lon="1.80237">
        <ele>144</ele>
        <time>2012-12-20T09:25:05Z</time>
      </trkpt>
      <trkpt lat="43.88199" lon="1.80234">
        <ele>145</ele>
        <time>2012-12-20T09:25:10Z</time>
      </trkpt>
      <trkpt lat="43.88204" lon="1.80232">
        <ele>145</ele>
        <time>2012-12-20T09:25:16Z</time>
      </trkpt>
      <trkpt lat="43.88209" lon="1.80229">
        <ele>145</ele>
        <time>2012-12-20T09:25:21Z</time>
      </trkpt>
      <trkpt lat="43.88218" lon="1.80225">
        <ele>146</ele>
        <time>2012-12-20T09:25:30Z</time>
      </trkpt>
      <trkpt lat="43.88227" lon="1.80221">
        <ele>144</ele>
        <time>2012-12-20T09:25:38Z</time>
      </trkpt>
      <trkpt lat="43.88235" lon="1.80216">
        <ele>144</ele>
        <time>2012-12-20T09:25:45Z</time>
      </trkpt>
      <trkpt lat="43.88245" lon="1.80211">
        <ele>147</ele>
        <time>2012-12-20T09:25:52Z</time>
      </trkpt>
      <trkpt lat="43.88254" lon="1.80206">
        <ele>148</ele>
        <time>2012-12-20T09:26:00Z</time>
      </trkpt>
      <trkpt lat="43.8826" lon="1.80203">
        <ele>149</ele>
        <time>2012-12-20T09:26:07Z</time>
      </trkpt>
      <trkpt lat="43.88265" lon="1.80201">
        <ele>149</ele>
        <time>2012-12-20T09:26:11Z</time>
      </trkpt>
      <trkpt lat="43.8827" lon="1.80197">
        <ele>149</ele>
        <time>2012-12-20T09:26:19Z</time>
      </trkpt>
      <trkpt lat="43.88274" lon="1.80194">
        <ele>150</ele>
        <time>2012-12-20T09:26:26Z</time>
      </trkpt>
      <trkpt lat="43.88283" lon="1.80191">
        <ele>149</ele>
        <time>2012-12-20T09:26:33Z</time>
      </trkpt>
      <trkpt lat="43.88288" lon="1.80188">
        <ele>149</ele>
        <time>2012-12-20T09:26:38Z</time>
      </trkpt>
      <trkpt lat="43.88297" lon="1.80182">
        <ele>147</ele>
        <time>2012-12-20T09:26:47Z</time>
      </trkpt>
      <trkpt lat="43.88302" lon="1.80173">
        <ele>149</ele>
        <time>2012-12-20T09:27:17Z</time>
      </trkpt>
      <trkpt lat="43.88311" lon="1.80167">
        <ele>148</ele>
        <time>2012-12-20T09:27:25Z</time>
      </trkpt>
      <trkpt lat="43.88315" lon="1.80165">
        <ele>146</ele>
        <time>2012-12-20T09:27:29Z</time>
      </trkpt>
      <trkpt lat="43.8832" lon="1.80163">
        <ele>145</ele>
        <time>2012-12-20T09:27:33Z</time>
      </trkpt>
      <trkpt lat="43.88328" lon="1.8016">
        <ele>145</ele>
        <time>2012-12-20T09:27:39Z</time>
      </trkpt>
      <trkpt lat="43.88337" lon="1.80156">
        <ele>146</ele>
        <time>2012-12-20T09:27:48Z</time>
      </trkpt>
      <trkpt lat="43.88342" lon="1.80153">
        <ele>145</ele>
        <time>2012-12-20T09:27:52Z</time>
      </trkpt>
      <trkpt lat="43.88347" lon="1.80148">
        <ele>146</ele>
        <time>2012-12-20T09:27:57Z</time>
      </trkpt>
      <trkpt lat="43.88351" lon="1.80145">
        <ele>147</ele>
        <time>2012-12-20T09:28:02Z</time>
      </trkpt>
      <trkpt lat="43.88358" lon="1.80141">
        <ele>147</ele>
        <time>2012-12-20T09:28:08Z</time>
      </trkpt>
      <trkpt lat="43.88363" lon="1.8014">
        <ele>147</ele>
        <time>2012-12-20T09:28:12Z</time>
      </trkpt>
      <trkpt lat="43.88368" lon="1.80137">
        <ele>146</ele>
        <time>2012-12-20T09:28:16Z</time>
      </trkpt>
      <trkpt lat="43.88373" lon="1.80135">
        <ele>145</ele>
        <time>2012-12-20T09:28:20Z</time>
      </trkpt>
      <trkpt lat="43.88378" lon="1.80133">
        <ele>145</ele>
        <time>2012-12-20T09:28:24Z</time>
      </trkpt>
      <trkpt lat="43.88382" lon="1.80129">
        <ele>146</ele>
        <time>2012-12-20T09:28:28Z</time>
      </trkpt>
      <trkpt lat="43.88386" lon="1.80126">
        <ele>146</ele>
        <time>2012-12-20T09:28:32Z</time>
      </trkpt>
      <trkpt lat="43.88391" lon="1.80124">
        <ele>147</ele>
        <time>2012-12-20T09:28:37Z</time>
      </trkpt>
      <trkpt lat="43.88396" lon="1.80121">
        <ele>147</ele>
        <time>2012-12-20T09:28:42Z</time>
      </trkpt>
      <trkpt lat="43.88405" lon="1.80116">
        <ele>148</ele>
        <time>2012-12-20T09:28:50Z</time>
      </trkpt>
      <trkpt lat="43.88409" lon="1.80112">
        <ele>148</ele>
        <time>2012-12-20T09:28:55Z</time>
      </trkpt>
      <trkpt lat="43.88414" lon="1.80109">
        <ele>148</ele>
        <time>2012-12-20T09:29:01Z</time>
      </trkpt>
      <trkpt lat="43.88418" lon="1.80106">
        <ele>149</ele>
        <time>2012-12-20T09:29:06Z</time>
      </trkpt>
      <trkpt lat="43.88428" lon="1.80101">
        <ele>149</ele>
        <time>2012-12-20T09:29:14Z</time>
      </trkpt>
      <trkpt lat="43.88436" lon="1.80095">
        <ele>149</ele>
        <time>2012-12-20T09:29:21Z</time>
      </trkpt>
      <trkpt lat="43.88441" lon="1.80093">
        <ele>149</ele>
        <time>2012-12-20T09:29:25Z</time>
      </trkpt>
      <trkpt lat="43.88447" lon="1.80092">
        <ele>149</ele>
        <time>2012-12-20T09:29:29Z</time>
      </trkpt>
      <trkpt lat="43.88461" lon="1.80092">
        <ele>150</ele>
        <time>2012-12-20T09:29:41Z</time>
      </trkpt>
      <trkpt lat="43.8847" lon="1.80086">
        <ele>150</ele>
        <time>2012-12-20T09:29:49Z</time>
      </trkpt>
      <trkpt lat="43.8848" lon="1.80088">
        <ele>150</ele>
        <time>2012-12-20T09:29:57Z</time>
      </trkpt>
      <trkpt lat="43.88489" lon="1.80091">
        <ele>149</ele>
        <time>2012-12-20T09:30:06Z</time>
      </trkpt>
      <trkpt lat="43.88496" lon="1.80091">
        <ele>150</ele>
        <time>2012-12-20T09:30:11Z</time>
      </trkpt>
      <trkpt lat="43.88501" lon="1.80092">
        <ele>151</ele>
        <time>2012-12-20T09:30:16Z</time>
      </trkpt>
      <trkpt lat="43.88506" lon="1.80094">
        <ele>151</ele>
        <time>2012-12-20T09:30:21Z</time>
      </trkpt>
      <trkpt lat="43.88512" lon="1.80094">
        <ele>150</ele>
        <time>2012-12-20T09:30:26Z</time>
      </trkpt>
      <trkpt lat="43.88519" lon="1.80095">
        <ele>150</ele>
        <time>2012-12-20T09:30:31Z</time>
      </trkpt>
      <trkpt lat="43.88524" lon="1.80097">
        <ele>150</ele>
        <time>2012-12-20T09:30:35Z</time>
      </trkpt>
      <trkpt lat="43.88529" lon="1.80098">
        <ele>150</ele>
        <time>2012-12-20T09:30:40Z</time>
      </trkpt>
      <trkpt lat="43.88536" lon="1.801">
        <ele>149</ele>
        <time>2012-12-20T09:30:46Z</time>
      </trkpt>
      <trkpt lat="43.88541" lon="1.80099">
        <ele>148</ele>
        <time>2012-12-20T09:30:50Z</time>
      </trkpt>
      <trkpt lat="43.88549" lon="1.80099">
        <ele>147</ele>
        <time>2012-12-20T09:30:55Z</time>
      </trkpt>
      <trkpt lat="43.88553" lon="1.801">
        <ele>148</ele>
        <time>2012-12-20T09:30:59Z</time>
      </trkpt>
      <trkpt lat="43.88559" lon="1.80102">
        <ele>148</ele>
        <time>2012-12-20T09:31:04Z</time>
      </trkpt>
      <trkpt lat="43.88564" lon="1.80103">
        <ele>149</ele>
        <time>2012-12-20T09:31:08Z</time>
      </trkpt>
      <trkpt lat="43.8857" lon="1.80105">
        <ele>149</ele>
        <time>2012-12-20T09:31:13Z</time>
      </trkpt>
      <trkpt lat="43.88579" lon="1.80107">
        <ele>149</ele>
        <time>2012-12-20T09:31:21Z</time>
      </trkpt>
      <trkpt lat="43.88588" lon="1.80109">
        <ele>151</ele>
        <time>2012-12-20T09:31:28Z</time>
      </trkpt>
      <trkpt lat="43.88597" lon="1.80109">
        <ele>151</ele>
        <time>2012-12-20T09:31:35Z</time>
      </trkpt>
      <trkpt lat="43.88606" lon="1.80112">
        <ele>151</ele>
        <time>2012-12-20T09:31:43Z</time>
      </trkpt>
      <trkpt lat="43.88614" lon="1.8012">
        <ele>152</ele>
        <time>2012-12-20T09:31:51Z</time>
      </trkpt>
      <trkpt lat="43.88622" lon="1.80123">
        <ele>151</ele>
        <time>2012-12-20T09:32:01Z</time>
      </trkpt>
      <trkpt lat="43.88632" lon="1.80127">
        <ele>152</ele>
        <time>2012-12-20T09:32:12Z</time>
      </trkpt>
      <trkpt lat="43.88638" lon="1.80123">
        <ele>156</ele>
        <time>2012-12-20T09:32:35Z</time>
      </trkpt>
      <trkpt lat="43.88648" lon="1.80124">
        <ele>163</ele>
        <time>2012-12-20T09:33:05Z</time>
      </trkpt>
      <trkpt lat="43.88651" lon="1.8014">
        <ele>164</ele>
        <time>2012-12-20T09:33:13Z</time>
      </trkpt>
      <trkpt lat="43.88657" lon="1.8015">
        <ele>162</ele>
        <time>2012-12-20T09:33:21Z</time>
      </trkpt>
      <trkpt lat="43.88664" lon="1.80159">
        <ele>160</ele>
        <time>2012-12-20T09:33:27Z</time>
      </trkpt>
      <trkpt lat="43.88672" lon="1.80165">
        <ele>157</ele>
        <time>2012-12-20T09:33:36Z</time>
      </trkpt>
      <trkpt lat="43.88681" lon="1.80174">
        <ele>155</ele>
        <time>2012-12-20T09:33:45Z</time>
      </trkpt>
      <trkpt lat="43.88689" lon="1.8018">
        <ele>154</ele>
        <time>2012-12-20T09:33:53Z</time>
      </trkpt>
      <trkpt lat="43.88697" lon="1.80187">
        <ele>155</ele>
        <time>2012-12-20T09:34:00Z</time>
      </trkpt>
      <trkpt lat="43.88704" lon="1.80196">
        <ele>157</ele>
        <time>2012-12-20T09:34:15Z</time>
      </trkpt>
      <trkpt lat="43.88712" lon="1.80185">
        <ele>160</ele>
        <time>2012-12-20T09:34:43Z</time>
      </trkpt>
      <trkpt lat="43.88714" lon="1.80193">
        <ele>156</ele>
        <time>2012-12-20T09:35:25Z</time>
      </trkpt>
      <trkpt lat="43.88721" lon="1.80204">
        <ele>155</ele>
        <time>2012-12-20T09:35:36Z</time>
      </trkpt>
      <trkpt lat="43.8873" lon="1.80209">
        <ele>157</ele>
        <time>2012-12-20T09:35:46Z</time>
      </trkpt>
      <trkpt lat="43.88738" lon="1.80216">
        <ele>157</ele>
        <time>2012-12-20T09:35:58Z</time>
      </trkpt>
      <trkpt lat="43.88744" lon="1.80226">
        <ele>157</ele>
        <time>2012-12-20T09:36:07Z</time>
      </trkpt>
      <trkpt lat="43.8875" lon="1.80228">
        <ele>157</ele>
        <time>2012-12-20T09:36:11Z</time>
      </trkpt>
      <trkpt lat="43.88758" lon="1.80236">
        <ele>157</ele>
        <time>2012-12-20T09:36:21Z</time>
      </trkpt>
      <trkpt lat="43.88766" lon="1.80242">
        <ele>158</ele>
        <time>2012-12-20T09:36:32Z</time>
      </trkpt>
      <trkpt lat="43.88774" lon="1.80249">
        <ele>159</ele>
        <time>2012-12-20T09:36:44Z</time>
      </trkpt>
      <trkpt lat="43.88783" lon="1.80257">
        <ele>160</ele>
        <time>2012-12-20T09:36:57Z</time>
      </trkpt>
      <trkpt lat="43.88787" lon="1.80261">
        <ele>160</ele>
        <time>2012-12-20T09:37:02Z</time>
      </trkpt>
      <trkpt lat="43.88792" lon="1.80265">
        <ele>161</ele>
        <time>2012-12-20T09:37:07Z</time>
      </trkpt>
      <trkpt lat="43.88797" lon="1.80268">
        <ele>162</ele>
        <time>2012-12-20T09:37:14Z</time>
      </trkpt>
      <trkpt lat="43.88805" lon="1.80275">
        <ele>163</ele>
        <time>2012-12-20T09:37:26Z</time>
      </trkpt>
      <trkpt lat="43.88813" lon="1.80282">
        <ele>163</ele>
        <time>2012-12-20T09:37:36Z</time>
      </trkpt>
      <trkpt lat="43.8882" lon="1.80293">
        <ele>162</ele>
        <time>2012-12-20T09:37:47Z</time>
      </trkpt>
      <trkpt lat="43.88828" lon="1.80299">
        <ele>163</ele>
        <time>2012-12-20T09:37:55Z</time>
      </trkpt>
      <trkpt lat="43.88836" lon="1.80303">
        <ele>164</ele>
        <time>2012-12-20T09:38:06Z</time>
      </trkpt>
      <trkpt lat="43.88845" lon="1.80297">
        <ele>168</ele>
        <time>2012-12-20T09:38:16Z</time>
      </trkpt>
      <trkpt lat="43.88852" lon="1.80288">
        <ele>171</ele>
        <time>2012-12-20T09:38:26Z</time>
      </trkpt>
      <trkpt lat="43.88861" lon="1.80284">
        <ele>174</ele>
        <time>2012-12-20T09:38:38Z</time>
      </trkpt>
      <trkpt lat="43.88869" lon="1.80279">
        <ele>175</ele>
        <time>2012-12-20T09:38:49Z</time>
      </trkpt>
      <trkpt lat="43.88876" lon="1.8027">
        <ele>174</ele>
        <time>2012-12-20T09:39:01Z</time>
      </trkpt>
      <trkpt lat="43.88884" lon="1.80261">
        <ele>174</ele>
        <time>2012-12-20T09:39:14Z</time>
      </trkpt>
      <trkpt lat="43.8889" lon="1.80252">
        <ele>176</ele>
        <time>2012-12-20T09:39:26Z</time>
      </trkpt>
      <trkpt lat="43.88895" lon="1.80241">
        <ele>177</ele>
        <time>2012-12-20T09:39:37Z</time>
      </trkpt>
      <trkpt lat="43.88903" lon="1.80235">
        <ele>179</ele>
        <time>2012-12-20T09:39:47Z</time>
      </trkpt>
      <trkpt lat="43.88912" lon="1.80227">
        <ele>180</ele>
        <time>2012-12-20T09:39:57Z</time>
      </trkpt>
      <trkpt lat="43.88917" lon="1.80215">
        <ele>181</ele>
        <time>2012-12-20T09:40:06Z</time>
      </trkpt>
      <trkpt lat="43.88923" lon="1.80204">
        <ele>180</ele>
        <time>2012-12-20T09:40:19Z</time>
      </trkpt>
      <trkpt lat="43.88929" lon="1.80194">
        <ele>183</ele>
        <time>2012-12-20T09:40:31Z</time>
      </trkpt>
      <trkpt lat="43.88937" lon="1.80188">
        <ele>183</ele>
        <time>2012-12-20T09:40:43Z</time>
      </trkpt>
      <trkpt lat="43.88945" lon="1.80183">
        <ele>183</ele>
        <time>2012-12-20T09:40:50Z</time>
      </trkpt>
      <trkpt lat="43.88951" lon="1.80173">
        <ele>188</ele>
        <time>2012-12-20T09:41:02Z</time>
      </trkpt>
      <trkpt lat="43.8896" lon="1.80167">
        <ele>191</ele>
        <time>2012-12-20T09:41:15Z</time>
      </trkpt>
      <trkpt lat="43.88968" lon="1.80159">
        <ele>192</ele>
        <time>2012-12-20T09:41:24Z</time>
      </trkpt>
      <trkpt lat="43.88975" lon="1.80149">
        <ele>190</ele>
        <time>2012-12-20T09:41:35Z</time>
      </trkpt>
      <trkpt lat="43.88983" lon="1.80138">
        <ele>188</ele>
        <time>2012-12-20T09:41:53Z</time>
      </trkpt>
      <trkpt lat="43.88991" lon="1.80128">
        <ele>191</ele>
        <time>2012-12-20T09:42:06Z</time>
      </trkpt>
      <trkpt lat="43.88997" lon="1.80117">
        <ele>192</ele>
        <time>2012-12-20T09:42:17Z</time>
      </trkpt>
      <trkpt lat="43.89002" lon="1.80106">
        <ele>193</ele>
        <time>2012-12-20T09:42:27Z</time>
      </trkpt>
      <trkpt lat="43.89008" lon="1.80096">
        <ele>195</ele>
        <time>2012-12-20T09:42:37Z</time>
      </trkpt>
      <trkpt lat="43.89012" lon="1.80097">
        <ele>197</ele>
        <time>2012-12-20T09:42:42Z</time>
      </trkpt>
      <trkpt lat="43.89022" lon="1.80101">
        <ele>199</ele>
        <time>2012-12-20T09:42:51Z</time>
      </trkpt>
      <trkpt lat="43.89026" lon="1.80103">
        <ele>199</ele>
        <time>2012-12-20T09:42:56Z</time>
      </trkpt>
      <trkpt lat="43.89031" lon="1.80108">
        <ele>201</ele>
        <time>2012-12-20T09:43:01Z</time>
      </trkpt>
      <trkpt lat="43.89035" lon="1.8011">
        <ele>202</ele>
        <time>2012-12-20T09:43:06Z</time>
      </trkpt>
      <trkpt lat="43.8904" lon="1.80114">
        <ele>202</ele>
        <time>2012-12-20T09:43:10Z</time>
      </trkpt>
      <trkpt lat="43.89045" lon="1.80116">
        <ele>203</ele>
        <time>2012-12-20T09:43:16Z</time>
      </trkpt>
      <trkpt lat="43.89051" lon="1.80118">
        <ele>203</ele>
        <time>2012-12-20T09:43:23Z</time>
      </trkpt>
      <trkpt lat="43.8906" lon="1.8012">
        <ele>203</ele>
        <time>2012-12-20T09:43:32Z</time>
      </trkpt>
      <trkpt lat="43.89068" lon="1.80128">
        <ele>204</ele>
        <time>2012-12-20T09:43:43Z</time>
      </trkpt>
      <trkpt lat="43.89078" lon="1.8013">
        <ele>206</ele>
        <time>2012-12-20T09:43:54Z</time>
      </trkpt>
      <trkpt lat="43.89088" lon="1.80133">
        <ele>207</ele>
        <time>2012-12-20T09:44:08Z</time>
      </trkpt>
      <trkpt lat="43.89089" lon="1.80138">
        <ele>206</ele>
        <time>2012-12-20T09:45:11Z</time>
      </trkpt>
      <trkpt lat="43.89098" lon="1.80136">
        <ele>206</ele>
        <time>2012-12-20T09:45:20Z</time>
      </trkpt>
      <trkpt lat="43.89107" lon="1.80132">
        <ele>207</ele>
        <time>2012-12-20T09:45:31Z</time>
      </trkpt>
      <trkpt lat="43.89114" lon="1.8013">
        <ele>210</ele>
        <time>2012-12-20T09:46:05Z</time>
      </trkpt>
      <trkpt lat="43.89123" lon="1.80128">
        <ele>209</ele>
        <time>2012-12-20T09:46:15Z</time>
      </trkpt>
      <trkpt lat="43.89132" lon="1.80122">
        <ele>206</ele>
        <time>2012-12-20T09:46:26Z</time>
      </trkpt>
      <trkpt lat="43.89141" lon="1.80119">
        <ele>204</ele>
        <time>2012-12-20T09:46:34Z</time>
      </trkpt>
      <trkpt lat="43.89149" lon="1.80113">
        <ele>204</ele>
        <time>2012-12-20T09:46:42Z</time>
      </trkpt>
      <trkpt lat="43.89159" lon="1.80115">
        <ele>203</ele>
        <time>2012-12-20T09:46:57Z</time>
      </trkpt>
      <trkpt lat="43.89168" lon="1.80114">
        <ele>206</ele>
        <time>2012-12-20T09:47:08Z</time>
      </trkpt>
      <trkpt lat="43.89173" lon="1.80114">
        <ele>207</ele>
        <time>2012-12-20T09:47:15Z</time>
      </trkpt>
      <trkpt lat="43.8918" lon="1.80113">
        <ele>207</ele>
        <time>2012-12-20T09:47:24Z</time>
      </trkpt>
      <trkpt lat="43.89184" lon="1.80113">
        <ele>207</ele>
        <time>2012-12-20T09:47:29Z</time>
      </trkpt>
      <trkpt lat="43.89194" lon="1.80119">
        <ele>208</ele>
        <time>2012-12-20T09:48:03Z</time>
      </trkpt>
      <trkpt lat="43.89201" lon="1.80124">
        <ele>208</ele>
        <time>2012-12-20T09:48:16Z</time>
      </trkpt>
      <trkpt lat="43.8921" lon="1.80127">
        <ele>207</ele>
        <time>2012-12-20T09:48:26Z</time>
      </trkpt>
      <trkpt lat="43.89217" lon="1.80136">
        <ele>209</ele>
        <time>2012-12-20T09:48:35Z</time>
      </trkpt>
      <trkpt lat="43.8922" lon="1.80148">
        <ele>209</ele>
        <time>2012-12-20T09:48:48Z</time>
      </trkpt>
      <trkpt lat="43.89228" lon="1.80156">
        <ele>209</ele>
        <time>2012-12-20T09:48:56Z</time>
      </trkpt>
      <trkpt lat="43.89233" lon="1.80166">
        <ele>211</ele>
        <time>2012-12-20T09:49:12Z</time>
      </trkpt>
      <trkpt lat="43.89239" lon="1.80176">
        <ele>210</ele>
        <time>2012-12-20T09:49:22Z</time>
      </trkpt>
      <trkpt lat="43.89244" lon="1.80187">
        <ele>211</ele>
        <time>2012-12-20T09:49:31Z</time>
      </trkpt>
      <trkpt lat="43.89248" lon="1.80197">
        <ele>209</ele>
        <time>2012-12-20T09:49:40Z</time>
      </trkpt>
      <trkpt lat="43.89256" lon="1.80207">
        <ele>209</ele>
        <time>2012-12-20T09:49:56Z</time>
      </trkpt>
      <trkpt lat="43.89266" lon="1.8022">
        <ele>214</ele>
        <time>2012-12-20T09:50:23Z</time>
      </trkpt>
      <trkpt lat="43.89269" lon="1.80232">
        <ele>214</ele>
        <time>2012-12-20T09:50:37Z</time>
      </trkpt>
      <trkpt lat="43.89276" lon="1.80248">
        <ele>218</ele>
        <time>2012-12-20T09:51:04Z</time>
      </trkpt>
      <trkpt lat="43.89279" lon="1.8026">
        <ele>221</ele>
        <time>2012-12-20T09:51:10Z</time>
      </trkpt>
      <trkpt lat="43.89279" lon="1.80268">
        <ele>223</ele>
        <time>2012-12-20T09:51:17Z</time>
      </trkpt>
      <trkpt lat="43.89282" lon="1.80273">
        <ele>225</ele>
        <time>2012-12-20T09:51:23Z</time>
      </trkpt>
      <trkpt lat="43.89285" lon="1.80278">
        <ele>226</ele>
        <time>2012-12-20T09:51:28Z</time>
      </trkpt>
      <trkpt lat="43.89289" lon="1.80287">
        <ele>227</ele>
        <time>2012-12-20T09:51:41Z</time>
      </trkpt>
      <trkpt lat="43.89294" lon="1.8029">
        <ele>227</ele>
        <time>2012-12-20T09:51:47Z</time>
      </trkpt>
      <trkpt lat="43.89299" lon="1.80293">
        <ele>227</ele>
        <time>2012-12-20T09:51:53Z</time>
      </trkpt>
      <trkpt lat="43.89304" lon="1.80297">
        <ele>230</ele>
        <time>2012-12-20T09:52:15Z</time>
      </trkpt>
      <trkpt lat="43.89307" lon="1.80297">
        <ele>229</ele>
        <time>2012-12-20T09:56:09Z</time>
      </trkpt>
      <trkpt lat="43.89295" lon="1.80305">
        <ele>228</ele>
        <time>2012-12-20T09:57:37Z</time>
      </trkpt>
      <trkpt lat="43.89342" lon="1.80325">
        <ele>231</ele>
        <time>2012-12-20T09:59:12Z</time>
      </trkpt>
      <trkpt lat="43.8936" lon="1.80295">
        <ele>231</ele>
        <time>2012-12-20T09:59:32Z</time>
      </trkpt>
      <trkpt lat="43.89332" lon="1.80282">
        <ele>237</ele>
        <time>2012-12-20T10:00:22Z</time>
      </trkpt>
      <trkpt lat="43.89307" lon="1.8027">
        <ele>228</ele>
        <time>2012-12-20T10:01:15Z</time>
      </trkpt>
      <trkpt lat="43.89307" lon="1.80287">
        <ele>226</ele>
        <time>2012-12-20T10:01:18Z</time>
      </trkpt>
      <trkpt lat="43.89305" lon="1.80299">
        <ele>227</ele>
        <time>2012-12-20T10:01:23Z</time>
      </trkpt>
      <trkpt lat="43.893" lon="1.80301">
        <ele>225</ele>
        <time>2012-12-20T10:01:38Z</time>
      </trkpt>
      <trkpt lat="43.8929" lon="1.80305">
        <ele>225</ele>
        <time>2012-12-20T10:01:49Z</time>
      </trkpt>
      <trkpt lat="43.89282" lon="1.80316">
        <ele>229</ele>
        <time>2012-12-20T10:01:58Z</time>
      </trkpt>
      <trkpt lat="43.89288" lon="1.80327">
        <ele>229</ele>
        <time>2012-12-20T10:02:05Z</time>
      </trkpt>
      <trkpt lat="43.89296" lon="1.80335">
        <ele>229</ele>
        <time>2012-12-20T10:02:12Z</time>
      </trkpt>
      <trkpt lat="43.89304" lon="1.80343">
        <ele>227</ele>
        <time>2012-12-20T10:02:20Z</time>
      </trkpt>
      <trkpt lat="43.89313" lon="1.80347">
        <ele>225</ele>
        <time>2012-12-20T10:02:26Z</time>
      </trkpt>
      <trkpt lat="43.89322" lon="1.80351">
        <ele>223</ele>
        <time>2012-12-20T10:02:35Z</time>
      </trkpt>
      <trkpt lat="43.89332" lon="1.80353">
        <ele>224</ele>
        <time>2012-12-20T10:02:44Z</time>
      </trkpt>
      <trkpt lat="43.89338" lon="1.80338">
        <ele>224</ele>
        <time>2012-12-20T10:02:55Z</time>
      </trkpt>
      <trkpt lat="43.89341" lon="1.80325">
        <ele>224</ele>
        <time>2012-12-20T10:03:01Z</time>
      </trkpt>
      <trkpt lat="43.89347" lon="1.80316">
        <ele>222</ele>
        <time>2012-12-20T10:03:10Z</time>
      </trkpt>
      <trkpt lat="43.89353" lon="1.80307">
        <ele>222</ele>
        <time>2012-12-20T10:03:22Z</time>
      </trkpt>
      <trkpt lat="43.89362" lon="1.80301">
        <ele>222</ele>
        <time>2012-12-20T10:03:32Z</time>
      </trkpt>
      <trkpt lat="43.8937" lon="1.80294">
        <ele>220</ele>
        <time>2012-12-20T10:03:42Z</time>
      </trkpt>
      <trkpt lat="43.89378" lon="1.80286">
        <ele>217</ele>
        <time>2012-12-20T10:03:51Z</time>
      </trkpt>
      <trkpt lat="43.89385" lon="1.80278">
        <ele>217</ele>
        <time>2012-12-20T10:04:00Z</time>
      </trkpt>
      <trkpt lat="43.89389" lon="1.80274">
        <ele>219</ele>
        <time>2012-12-20T10:04:05Z</time>
      </trkpt>
      <trkpt lat="43.89397" lon="1.80271">
        <ele>222</ele>
        <time>2012-12-20T10:04:23Z</time>
      </trkpt>
      <trkpt lat="43.894" lon="1.80265">
        <ele>220</ele>
        <time>2012-12-20T10:04:31Z</time>
      </trkpt>
      <trkpt lat="43.89401" lon="1.80259">
        <ele>220</ele>
        <time>2012-12-20T10:04:37Z</time>
      </trkpt>
      <trkpt lat="43.89405" lon="1.80254">
        <ele>218</ele>
        <time>2012-12-20T10:04:41Z</time>
      </trkpt>
      <trkpt lat="43.89408" lon="1.80249">
        <ele>218</ele>
        <time>2012-12-20T10:04:44Z</time>
      </trkpt>
      <trkpt lat="43.89411" lon="1.80242">
        <ele>219</ele>
        <time>2012-12-20T10:04:50Z</time>
      </trkpt>
      <trkpt lat="43.8941" lon="1.80235">
        <ele>219</ele>
        <time>2012-12-20T10:04:56Z</time>
      </trkpt>
      <trkpt lat="43.89414" lon="1.80229">
        <ele>224</ele>
        <time>2012-12-20T10:05:43Z</time>
      </trkpt>
      <trkpt lat="43.89417" lon="1.80223">
        <ele>226</ele>
        <time>2012-12-20T10:05:51Z</time>
      </trkpt>
      <trkpt lat="43.89424" lon="1.80215">
        <ele>228</ele>
        <time>2012-12-20T10:06:01Z</time>
      </trkpt>
      <trkpt lat="43.89428" lon="1.8021">
        <ele>225</ele>
        <time>2012-12-20T10:06:06Z</time>
      </trkpt>
      <trkpt lat="43.89433" lon="1.80199">
        <ele>225</ele>
        <time>2012-12-20T10:06:17Z</time>
      </trkpt>
      <trkpt lat="43.89436" lon="1.80194">
        <ele>228</ele>
        <time>2012-12-20T10:06:23Z</time>
      </trkpt>
      <trkpt lat="43.89442" lon="1.80189">
        <ele>230</ele>
        <time>2012-12-20T10:06:29Z</time>
      </trkpt>
      <trkpt lat="43.89449" lon="1.8018">
        <ele>235</ele>
        <time>2012-12-20T10:06:39Z</time>
      </trkpt>
      <trkpt lat="43.89453" lon="1.80176">
        <ele>236</ele>
        <time>2012-12-20T10:06:43Z</time>
      </trkpt>
      <trkpt lat="43.89457" lon="1.80173">
        <ele>236</ele>
        <time>2012-12-20T10:06:46Z</time>
      </trkpt>
      <trkpt lat="43.89462" lon="1.80166">
        <ele>235</ele>
        <time>2012-12-20T10:06:55Z</time>
      </trkpt>
      <trkpt lat="43.89473" lon="1.80154">
        <ele>226</ele>
        <time>2012-12-20T10:07:13Z</time>
      </trkpt>
      <trkpt lat="43.89478" lon="1.80152">
        <ele>226</ele>
        <time>2012-12-20T10:07:18Z</time>
      </trkpt>
      <trkpt lat="43.89482" lon="1.80149">
        <ele>227</ele>
        <time>2012-12-20T10:07:22Z</time>
      </trkpt>
      <trkpt lat="43.89488" lon="1.80146">
        <ele>229</ele>
        <time>2012-12-20T10:07:29Z</time>
      </trkpt>
      <trkpt lat="43.89493" lon="1.80143">
        <ele>231</ele>
        <time>2012-12-20T10:07:36Z</time>
      </trkpt>
      <trkpt lat="43.89499" lon="1.80145">
        <ele>234</ele>
        <time>2012-12-20T10:07:43Z</time>
      </trkpt>
      <trkpt lat="43.8951" lon="1.80145">
        <ele>233</ele>
        <time>2012-12-20T10:07:54Z</time>
      </trkpt>
      <trkpt lat="43.8952" lon="1.80142">
        <ele>229</ele>
        <time>2012-12-20T10:08:03Z</time>
      </trkpt>
      <trkpt lat="43.89529" lon="1.80144">
        <ele>229</ele>
        <time>2012-12-20T10:08:12Z</time>
      </trkpt>
      <trkpt lat="43.89539" lon="1.80143">
        <ele>226</ele>
        <time>2012-12-20T10:08:21Z</time>
      </trkpt>
      <trkpt lat="43.89548" lon="1.80144">
        <ele>226</ele>
        <time>2012-12-20T10:08:31Z</time>
      </trkpt>
      <trkpt lat="43.89559" lon="1.8014">
        <ele>227</ele>
        <time>2012-12-20T10:08:43Z</time>
      </trkpt>
      <trkpt lat="43.89586" lon="1.80123">
        <ele>240</ele>
        <time>2012-12-20T10:09:24Z</time>
      </trkpt>
      <trkpt lat="43.89595" lon="1.80119">
        <ele>243</ele>
        <time>2012-12-20T10:09:34Z</time>
      </trkpt>
      <trkpt lat="43.89604" lon="1.80118">
        <ele>242</ele>
        <time>2012-12-20T10:09:43Z</time>
      </trkpt>
      <trkpt lat="43.89613" lon="1.80111">
        <ele>242</ele>
        <time>2012-12-20T10:09:55Z</time>
      </trkpt>
      <trkpt lat="43.89622" lon="1.80106">
        <ele>240</ele>
        <time>2012-12-20T10:10:09Z</time>
      </trkpt>
      <trkpt lat="43.89631" lon="1.80103">
        <ele>241</ele>
        <time>2012-12-20T10:10:19Z</time>
      </trkpt>
      <trkpt lat="43.8964" lon="1.80106">
        <ele>240</ele>
        <time>2012-12-20T10:10:29Z</time>
      </trkpt>
      <trkpt lat="43.89652" lon="1.80102">
        <ele>239</ele>
        <time>2012-12-20T10:10:43Z</time>
      </trkpt>
      <trkpt lat="43.89662" lon="1.80104">
        <ele>239</ele>
        <time>2012-12-20T10:10:52Z</time>
      </trkpt>
      <trkpt lat="43.89672" lon="1.80103">
        <ele>240</ele>
        <time>2012-12-20T10:10:59Z</time>
      </trkpt>
      <trkpt lat="43.89679" lon="1.80102">
        <ele>242</ele>
        <time>2012-12-20T10:11:04Z</time>
      </trkpt>
      <trkpt lat="43.89684" lon="1.80101">
        <ele>243</ele>
        <time>2012-12-20T10:11:07Z</time>
      </trkpt>
      <trkpt lat="43.89689" lon="1.80101">
        <ele>244</ele>
        <time>2012-12-20T10:11:12Z</time>
      </trkpt>
      <trkpt lat="43.89695" lon="1.80102">
        <ele>245</ele>
        <time>2012-12-20T10:11:16Z</time>
      </trkpt>
      <trkpt lat="43.897" lon="1.80102">
        <ele>245</ele>
        <time>2012-12-20T10:11:22Z</time>
      </trkpt>
      <trkpt lat="43.89705" lon="1.80102">
        <ele>244</ele>
        <time>2012-12-20T10:11:27Z</time>
      </trkpt>
      <trkpt lat="43.89715" lon="1.80104">
        <ele>246</ele>
        <time>2012-12-20T10:11:36Z</time>
      </trkpt>
      <trkpt lat="43.89725" lon="1.80106">
        <ele>247</ele>
        <time>2012-12-20T10:11:45Z</time>
      </trkpt>
      <trkpt lat="43.89736" lon="1.80107">
        <ele>247</ele>
        <time>2012-12-20T10:11:54Z</time>
      </trkpt>
      <trkpt lat="43.89745" lon="1.80107">
        <ele>248</ele>
        <time>2012-12-20T10:12:01Z</time>
      </trkpt>
      <trkpt lat="43.89753" lon="1.80115">
        <ele>249</ele>
        <time>2012-12-20T10:12:14Z</time>
      </trkpt>
      <trkpt lat="43.89764" lon="1.8012">
        <ele>248</ele>
        <time>2012-12-20T10:12:22Z</time>
      </trkpt>
      <trkpt lat="43.89771" lon="1.80127">
        <ele>246</ele>
        <time>2012-12-20T10:12:30Z</time>
      </trkpt>
      <trkpt lat="43.89781" lon="1.80128">
        <ele>242</ele>
        <time>2012-12-20T10:12:40Z</time>
      </trkpt>
      <trkpt lat="43.89791" lon="1.80124">
        <ele>241</ele>
        <time>2012-12-20T10:12:48Z</time>
      </trkpt>
      <trkpt lat="43.89799" lon="1.80131">
        <ele>240</ele>
        <time>2012-12-20T10:12:58Z</time>
      </trkpt>
      <trkpt lat="43.89804" lon="1.80144">
        <ele>241</ele>
        <time>2012-12-20T10:13:08Z</time>
      </trkpt>
      <trkpt lat="43.89807" lon="1.8015">
        <ele>240</ele>
        <time>2012-12-20T10:13:13Z</time>
      </trkpt>
      <trkpt lat="43.89814" lon="1.80159">
        <ele>238</ele>
        <time>2012-12-20T10:13:22Z</time>
      </trkpt>
      <trkpt lat="43.89818" lon="1.80162">
        <ele>238</ele>
        <time>2012-12-20T10:13:29Z</time>
      </trkpt>
      <trkpt lat="43.89822" lon="1.80169">
        <ele>240</ele>
        <time>2012-12-20T10:13:35Z</time>
      </trkpt>
      <trkpt lat="43.89825" lon="1.80175">
        <ele>242</ele>
        <time>2012-12-20T10:13:47Z</time>
      </trkpt>
      <trkpt lat="43.89829" lon="1.80181">
        <ele>242</ele>
        <time>2012-12-20T10:13:52Z</time>
      </trkpt>
      <trkpt lat="43.89832" lon="1.8019">
        <ele>241</ele>
        <time>2012-12-20T10:13:59Z</time>
      </trkpt>
      <trkpt lat="43.89835" lon="1.80195">
        <ele>239</ele>
        <time>2012-12-20T10:14:03Z</time>
      </trkpt>
      <trkpt lat="43.89838" lon="1.802">
        <ele>239</ele>
        <time>2012-12-20T10:14:07Z</time>
      </trkpt>
      <trkpt lat="43.89841" lon="1.80205">
        <ele>237</ele>
        <time>2012-12-20T10:14:12Z</time>
      </trkpt>
      <trkpt lat="43.89845" lon="1.80209">
        <ele>237</ele>
        <time>2012-12-20T10:14:17Z</time>
      </trkpt>
      <trkpt lat="43.89849" lon="1.80212">
        <ele>238</ele>
        <time>2012-12-20T10:14:23Z</time>
      </trkpt>
      <trkpt lat="43.89857" lon="1.80219">
        <ele>239</ele>
        <time>2012-12-20T10:14:32Z</time>
      </trkpt>
      <trkpt lat="43.89861" lon="1.80224">
        <ele>240</ele>
        <time>2012-12-20T10:14:38Z</time>
      </trkpt>
      <trkpt lat="43.89864" lon="1.8023">
        <ele>240</ele>
        <time>2012-12-20T10:14:44Z</time>
      </trkpt>
      <trkpt lat="43.89866" lon="1.80237">
        <ele>242</ele>
        <time>2012-12-20T10:14:49Z</time>
      </trkpt>
      <trkpt lat="43.89866" lon="1.80245">
        <ele>243</ele>
        <time>2012-12-20T10:14:53Z</time>
      </trkpt>
      <trkpt lat="43.89867" lon="1.80259">
        <ele>242</ele>
        <time>2012-12-20T10:15:04Z</time>
      </trkpt>
      <trkpt lat="43.89869" lon="1.80265">
        <ele>241</ele>
        <time>2012-12-20T10:15:10Z</time>
      </trkpt>
      <trkpt lat="43.89871" lon="1.80272">
        <ele>239</ele>
        <time>2012-12-20T10:15:18Z</time>
      </trkpt>
      <trkpt lat="43.89872" lon="1.80278">
        <ele>240</ele>
        <time>2012-12-20T10:15:23Z</time>
      </trkpt>
      <trkpt lat="43.89875" lon="1.80284">
        <ele>241</ele>
        <time>2012-12-20T10:15:27Z</time>
      </trkpt>
      <trkpt lat="43.89879" lon="1.80296">
        <ele>242</ele>
        <time>2012-12-20T10:15:36Z</time>
      </trkpt>
      <trkpt lat="43.89882" lon="1.80302">
        <ele>241</ele>
        <time>2012-12-20T10:15:46Z</time>
      </trkpt>
      <trkpt lat="43.89884" lon="1.80305">
        <ele>242</ele>
        <time>2012-12-20T10:15:53Z</time>
      </trkpt>
      <trkpt lat="43.89885" lon="1.8031">
        <ele>242</ele>
        <time>2012-12-20T10:16:27Z</time>
      </trkpt>
      <trkpt lat="43.89886" lon="1.80318">
        <ele>243</ele>
        <time>2012-12-20T10:16:32Z</time>
      </trkpt>
      <trkpt lat="43.89887" lon="1.80326">
        <ele>243</ele>
        <time>2012-12-20T10:16:37Z</time>
      </trkpt>
      <trkpt lat="43.89888" lon="1.80333">
        <ele>243</ele>
        <time>2012-12-20T10:16:43Z</time>
      </trkpt>
      <trkpt lat="43.89888" lon="1.8034">
        <ele>244</ele>
        <time>2012-12-20T10:16:49Z</time>
      </trkpt>
      <trkpt lat="43.8989" lon="1.80347">
        <ele>242</ele>
        <time>2012-12-20T10:16:54Z</time>
      </trkpt>
      <trkpt lat="43.89891" lon="1.80353">
        <ele>241</ele>
        <time>2012-12-20T10:17:00Z</time>
      </trkpt>
      <trkpt lat="43.89894" lon="1.8036">
        <ele>241</ele>
        <time>2012-12-20T10:17:05Z</time>
      </trkpt>
      <trkpt lat="43.89896" lon="1.80367">
        <ele>241</ele>
        <time>2012-12-20T10:17:09Z</time>
      </trkpt>
      <trkpt lat="43.899" lon="1.80371">
        <ele>241</ele>
        <time>2012-12-20T10:17:13Z</time>
      </trkpt>
      <trkpt lat="43.89904" lon="1.80374">
        <ele>241</ele>
        <time>2012-12-20T10:17:18Z</time>
      </trkpt>
      <trkpt lat="43.89907" lon="1.80379">
        <ele>242</ele>
        <time>2012-12-20T10:17:23Z</time>
      </trkpt>
      <trkpt lat="43.8991" lon="1.80385">
        <ele>242</ele>
        <time>2012-12-20T10:17:27Z</time>
      </trkpt>
      <trkpt lat="43.89914" lon="1.80392">
        <ele>242</ele>
        <time>2012-12-20T10:17:31Z</time>
      </trkpt>
      <trkpt lat="43.89917" lon="1.80397">
        <ele>241</ele>
        <time>2012-12-20T10:17:37Z</time>
      </trkpt>
      <trkpt lat="43.8992" lon="1.80402">
        <ele>240</ele>
        <time>2012-12-20T10:17:41Z</time>
      </trkpt>
      <trkpt lat="43.89923" lon="1.80408">
        <ele>240</ele>
        <time>2012-12-20T10:17:46Z</time>
      </trkpt>
      <trkpt lat="43.89927" lon="1.80416">
        <ele>241</ele>
        <time>2012-12-20T10:17:53Z</time>
      </trkpt>
      <trkpt lat="43.89928" lon="1.80426">
        <ele>242</ele>
        <time>2012-12-20T10:18:03Z</time>
      </trkpt>
      <trkpt lat="43.89928" lon="1.80439">
        <ele>241</ele>
        <time>2012-12-20T10:18:10Z</time>
      </trkpt>
      <trkpt lat="43.89928" lon="1.80449">
        <ele>242</ele>
        <time>2012-12-20T10:18:16Z</time>
      </trkpt>
      <trkpt lat="43.89929" lon="1.80457">
        <ele>242</ele>
        <time>2012-12-20T10:18:20Z</time>
      </trkpt>
      <trkpt lat="43.89929" lon="1.80466">
        <ele>242</ele>
        <time>2012-12-20T10:18:25Z</time>
      </trkpt>
      <trkpt lat="43.89929" lon="1.80473">
        <ele>241</ele>
        <time>2012-12-20T10:18:30Z</time>
      </trkpt>
      <trkpt lat="43.89928" lon="1.80479">
        <ele>240</ele>
        <time>2012-12-20T10:18:35Z</time>
      </trkpt>
      <trkpt lat="43.89928" lon="1.80487">
        <ele>239</ele>
        <time>2012-12-20T10:18:40Z</time>
      </trkpt>
      <trkpt lat="43.8993" lon="1.80499">
        <ele>240</ele>
        <time>2012-12-20T10:18:48Z</time>
      </trkpt>
      <trkpt lat="43.89933" lon="1.80513">
        <ele>241</ele>
        <time>2012-12-20T10:18:56Z</time>
      </trkpt>
      <trkpt lat="43.89935" lon="1.80525">
        <ele>241</ele>
        <time>2012-12-20T10:19:06Z</time>
      </trkpt>
      <trkpt lat="43.89939" lon="1.80538">
        <ele>240</ele>
        <time>2012-12-20T10:19:16Z</time>
      </trkpt>
      <trkpt lat="43.8994" lon="1.80551">
        <ele>240</ele>
        <time>2012-12-20T10:19:23Z</time>
      </trkpt>
      <trkpt lat="43.89941" lon="1.80559">
        <ele>240</ele>
        <time>2012-12-20T10:19:28Z</time>
      </trkpt>
      <trkpt lat="43.89941" lon="1.80566">
        <ele>240</ele>
        <time>2012-12-20T10:19:31Z</time>
      </trkpt>
      <trkpt lat="43.8994" lon="1.80572">
        <ele>240</ele>
        <time>2012-12-20T10:19:35Z</time>
      </trkpt>
      <trkpt lat="43.89943" lon="1.80578">
        <ele>238</ele>
        <time>2012-12-20T10:19:45Z</time>
      </trkpt>
      <trkpt lat="43.89943" lon="1.80566">
        <ele>238</ele>
        <time>2012-12-20T10:19:57Z</time>
      </trkpt>
      <trkpt lat="43.89942" lon="1.80549">
        <ele>237</ele>
        <time>2012-12-20T10:20:03Z</time>
      </trkpt>
      <trkpt lat="43.89941" lon="1.80539">
        <ele>233</ele>
        <time>2012-12-20T10:20:15Z</time>
      </trkpt>
      <trkpt lat="43.89945" lon="1.80553">
        <ele>233</ele>
        <time>2012-12-20T10:20:28Z</time>
      </trkpt>
      <trkpt lat="43.89947" lon="1.80566">
        <ele>234</ele>
        <time>2012-12-20T10:20:38Z</time>
      </trkpt>
      <trkpt lat="43.89947" lon="1.80578">
        <ele>234</ele>
        <time>2012-12-20T10:20:43Z</time>
      </trkpt>
      <trkpt lat="43.89947" lon="1.80585">
        <ele>233</ele>
        <time>2012-12-20T10:20:47Z</time>
      </trkpt>
      <trkpt lat="43.89947" lon="1.80593">
        <ele>233</ele>
        <time>2012-12-20T10:20:51Z</time>
      </trkpt>
      <trkpt lat="43.89955" lon="1.80604">
        <ele>233</ele>
        <time>2012-12-20T10:20:58Z</time>
      </trkpt>
      <trkpt lat="43.89963" lon="1.80604">
        <ele>232</ele>
        <time>2012-12-20T10:21:03Z</time>
      </trkpt>
      <trkpt lat="43.89971" lon="1.80599">
        <ele>230</ele>
        <time>2012-12-20T10:21:11Z</time>
      </trkpt>
      <trkpt lat="43.8998" lon="1.8059">
        <ele>228</ele>
        <time>2012-12-20T10:21:19Z</time>
      </trkpt>
      <trkpt lat="43.89985" lon="1.80586">
        <ele>226</ele>
        <time>2012-12-20T10:21:24Z</time>
      </trkpt>
      <trkpt lat="43.8999" lon="1.80582">
        <ele>224</ele>
        <time>2012-12-20T10:21:28Z</time>
      </trkpt>
      <trkpt lat="43.89996" lon="1.80573">
        <ele>223</ele>
        <time>2012-12-20T10:21:40Z</time>
      </trkpt>
      <trkpt lat="43.90005" lon="1.80566">
        <ele>224</ele>
        <time>2012-12-20T10:21:55Z</time>
      </trkpt>
      <trkpt lat="43.90014" lon="1.80563">
        <ele>224</ele>
        <time>2012-12-20T10:22:01Z</time>
      </trkpt>
      <trkpt lat="43.90022" lon="1.80558">
        <ele>223</ele>
        <time>2012-12-20T10:22:08Z</time>
      </trkpt>
      <trkpt lat="43.90027" lon="1.80555">
        <ele>222</ele>
        <time>2012-12-20T10:22:13Z</time>
      </trkpt>
      <trkpt lat="43.90036" lon="1.80551">
        <ele>220</ele>
        <time>2012-12-20T10:22:21Z</time>
      </trkpt>
      <trkpt lat="43.90041" lon="1.80548">
        <ele>218</ele>
        <time>2012-12-20T10:22:25Z</time>
      </trkpt>
      <trkpt lat="43.90048" lon="1.80544">
        <ele>217</ele>
        <time>2012-12-20T10:22:31Z</time>
      </trkpt>
      <trkpt lat="43.90055" lon="1.80542">
        <ele>215</ele>
        <time>2012-12-20T10:22:38Z</time>
      </trkpt>
      <trkpt lat="43.9006" lon="1.80539">
        <ele>214</ele>
        <time>2012-12-20T10:22:42Z</time>
      </trkpt>
      <trkpt lat="43.90064" lon="1.80536">
        <ele>213</ele>
        <time>2012-12-20T10:22:47Z</time>
      </trkpt>
      <trkpt lat="43.90068" lon="1.80533">
        <ele>213</ele>
        <time>2012-12-20T10:22:51Z</time>
      </trkpt>
      <trkpt lat="43.90076" lon="1.80533">
        <ele>211</ele>
        <time>2012-12-20T10:23:03Z</time>
      </trkpt>
      <trkpt lat="43.90082" lon="1.8053">
        <ele>213</ele>
        <time>2012-12-20T10:23:25Z</time>
      </trkpt>
      <trkpt lat="43.90087" lon="1.80533">
        <ele>214</ele>
        <time>2012-12-20T10:23:29Z</time>
      </trkpt>
      <trkpt lat="43.90092" lon="1.80531">
        <ele>213</ele>
        <time>2012-12-20T10:23:35Z</time>
      </trkpt>
      <trkpt lat="43.90098" lon="1.80531">
        <ele>212</ele>
        <time>2012-12-20T10:23:41Z</time>
      </trkpt>
      <trkpt lat="43.90101" lon="1.80533">
        <ele>210</ele>
        <time>2012-12-20T10:23:48Z</time>
      </trkpt>
      <trkpt lat="43.90111" lon="1.80533">
        <ele>208</ele>
        <time>2012-12-20T10:24:25Z</time>
      </trkpt>
      <trkpt lat="43.9012" lon="1.80534">
        <ele>205</ele>
        <time>2012-12-20T10:24:33Z</time>
      </trkpt>
      <trkpt lat="43.90129" lon="1.80536">
        <ele>203</ele>
        <time>2012-12-20T10:24:41Z</time>
      </trkpt>
      <trkpt lat="43.90137" lon="1.80542">
        <ele>201</ele>
        <time>2012-12-20T10:24:49Z</time>
      </trkpt>
      <trkpt lat="43.90139" lon="1.8055">
        <ele>201</ele>
        <time>2012-12-20T10:24:53Z</time>
      </trkpt>
      <trkpt lat="43.9014" lon="1.80559">
        <ele>202</ele>
        <time>2012-12-20T10:24:59Z</time>
      </trkpt>
      <trkpt lat="43.90139" lon="1.80573">
        <ele>203</ele>
        <time>2012-12-20T10:25:07Z</time>
      </trkpt>
      <trkpt lat="43.90139" lon="1.80581">
        <ele>203</ele>
        <time>2012-12-20T10:25:12Z</time>
      </trkpt>
      <trkpt lat="43.90138" lon="1.80591">
        <ele>204</ele>
        <time>2012-12-20T10:25:19Z</time>
      </trkpt>
      <trkpt lat="43.90138" lon="1.80602">
        <ele>205</ele>
        <time>2012-12-20T10:25:25Z</time>
      </trkpt>
      <trkpt lat="43.90139" lon="1.80614">
        <ele>203</ele>
        <time>2012-12-20T10:25:31Z</time>
      </trkpt>
      <trkpt lat="43.90138" lon="1.80621">
        <ele>202</ele>
        <time>2012-12-20T10:25:34Z</time>
      </trkpt>
      <trkpt lat="43.90137" lon="1.80636">
        <ele>201</ele>
        <time>2012-12-20T10:25:40Z</time>
      </trkpt>
      <trkpt lat="43.90138" lon="1.80649">
        <ele>199</ele>
        <time>2012-12-20T10:25:49Z</time>
      </trkpt>
      <trkpt lat="43.90138" lon="1.80657">
        <ele>199</ele>
        <time>2012-12-20T10:25:54Z</time>
      </trkpt>
      <trkpt lat="43.90137" lon="1.80665">
        <ele>200</ele>
        <time>2012-12-20T10:25:59Z</time>
      </trkpt>
      <trkpt lat="43.90137" lon="1.80671">
        <ele>200</ele>
        <time>2012-12-20T10:26:05Z</time>
      </trkpt>
      <trkpt lat="43.90135" lon="1.80682">
        <ele>198</ele>
        <time>2012-12-20T10:26:12Z</time>
      </trkpt>
      <trkpt lat="43.90134" lon="1.80688">
        <ele>197</ele>
        <time>2012-12-20T10:26:24Z</time>
      </trkpt>
      <trkpt lat="43.90131" lon="1.80694">
        <ele>196</ele>
        <time>2012-12-20T10:26:31Z</time>
      </trkpt>
      <trkpt lat="43.90129" lon="1.807">
        <ele>194</ele>
        <time>2012-12-20T10:26:35Z</time>
      </trkpt>
      <trkpt lat="43.90126" lon="1.80705">
        <ele>193</ele>
        <time>2012-12-20T10:26:40Z</time>
      </trkpt>
      <trkpt lat="43.90123" lon="1.80712">
        <ele>192</ele>
        <time>2012-12-20T10:26:44Z</time>
      </trkpt>
      <trkpt lat="43.90121" lon="1.80718">
        <ele>191</ele>
        <time>2012-12-20T10:26:49Z</time>
      </trkpt>
      <trkpt lat="43.90115" lon="1.80725">
        <ele>190</ele>
        <time>2012-12-20T10:26:55Z</time>
      </trkpt>
      <trkpt lat="43.90111" lon="1.8073">
        <ele>190</ele>
        <time>2012-12-20T10:26:59Z</time>
      </trkpt>
      <trkpt lat="43.90108" lon="1.80736">
        <ele>190</ele>
        <time>2012-12-20T10:27:04Z</time>
      </trkpt>
      <trkpt lat="43.90104" lon="1.80741">
        <ele>189</ele>
        <time>2012-12-20T10:27:09Z</time>
      </trkpt>
      <trkpt lat="43.901" lon="1.80746">
        <ele>188</ele>
        <time>2012-12-20T10:27:14Z</time>
      </trkpt>
      <trkpt lat="43.90097" lon="1.80751">
        <ele>187</ele>
        <time>2012-12-20T10:27:17Z</time>
      </trkpt>
      <trkpt lat="43.90091" lon="1.80758">
        <ele>187</ele>
        <time>2012-12-20T10:27:22Z</time>
      </trkpt>
      <trkpt lat="43.90088" lon="1.80762">
        <ele>188</ele>
        <time>2012-12-20T10:27:26Z</time>
      </trkpt>
      <trkpt lat="43.90085" lon="1.80767">
        <ele>189</ele>
        <time>2012-12-20T10:27:30Z</time>
      </trkpt>
      <trkpt lat="43.90081" lon="1.80772">
        <ele>191</ele>
        <time>2012-12-20T10:27:35Z</time>
      </trkpt>
      <trkpt lat="43.90075" lon="1.8078">
        <ele>193</ele>
        <time>2012-12-20T10:27:43Z</time>
      </trkpt>
      <trkpt lat="43.9007" lon="1.80786">
        <ele>192</ele>
        <time>2012-12-20T10:27:49Z</time>
      </trkpt>
      <trkpt lat="43.90067" lon="1.80792">
        <ele>191</ele>
        <time>2012-12-20T10:27:53Z</time>
      </trkpt>
      <trkpt lat="43.90064" lon="1.80797">
        <ele>191</ele>
        <time>2012-12-20T10:27:58Z</time>
      </trkpt>
      <trkpt lat="43.9006" lon="1.80809">
        <ele>188</ele>
        <time>2012-12-20T10:28:08Z</time>
      </trkpt>
      <trkpt lat="43.90059" lon="1.80825">
        <ele>187</ele>
        <time>2012-12-20T10:28:18Z</time>
      </trkpt>
      <trkpt lat="43.90056" lon="1.80838">
        <ele>186</ele>
        <time>2012-12-20T10:28:25Z</time>
      </trkpt>
      <trkpt lat="43.90052" lon="1.80849">
        <ele>188</ele>
        <time>2012-12-20T10:28:33Z</time>
      </trkpt>
      <trkpt lat="43.9005" lon="1.80862">
        <ele>190</ele>
        <time>2012-12-20T10:28:42Z</time>
      </trkpt>
      <trkpt lat="43.90045" lon="1.80873">
        <ele>193</ele>
        <time>2012-12-20T10:28:52Z</time>
      </trkpt>
      <trkpt lat="43.90046" lon="1.80888">
        <ele>196</ele>
        <time>2012-12-20T10:29:03Z</time>
      </trkpt>
      <trkpt lat="43.90043" lon="1.80907">
        <ele>194</ele>
        <time>2012-12-20T10:29:19Z</time>
      </trkpt>
      <trkpt lat="43.90038" lon="1.80918">
        <ele>193</ele>
        <time>2012-12-20T10:29:27Z</time>
      </trkpt>
      <trkpt lat="43.90031" lon="1.80931">
        <ele>189</ele>
        <time>2012-12-20T10:29:39Z</time>
      </trkpt>
      <trkpt lat="43.90018" lon="1.80941">
        <ele>180</ele>
        <time>2012-12-20T10:29:54Z</time>
      </trkpt>
      <trkpt lat="43.9001" lon="1.80952">
        <ele>179</ele>
        <time>2012-12-20T10:30:08Z</time>
      </trkpt>
      <trkpt lat="43.90003" lon="1.80961">
        <ele>179</ele>
        <time>2012-12-20T10:30:16Z</time>
      </trkpt>
      <trkpt lat="43.89996" lon="1.80969">
        <ele>180</ele>
        <time>2012-12-20T10:30:23Z</time>
      </trkpt>
      <trkpt lat="43.89987" lon="1.80975">
        <ele>182</ele>
        <time>2012-12-20T10:30:34Z</time>
      </trkpt>
      <trkpt lat="43.89977" lon="1.80977">
        <ele>185</ele>
        <time>2012-12-20T10:30:44Z</time>
      </trkpt>
      <trkpt lat="43.89966" lon="1.80983">
        <ele>186</ele>
        <time>2012-12-20T10:31:00Z</time>
      </trkpt>
      <trkpt lat="43.89957" lon="1.80993">
        <ele>189</ele>
        <time>2012-12-20T10:31:09Z</time>
      </trkpt>
      <trkpt lat="43.89948" lon="1.80998">
        <ele>193</ele>
        <time>2012-12-20T10:31:22Z</time>
      </trkpt>
      <trkpt lat="43.89939" lon="1.81005">
        <ele>194</ele>
        <time>2012-12-20T10:31:31Z</time>
      </trkpt>
      <trkpt lat="43.89931" lon="1.81012">
        <ele>197</ele>
        <time>2012-12-20T10:31:39Z</time>
      </trkpt>
      <trkpt lat="43.89922" lon="1.81018">
        <ele>203</ele>
        <time>2012-12-20T10:31:50Z</time>
      </trkpt>
      <trkpt lat="43.89911" lon="1.81019">
        <ele>203</ele>
        <time>2012-12-20T10:31:56Z</time>
      </trkpt>
      <trkpt lat="43.89902" lon="1.81023">
        <ele>201</ele>
        <time>2012-12-20T10:32:05Z</time>
      </trkpt>
      <trkpt lat="43.89892" lon="1.81024">
        <ele>199</ele>
        <time>2012-12-20T10:32:12Z</time>
      </trkpt>
      <trkpt lat="43.89877" lon="1.81027">
        <ele>194</ele>
        <time>2012-12-20T10:32:27Z</time>
      </trkpt>
      <trkpt lat="43.89867" lon="1.8103">
        <ele>189</ele>
        <time>2012-12-20T10:32:34Z</time>
      </trkpt>
      <trkpt lat="43.89858" lon="1.81033">
        <ele>186</ele>
        <time>2012-12-20T10:32:43Z</time>
      </trkpt>
      <trkpt lat="43.8985" lon="1.81043">
        <ele>186</ele>
        <time>2012-12-20T10:32:51Z</time>
      </trkpt>
      <trkpt lat="43.89841" lon="1.81049">
        <ele>184</ele>
        <time>2012-12-20T10:32:59Z</time>
      </trkpt>
      <trkpt lat="43.89832" lon="1.81054">
        <ele>182</ele>
        <time>2012-12-20T10:33:07Z</time>
      </trkpt>
      <trkpt lat="43.89823" lon="1.81056">
        <ele>179</ele>
        <time>2012-12-20T10:33:15Z</time>
      </trkpt>
      <trkpt lat="43.89814" lon="1.8106">
        <ele>174</ele>
        <time>2012-12-20T10:33:22Z</time>
      </trkpt>
      <trkpt lat="43.89804" lon="1.81062">
        <ele>172</ele>
        <time>2012-12-20T10:33:30Z</time>
      </trkpt>
      <trkpt lat="43.89796" lon="1.81072">
        <ele>170</ele>
        <time>2012-12-20T10:33:39Z</time>
      </trkpt>
      <trkpt lat="43.89785" lon="1.81075">
        <ele>170</ele>
        <time>2012-12-20T10:33:49Z</time>
      </trkpt>
      <trkpt lat="43.89776" lon="1.81081">
        <ele>174</ele>
        <time>2012-12-20T10:33:58Z</time>
      </trkpt>
      <trkpt lat="43.89767" lon="1.81084">
        <ele>176</ele>
        <time>2012-12-20T10:34:07Z</time>
      </trkpt>
      <trkpt lat="43.89758" lon="1.81087">
        <ele>176</ele>
        <time>2012-12-20T10:34:14Z</time>
      </trkpt>
      <trkpt lat="43.89749" lon="1.81083">
        <ele>177</ele>
        <time>2012-12-20T10:34:23Z</time>
      </trkpt>
      <trkpt lat="43.89744" lon="1.81079">
        <ele>177</ele>
        <time>2012-12-20T10:34:27Z</time>
      </trkpt>
      <trkpt lat="43.89745" lon="1.81072">
        <ele>178</ele>
        <time>2012-12-20T10:34:32Z</time>
      </trkpt>
      <trkpt lat="43.89745" lon="1.81065">
        <ele>178</ele>
        <time>2012-12-20T10:34:37Z</time>
      </trkpt>
      <trkpt lat="43.89747" lon="1.81051">
        <ele>180</ele>
        <time>2012-12-20T10:34:46Z</time>
      </trkpt>
      <trkpt lat="43.8975" lon="1.81042">
        <ele>181</ele>
        <time>2012-12-20T10:34:52Z</time>
      </trkpt>
      <trkpt lat="43.89752" lon="1.81034">
        <ele>183</ele>
        <time>2012-12-20T10:34:59Z</time>
      </trkpt>
      <trkpt lat="43.89754" lon="1.81027">
        <ele>185</ele>
        <time>2012-12-20T10:35:06Z</time>
      </trkpt>
      <trkpt lat="43.89757" lon="1.81014">
        <ele>185</ele>
        <time>2012-12-20T10:35:15Z</time>
      </trkpt>
      <trkpt lat="43.89759" lon="1.81001">
        <ele>185</ele>
        <time>2012-12-20T10:35:23Z</time>
      </trkpt>
      <trkpt lat="43.89761" lon="1.80989">
        <ele>185</ele>
        <time>2012-12-20T10:35:33Z</time>
      </trkpt>
      <trkpt lat="43.89769" lon="1.8098">
        <ele>184</ele>
        <time>2012-12-20T10:35:42Z</time>
      </trkpt>
      <trkpt lat="43.89774" lon="1.80969">
        <ele>182</ele>
        <time>2012-12-20T10:35:51Z</time>
      </trkpt>
      <trkpt lat="43.89777" lon="1.80956">
        <ele>181</ele>
        <time>2012-12-20T10:36:02Z</time>
      </trkpt>
      <trkpt lat="43.89782" lon="1.80944">
        <ele>186</ele>
        <time>2012-12-20T10:36:14Z</time>
      </trkpt>
      <trkpt lat="43.89785" lon="1.8093">
        <ele>190</ele>
        <time>2012-12-20T10:36:22Z</time>
      </trkpt>
      <trkpt lat="43.89789" lon="1.80918">
        <ele>192</ele>
        <time>2012-12-20T10:36:33Z</time>
      </trkpt>
      <trkpt lat="43.89793" lon="1.80905">
        <ele>191</ele>
        <time>2012-12-20T10:36:43Z</time>
      </trkpt>
      <trkpt lat="43.89796" lon="1.80892">
        <ele>189</ele>
        <time>2012-12-20T10:36:54Z</time>
      </trkpt>
      <trkpt lat="43.89801" lon="1.80881">
        <ele>189</ele>
        <time>2012-12-20T10:37:02Z</time>
      </trkpt>
      <trkpt lat="43.89805" lon="1.80873">
        <ele>190</ele>
        <time>2012-12-20T10:37:09Z</time>
      </trkpt>
      <trkpt lat="43.89807" lon="1.80867">
        <ele>191</ele>
        <time>2012-12-20T10:37:14Z</time>
      </trkpt>
      <trkpt lat="43.8981" lon="1.80855">
        <ele>191</ele>
        <time>2012-12-20T10:37:23Z</time>
      </trkpt>
      <trkpt lat="43.89811" lon="1.80845">
        <ele>191</ele>
        <time>2012-12-20T10:37:32Z</time>
      </trkpt>
      <trkpt lat="43.89812" lon="1.80838">
        <ele>192</ele>
        <time>2012-12-20T10:37:38Z</time>
      </trkpt>
      <trkpt lat="43.89812" lon="1.8083">
        <ele>193</ele>
        <time>2012-12-20T10:37:43Z</time>
      </trkpt>
      <trkpt lat="43.89814" lon="1.80824">
        <ele>194</ele>
        <time>2012-12-20T10:37:47Z</time>
      </trkpt>
      <trkpt lat="43.8981" lon="1.80812">
        <ele>197</ele>
        <time>2012-12-20T10:37:58Z</time>
      </trkpt>
      <trkpt lat="43.89807" lon="1.80801">
        <ele>198</ele>
        <time>2012-12-20T10:38:07Z</time>
      </trkpt>
      <trkpt lat="43.89807" lon="1.80797">
        <ele>199</ele>
        <time>2012-12-20T10:38:13Z</time>
      </trkpt>
      <trkpt lat="43.89807" lon="1.80783">
        <ele>201</ele>
        <time>2012-12-20T10:38:25Z</time>
      </trkpt>
      <trkpt lat="43.89806" lon="1.80773">
        <ele>203</ele>
        <time>2012-12-20T10:38:32Z</time>
      </trkpt>
      <trkpt lat="43.89807" lon="1.80759">
        <ele>206</ele>
        <time>2012-12-20T10:38:43Z</time>
      </trkpt>
      <trkpt lat="43.8981" lon="1.80754">
        <ele>208</ele>
        <time>2012-12-20T10:38:48Z</time>
      </trkpt>
      <trkpt lat="43.89816" lon="1.80742">
        <ele>210</ele>
        <time>2012-12-20T10:38:58Z</time>
      </trkpt>
      <trkpt lat="43.89819" lon="1.8073">
        <ele>212</ele>
        <time>2012-12-20T10:39:10Z</time>
      </trkpt>
      <trkpt lat="43.89817" lon="1.80725">
        <ele>216</ele>
        <time>2012-12-20T10:39:19Z</time>
      </trkpt>
      <trkpt lat="43.89816" lon="1.80728">
        <ele>223</ele>
        <time>2012-12-20T10:41:28Z</time>
      </trkpt>
      <trkpt lat="43.89809" lon="1.80731">
        <ele>223</ele>
        <time>2012-12-20T10:42:35Z</time>
      </trkpt>
      <trkpt lat="43.89807" lon="1.80742">
        <ele>221</ele>
        <time>2012-12-20T10:42:55Z</time>
      </trkpt>
      <trkpt lat="43.89804" lon="1.80757">
        <ele>220</ele>
        <time>2012-12-20T10:43:03Z</time>
      </trkpt>
      <trkpt lat="43.89806" lon="1.8077">
        <ele>219</ele>
        <time>2012-12-20T10:43:11Z</time>
      </trkpt>
      <trkpt lat="43.89806" lon="1.80783">
        <ele>217</ele>
        <time>2012-12-20T10:43:22Z</time>
      </trkpt>
      <trkpt lat="43.89805" lon="1.80796">
        <ele>213</ele>
        <time>2012-12-20T10:43:30Z</time>
      </trkpt>
      <trkpt lat="43.89807" lon="1.80802">
        <ele>212</ele>
        <time>2012-12-20T10:43:34Z</time>
      </trkpt>
      <trkpt lat="43.89809" lon="1.80808">
        <ele>211</ele>
        <time>2012-12-20T10:43:42Z</time>
      </trkpt>
      <trkpt lat="43.89809" lon="1.80814">
        <ele>212</ele>
        <time>2012-12-20T10:43:52Z</time>
      </trkpt>
      <trkpt lat="43.8981" lon="1.80819">
        <ele>211</ele>
        <time>2012-12-20T10:44:00Z</time>
      </trkpt>
      <trkpt lat="43.89813" lon="1.80824">
        <ele>210</ele>
        <time>2012-12-20T10:44:21Z</time>
      </trkpt>
      <trkpt lat="43.89804" lon="1.80832">
        <ele>209</ele>
        <time>2012-12-20T10:44:40Z</time>
      </trkpt>
      <trkpt lat="43.89805" lon="1.80839">
        <ele>208</ele>
        <time>2012-12-20T10:44:44Z</time>
      </trkpt>
      <trkpt lat="43.89806" lon="1.80845">
        <ele>208</ele>
        <time>2012-12-20T10:44:51Z</time>
      </trkpt>
      <trkpt lat="43.89803" lon="1.80859">
        <ele>206</ele>
        <time>2012-12-20T10:44:58Z</time>
      </trkpt>
      <trkpt lat="43.89801" lon="1.80874">
        <ele>204</ele>
        <time>2012-12-20T10:45:03Z</time>
      </trkpt>
      <trkpt lat="43.898" lon="1.80883">
        <ele>202</ele>
        <time>2012-12-20T10:45:08Z</time>
      </trkpt>
      <trkpt lat="43.89798" lon="1.80891">
        <ele>201</ele>
        <time>2012-12-20T10:45:10Z</time>
      </trkpt>
      <trkpt lat="43.89796" lon="1.80898">
        <ele>198</ele>
        <time>2012-12-20T10:45:14Z</time>
      </trkpt>
      <trkpt lat="43.89793" lon="1.80906">
        <ele>197</ele>
        <time>2012-12-20T10:45:16Z</time>
      </trkpt>
      <trkpt lat="43.8979" lon="1.80917">
        <ele>195</ele>
        <time>2012-12-20T10:45:21Z</time>
      </trkpt>
      <trkpt lat="43.89784" lon="1.80927">
        <ele>194</ele>
        <time>2012-12-20T10:45:27Z</time>
      </trkpt>
      <trkpt lat="43.89782" lon="1.80934">
        <ele>194</ele>
        <time>2012-12-20T10:45:31Z</time>
      </trkpt>
      <trkpt lat="43.89779" lon="1.8094">
        <ele>192</ele>
        <time>2012-12-20T10:45:35Z</time>
      </trkpt>
      <trkpt lat="43.89777" lon="1.80946">
        <ele>191</ele>
        <time>2012-12-20T10:45:39Z</time>
      </trkpt>
      <trkpt lat="43.89775" lon="1.80953">
        <ele>190</ele>
        <time>2012-12-20T10:45:43Z</time>
      </trkpt>
      <trkpt lat="43.89773" lon="1.80961">
        <ele>189</ele>
        <time>2012-12-20T10:45:48Z</time>
      </trkpt>
      <trkpt lat="43.89768" lon="1.80973">
        <ele>188</ele>
        <time>2012-12-20T10:45:55Z</time>
      </trkpt>
      <trkpt lat="43.89765" lon="1.80984">
        <ele>188</ele>
        <time>2012-12-20T10:46:01Z</time>
      </trkpt>
      <trkpt lat="43.89761" lon="1.80997">
        <ele>187</ele>
        <time>2012-12-20T10:46:10Z</time>
      </trkpt>
      <trkpt lat="43.89759" lon="1.81003">
        <ele>186</ele>
        <time>2012-12-20T10:46:13Z</time>
      </trkpt>
      <trkpt lat="43.89758" lon="1.81016">
        <ele>188</ele>
        <time>2012-12-20T10:46:25Z</time>
      </trkpt>
      <trkpt lat="43.89756" lon="1.81029">
        <ele>186</ele>
        <time>2012-12-20T10:46:34Z</time>
      </trkpt>
      <trkpt lat="43.89754" lon="1.81037">
        <ele>186</ele>
        <time>2012-12-20T10:46:38Z</time>
      </trkpt>
      <trkpt lat="43.89752" lon="1.81044">
        <ele>185</ele>
        <time>2012-12-20T10:46:44Z</time>
      </trkpt>
      <trkpt lat="43.89751" lon="1.81051">
        <ele>183</ele>
        <time>2012-12-20T10:46:48Z</time>
      </trkpt>
      <trkpt lat="43.89751" lon="1.81057">
        <ele>181</ele>
        <time>2012-12-20T10:46:53Z</time>
      </trkpt>
      <trkpt lat="43.8975" lon="1.81064">
        <ele>180</ele>
        <time>2012-12-20T10:47:00Z</time>
      </trkpt>
      <trkpt lat="43.89751" lon="1.81077">
        <ele>183</ele>
        <time>2012-12-20T10:47:15Z</time>
      </trkpt>
      <trkpt lat="43.89746" lon="1.81088">
        <ele>180</ele>
        <time>2012-12-20T10:47:22Z</time>
      </trkpt>
      <trkpt lat="43.89742" lon="1.81097">
        <ele>176</ele>
        <time>2012-12-20T10:47:30Z</time>
      </trkpt>
      <trkpt lat="43.89734" lon="1.81104">
        <ele>176</ele>
        <time>2012-12-20T10:47:41Z</time>
      </trkpt>
      <trkpt lat="43.89728" lon="1.81106">
        <ele>177</ele>
        <time>2012-12-20T10:47:45Z</time>
      </trkpt>
      <trkpt lat="43.89719" lon="1.81111">
        <ele>175</ele>
        <time>2012-12-20T10:47:53Z</time>
      </trkpt>
      <trkpt lat="43.89711" lon="1.81117">
        <ele>174</ele>
        <time>2012-12-20T10:48:02Z</time>
      </trkpt>
      <trkpt lat="43.89702" lon="1.81126">
        <ele>175</ele>
        <time>2012-12-20T10:48:10Z</time>
      </trkpt>
      <trkpt lat="43.89695" lon="1.81134">
        <ele>173</ele>
        <time>2012-12-20T10:48:19Z</time>
      </trkpt>
      <trkpt lat="43.89686" lon="1.81143">
        <ele>172</ele>
        <time>2012-12-20T10:48:31Z</time>
      </trkpt>
      <trkpt lat="43.89677" lon="1.81151">
        <ele>170</ele>
        <time>2012-12-20T10:48:38Z</time>
      </trkpt>
      <trkpt lat="43.89669" lon="1.81158">
        <ele>171</ele>
        <time>2012-12-20T10:48:46Z</time>
      </trkpt>
      <trkpt lat="43.89661" lon="1.81163">
        <ele>170</ele>
        <time>2012-12-20T10:48:54Z</time>
      </trkpt>
      <trkpt lat="43.89652" lon="1.81165">
        <ele>169</ele>
        <time>2012-12-20T10:49:02Z</time>
      </trkpt>
      <trkpt lat="43.89641" lon="1.81166">
        <ele>166</ele>
        <time>2012-12-20T10:49:08Z</time>
      </trkpt>
      <trkpt lat="43.89631" lon="1.81169">
        <ele>164</ele>
        <time>2012-12-20T10:49:16Z</time>
      </trkpt>
      <trkpt lat="43.89624" lon="1.81169">
        <ele>167</ele>
        <time>2012-12-20T10:49:25Z</time>
      </trkpt>
      <trkpt lat="43.8962" lon="1.81164">
        <ele>170</ele>
        <time>2012-12-20T10:49:30Z</time>
      </trkpt>
      <trkpt lat="43.89612" lon="1.81157">
        <ele>172</ele>
        <time>2012-12-20T10:49:38Z</time>
      </trkpt>
      <trkpt lat="43.89606" lon="1.81154">
        <ele>174</ele>
        <time>2012-12-20T10:49:43Z</time>
      </trkpt>
      <trkpt lat="43.89602" lon="1.81149">
        <ele>176</ele>
        <time>2012-12-20T10:49:47Z</time>
      </trkpt>
      <trkpt lat="43.89597" lon="1.81146">
        <ele>177</ele>
        <time>2012-12-20T10:49:51Z</time>
      </trkpt>
      <trkpt lat="43.89592" lon="1.81143">
        <ele>178</ele>
        <time>2012-12-20T10:49:56Z</time>
      </trkpt>
      <trkpt lat="43.89587" lon="1.81141">
        <ele>178</ele>
        <time>2012-12-20T10:50:00Z</time>
      </trkpt>
      <trkpt lat="43.89583" lon="1.81139">
        <ele>178</ele>
        <time>2012-12-20T10:50:03Z</time>
      </trkpt>
      <trkpt lat="43.89577" lon="1.81136">
        <ele>177</ele>
        <time>2012-12-20T10:50:08Z</time>
      </trkpt>
      <trkpt lat="43.89568" lon="1.81132">
        <ele>177</ele>
        <time>2012-12-20T10:50:15Z</time>
      </trkpt>
      <trkpt lat="43.89558" lon="1.81125">
        <ele>175</ele>
        <time>2012-12-20T10:50:26Z</time>
      </trkpt>
      <trkpt lat="43.8955" lon="1.8112">
        <ele>174</ele>
        <time>2012-12-20T10:50:37Z</time>
      </trkpt>
      <trkpt lat="43.89541" lon="1.81113">
        <ele>172</ele>
        <time>2012-12-20T10:50:43Z</time>
      </trkpt>
      <trkpt lat="43.8953" lon="1.8111">
        <ele>169</ele>
        <time>2012-12-20T10:50:52Z</time>
      </trkpt>
      <trkpt lat="43.8952" lon="1.81107">
        <ele>166</ele>
        <time>2012-12-20T10:51:00Z</time>
      </trkpt>
      <trkpt lat="43.89512" lon="1.81101">
        <ele>165</ele>
        <time>2012-12-20T10:51:06Z</time>
      </trkpt>
      <trkpt lat="43.89503" lon="1.81096">
        <ele>165</ele>
        <time>2012-12-20T10:51:15Z</time>
      </trkpt>
      <trkpt lat="43.89493" lon="1.81093">
        <ele>163</ele>
        <time>2012-12-20T10:51:23Z</time>
      </trkpt>
      <trkpt lat="43.89487" lon="1.8109">
        <ele>163</ele>
        <time>2012-12-20T10:51:27Z</time>
      </trkpt>
      <trkpt lat="43.89479" lon="1.81084">
        <ele>163</ele>
        <time>2012-12-20T10:51:33Z</time>
      </trkpt>
      <trkpt lat="43.89465" lon="1.81073">
        <ele>170</ele>
        <time>2012-12-20T10:51:50Z</time>
      </trkpt>
      <trkpt lat="43.89461" lon="1.81067">
        <ele>170</ele>
        <time>2012-12-20T10:51:56Z</time>
      </trkpt>
      <trkpt lat="43.89459" lon="1.8106">
        <ele>168</ele>
        <time>2012-12-20T10:52:00Z</time>
      </trkpt>
      <trkpt lat="43.89457" lon="1.81054">
        <ele>168</ele>
        <time>2012-12-20T10:52:04Z</time>
      </trkpt>
      <trkpt lat="43.89454" lon="1.81049">
        <ele>168</ele>
        <time>2012-12-20T10:52:08Z</time>
      </trkpt>
      <trkpt lat="43.89451" lon="1.81042">
        <ele>168</ele>
        <time>2012-12-20T10:52:14Z</time>
      </trkpt>
      <trkpt lat="43.89449" lon="1.81036">
        <ele>169</ele>
        <time>2012-12-20T10:52:20Z</time>
      </trkpt>
      <trkpt lat="43.89446" lon="1.8103">
        <ele>169</ele>
        <time>2012-12-20T10:52:24Z</time>
      </trkpt>
      <trkpt lat="43.89444" lon="1.81023">
        <ele>167</ele>
        <time>2012-12-20T10:52:30Z</time>
      </trkpt>
      <trkpt lat="43.89443" lon="1.81017">
        <ele>165</ele>
        <time>2012-12-20T10:52:33Z</time>
      </trkpt>
      <trkpt lat="43.89441" lon="1.81013">
        <ele>166</ele>
        <time>2012-12-20T10:52:47Z</time>
      </trkpt>
      <trkpt lat="43.89436" lon="1.81005">
        <ele>167</ele>
        <time>2012-12-20T10:52:55Z</time>
      </trkpt>
      <trkpt lat="43.89432" lon="1.81">
        <ele>167</ele>
        <time>2012-12-20T10:53:01Z</time>
      </trkpt>
      <trkpt lat="43.8943" lon="1.80994">
        <ele>167</ele>
        <time>2012-12-20T10:53:03Z</time>
      </trkpt>
      <trkpt lat="43.89427" lon="1.8099">
        <ele>166</ele>
        <time>2012-12-20T10:53:08Z</time>
      </trkpt>
      <trkpt lat="43.89424" lon="1.80983">
        <ele>166</ele>
        <time>2012-12-20T10:53:13Z</time>
      </trkpt>
      <trkpt lat="43.89421" lon="1.80978">
        <ele>167</ele>
        <time>2012-12-20T10:53:16Z</time>
      </trkpt>
      <trkpt lat="43.89418" lon="1.80972">
        <ele>168</ele>
        <time>2012-12-20T10:53:22Z</time>
      </trkpt>
      <trkpt lat="43.89415" lon="1.80966">
        <ele>170</ele>
        <time>2012-12-20T10:53:28Z</time>
      </trkpt>
      <trkpt lat="43.89412" lon="1.80961">
        <ele>168</ele>
        <time>2012-12-20T10:53:33Z</time>
      </trkpt>
      <trkpt lat="43.89408" lon="1.80956">
        <ele>168</ele>
        <time>2012-12-20T10:53:38Z</time>
      </trkpt>
      <trkpt lat="43.89406" lon="1.8095">
        <ele>168</ele>
        <time>2012-12-20T10:53:42Z</time>
      </trkpt>
      <trkpt lat="43.89403" lon="1.80944">
        <ele>166</ele>
        <time>2012-12-20T10:53:46Z</time>
      </trkpt>
      <trkpt lat="43.894" lon="1.80936">
        <ele>166</ele>
        <time>2012-12-20T10:53:51Z</time>
      </trkpt>
      <trkpt lat="43.89398" lon="1.8093">
        <ele>167</ele>
        <time>2012-12-20T10:53:56Z</time>
      </trkpt>
      <trkpt lat="43.89395" lon="1.80923">
        <ele>168</ele>
        <time>2012-12-20T10:54:02Z</time>
      </trkpt>
      <trkpt lat="43.89393" lon="1.80917">
        <ele>167</ele>
        <time>2012-12-20T10:54:05Z</time>
      </trkpt>
      <trkpt lat="43.89393" lon="1.80909">
        <ele>169</ele>
        <time>2012-12-20T10:54:07Z</time>
      </trkpt>
      <trkpt lat="43.89389" lon="1.80898">
        <ele>169</ele>
        <time>2012-12-20T10:54:17Z</time>
      </trkpt>
      <trkpt lat="43.89387" lon="1.80886">
        <ele>170</ele>
        <time>2012-12-20T10:54:27Z</time>
      </trkpt>
      <trkpt lat="43.89385" lon="1.80879">
        <ele>168</ele>
        <time>2012-12-20T10:54:32Z</time>
      </trkpt>
      <trkpt lat="43.89379" lon="1.80867">
        <ele>167</ele>
        <time>2012-12-20T10:54:39Z</time>
      </trkpt>
      <trkpt lat="43.89377" lon="1.80861">
        <ele>167</ele>
        <time>2012-12-20T10:54:44Z</time>
      </trkpt>
      <trkpt lat="43.89375" lon="1.80855">
        <ele>168</ele>
        <time>2012-12-20T10:54:47Z</time>
      </trkpt>
      <trkpt lat="43.89371" lon="1.80851">
        <ele>167</ele>
        <time>2012-12-20T10:54:51Z</time>
      </trkpt>
      <trkpt lat="43.89367" lon="1.80847">
        <ele>167</ele>
        <time>2012-12-20T10:54:55Z</time>
      </trkpt>
      <trkpt lat="43.89361" lon="1.80844">
        <ele>167</ele>
        <time>2012-12-20T10:54:59Z</time>
      </trkpt>
      <trkpt lat="43.89357" lon="1.80841">
        <ele>168</ele>
        <time>2012-12-20T10:55:02Z</time>
      </trkpt>
      <trkpt lat="43.89353" lon="1.80838">
        <ele>169</ele>
        <time>2012-12-20T10:55:08Z</time>
      </trkpt>
      <trkpt lat="43.89348" lon="1.80833">
        <ele>168</ele>
        <time>2012-12-20T10:55:13Z</time>
      </trkpt>
      <trkpt lat="43.89344" lon="1.80829">
        <ele>165</ele>
        <time>2012-12-20T10:55:17Z</time>
      </trkpt>
      <trkpt lat="43.89339" lon="1.80827">
        <ele>163</ele>
        <time>2012-12-20T10:55:20Z</time>
      </trkpt>
      <trkpt lat="43.89335" lon="1.80825">
        <ele>162</ele>
        <time>2012-12-20T10:55:23Z</time>
      </trkpt>
      <trkpt lat="43.8933" lon="1.80824">
        <ele>161</ele>
        <time>2012-12-20T10:55:28Z</time>
      </trkpt>
      <trkpt lat="43.89325" lon="1.80821">
        <ele>161</ele>
        <time>2012-12-20T10:55:33Z</time>
      </trkpt>
      <trkpt lat="43.89318" lon="1.80816">
        <ele>161</ele>
        <time>2012-12-20T10:55:40Z</time>
      </trkpt>
      <trkpt lat="43.89314" lon="1.80814">
        <ele>162</ele>
        <time>2012-12-20T10:55:44Z</time>
      </trkpt>
      <trkpt lat="43.89308" lon="1.80811">
        <ele>162</ele>
        <time>2012-12-20T10:55:49Z</time>
      </trkpt>
      <trkpt lat="43.89303" lon="1.80808">
        <ele>161</ele>
        <time>2012-12-20T10:55:53Z</time>
      </trkpt>
      <trkpt lat="43.89298" lon="1.80805">
        <ele>161</ele>
        <time>2012-12-20T10:55:56Z</time>
      </trkpt>
      <trkpt lat="43.89294" lon="1.80801">
        <ele>161</ele>
        <time>2012-12-20T10:56:01Z</time>
      </trkpt>
      <trkpt lat="43.8929" lon="1.80798">
        <ele>161</ele>
        <time>2012-12-20T10:56:05Z</time>
      </trkpt>
      <trkpt lat="43.89286" lon="1.80794">
        <ele>161</ele>
        <time>2012-12-20T10:56:09Z</time>
      </trkpt>
      <trkpt lat="43.8928" lon="1.80791">
        <ele>161</ele>
        <time>2012-12-20T10:56:13Z</time>
      </trkpt>
      <trkpt lat="43.89276" lon="1.80788">
        <ele>161</ele>
        <time>2012-12-20T10:56:17Z</time>
      </trkpt>
      <trkpt lat="43.89271" lon="1.80785">
        <ele>162</ele>
        <time>2012-12-20T10:56:20Z</time>
      </trkpt>
      <trkpt lat="43.89266" lon="1.80782">
        <ele>162</ele>
        <time>2012-12-20T10:56:24Z</time>
      </trkpt>
      <trkpt lat="43.89262" lon="1.80779">
        <ele>162</ele>
        <time>2012-12-20T10:56:27Z</time>
      </trkpt>
      <trkpt lat="43.89257" lon="1.80776">
        <ele>162</ele>
        <time>2012-12-20T10:56:32Z</time>
      </trkpt>
      <trkpt lat="43.89248" lon="1.80773">
        <ele>162</ele>
        <time>2012-12-20T10:56:39Z</time>
      </trkpt>
      <trkpt lat="43.8924" lon="1.80766">
        <ele>164</ele>
        <time>2012-12-20T10:56:47Z</time>
      </trkpt>
      <trkpt lat="43.89236" lon="1.80762">
        <ele>164</ele>
        <time>2012-12-20T10:56:51Z</time>
      </trkpt>
      <trkpt lat="43.89232" lon="1.80757">
        <ele>162</ele>
        <time>2012-12-20T10:56:54Z</time>
      </trkpt>
      <trkpt lat="43.89226" lon="1.80754">
        <ele>162</ele>
        <time>2012-12-20T10:56:59Z</time>
      </trkpt>
      <trkpt lat="43.89221" lon="1.80751">
        <ele>162</ele>
        <time>2012-12-20T10:57:05Z</time>
      </trkpt>
      <trkpt lat="43.89215" lon="1.80751">
        <ele>162</ele>
        <time>2012-12-20T10:57:09Z</time>
      </trkpt>
      <trkpt lat="43.8921" lon="1.8075">
        <ele>161</ele>
        <time>2012-12-20T10:57:13Z</time>
      </trkpt>
      <trkpt lat="43.89204" lon="1.80749">
        <ele>159</ele>
        <time>2012-12-20T10:57:17Z</time>
      </trkpt>
      <trkpt lat="43.89199" lon="1.80749">
        <ele>157</ele>
        <time>2012-12-20T10:57:21Z</time>
      </trkpt>
      <trkpt lat="43.89193" lon="1.80748">
        <ele>157</ele>
        <time>2012-12-20T10:57:26Z</time>
      </trkpt>
      <trkpt lat="43.89185" lon="1.80746">
        <ele>157</ele>
        <time>2012-12-20T10:57:30Z</time>
      </trkpt>
      <trkpt lat="43.8918" lon="1.80745">
        <ele>158</ele>
        <time>2012-12-20T10:57:34Z</time>
      </trkpt>
      <trkpt lat="43.89175" lon="1.80744">
        <ele>158</ele>
        <time>2012-12-20T10:57:38Z</time>
      </trkpt>
      <trkpt lat="43.8917" lon="1.80743">
        <ele>159</ele>
        <time>2012-12-20T10:57:43Z</time>
      </trkpt>
      <trkpt lat="43.89163" lon="1.80742">
        <ele>159</ele>
        <time>2012-12-20T10:57:49Z</time>
      </trkpt>
      <trkpt lat="43.89157" lon="1.80742">
        <ele>161</ele>
        <time>2012-12-20T10:57:54Z</time>
      </trkpt>
      <trkpt lat="43.89152" lon="1.80742">
        <ele>161</ele>
        <time>2012-12-20T10:57:58Z</time>
      </trkpt>
      <trkpt lat="43.89147" lon="1.80742">
        <ele>160</ele>
        <time>2012-12-20T10:58:02Z</time>
      </trkpt>
      <trkpt lat="43.8914" lon="1.8074">
        <ele>160</ele>
        <time>2012-12-20T10:58:09Z</time>
      </trkpt>
      <trkpt lat="43.89132" lon="1.80744">
        <ele>161</ele>
        <time>2012-12-20T10:58:15Z</time>
      </trkpt>
      <trkpt lat="43.89128" lon="1.80746">
        <ele>161</ele>
        <time>2012-12-20T10:58:20Z</time>
      </trkpt>
      <trkpt lat="43.89122" lon="1.80748">
        <ele>161</ele>
        <time>2012-12-20T10:58:24Z</time>
      </trkpt>
      <trkpt lat="43.89117" lon="1.80751">
        <ele>160</ele>
        <time>2012-12-20T10:58:30Z</time>
      </trkpt>
      <trkpt lat="43.89112" lon="1.80751">
        <ele>159</ele>
        <time>2012-12-20T10:58:34Z</time>
      </trkpt>
      <trkpt lat="43.89106" lon="1.80752">
        <ele>159</ele>
        <time>2012-12-20T10:58:38Z</time>
      </trkpt>
      <trkpt lat="43.89102" lon="1.80755">
        <ele>160</ele>
        <time>2012-12-20T10:58:41Z</time>
      </trkpt>
      <trkpt lat="43.89096" lon="1.80756">
        <ele>160</ele>
        <time>2012-12-20T10:58:45Z</time>
      </trkpt>
      <trkpt lat="43.89087" lon="1.80761">
        <ele>162</ele>
        <time>2012-12-20T10:58:55Z</time>
      </trkpt>
      <trkpt lat="43.89078" lon="1.80765">
        <ele>165</ele>
        <time>2012-12-20T10:59:03Z</time>
      </trkpt>
      <trkpt lat="43.89066" lon="1.80768">
        <ele>165</ele>
        <time>2012-12-20T10:59:12Z</time>
      </trkpt>
      <trkpt lat="43.89057" lon="1.80768">
        <ele>162</ele>
        <time>2012-12-20T10:59:20Z</time>
      </trkpt>
      <trkpt lat="43.89052" lon="1.80768">
        <ele>160</ele>
        <time>2012-12-20T10:59:24Z</time>
      </trkpt>
      <trkpt lat="43.89043" lon="1.80768">
        <ele>158</ele>
        <time>2012-12-20T10:59:33Z</time>
      </trkpt>
      <trkpt lat="43.89035" lon="1.80769">
        <ele>157</ele>
        <time>2012-12-20T10:59:38Z</time>
      </trkpt>
      <trkpt lat="43.89031" lon="1.80771">
        <ele>157</ele>
        <time>2012-12-20T10:59:42Z</time>
      </trkpt>
      <trkpt lat="43.89022" lon="1.80771">
        <ele>157</ele>
        <time>2012-12-20T10:59:53Z</time>
      </trkpt>
      <trkpt lat="43.89017" lon="1.8077">
        <ele>157</ele>
        <time>2012-12-20T10:59:56Z</time>
      </trkpt>
      <trkpt lat="43.89012" lon="1.80771">
        <ele>156</ele>
        <time>2012-12-20T11:00:05Z</time>
      </trkpt>
      <trkpt lat="43.89003" lon="1.80771">
        <ele>155</ele>
        <time>2012-12-20T11:00:15Z</time>
      </trkpt>
      <trkpt lat="43.88995" lon="1.80774">
        <ele>155</ele>
        <time>2012-12-20T11:00:21Z</time>
      </trkpt>
      <trkpt lat="43.88991" lon="1.80776">
        <ele>154</ele>
        <time>2012-12-20T11:00:27Z</time>
      </trkpt>
      <trkpt lat="43.88986" lon="1.80776">
        <ele>153</ele>
        <time>2012-12-20T11:00:31Z</time>
      </trkpt>
      <trkpt lat="43.88981" lon="1.80776">
        <ele>153</ele>
        <time>2012-12-20T11:00:35Z</time>
      </trkpt>
      <trkpt lat="43.88976" lon="1.80776">
        <ele>153</ele>
        <time>2012-12-20T11:00:38Z</time>
      </trkpt>
      <trkpt lat="43.88971" lon="1.80778">
        <ele>153</ele>
        <time>2012-12-20T11:00:43Z</time>
      </trkpt>
      <trkpt lat="43.88965" lon="1.80776">
        <ele>153</ele>
        <time>2012-12-20T11:00:48Z</time>
      </trkpt>
      <trkpt lat="43.8896" lon="1.80776">
        <ele>154</ele>
        <time>2012-12-20T11:00:53Z</time>
      </trkpt>
      <trkpt lat="43.88954" lon="1.80776">
        <ele>154</ele>
        <time>2012-12-20T11:00:56Z</time>
      </trkpt>
      <trkpt lat="43.88946" lon="1.80777">
        <ele>155</ele>
        <time>2012-12-20T11:01:04Z</time>
      </trkpt>
      <trkpt lat="43.88941" lon="1.80778">
        <ele>155</ele>
        <time>2012-12-20T11:01:09Z</time>
      </trkpt>
      <trkpt lat="43.88935" lon="1.80778">
        <ele>154</ele>
        <time>2012-12-20T11:01:13Z</time>
      </trkpt>
      <trkpt lat="43.88929" lon="1.8078">
        <ele>154</ele>
        <time>2012-12-20T11:01:18Z</time>
      </trkpt>
      <trkpt lat="43.88924" lon="1.80781">
        <ele>153</ele>
        <time>2012-12-20T11:01:22Z</time>
      </trkpt>
      <trkpt lat="43.88919" lon="1.80783">
        <ele>153</ele>
        <time>2012-12-20T11:01:26Z</time>
      </trkpt>
      <trkpt lat="43.88914" lon="1.80786">
        <ele>155</ele>
        <time>2012-12-20T11:01:31Z</time>
      </trkpt>
      <trkpt lat="43.8891" lon="1.80788">
        <ele>155</ele>
        <time>2012-12-20T11:01:35Z</time>
      </trkpt>
      <trkpt lat="43.88906" lon="1.80792">
        <ele>155</ele>
        <time>2012-12-20T11:01:39Z</time>
      </trkpt>
      <trkpt lat="43.88901" lon="1.80794">
        <ele>153</ele>
        <time>2012-12-20T11:01:42Z</time>
      </trkpt>
      <trkpt lat="43.88897" lon="1.80798">
        <ele>153</ele>
        <time>2012-12-20T11:01:47Z</time>
      </trkpt>
      <trkpt lat="43.88893" lon="1.808">
        <ele>153</ele>
        <time>2012-12-20T11:01:50Z</time>
      </trkpt>
      <trkpt lat="43.88888" lon="1.80804">
        <ele>153</ele>
        <time>2012-12-20T11:01:55Z</time>
      </trkpt>
      <trkpt lat="43.88883" lon="1.80808">
        <ele>151</ele>
        <time>2012-12-20T11:02:00Z</time>
      </trkpt>
      <trkpt lat="43.88878" lon="1.80811">
        <ele>151</ele>
        <time>2012-12-20T11:02:04Z</time>
      </trkpt>
      <trkpt lat="43.88874" lon="1.80815">
        <ele>149</ele>
        <time>2012-12-20T11:02:10Z</time>
      </trkpt>
      <trkpt lat="43.88871" lon="1.8082">
        <ele>149</ele>
        <time>2012-12-20T11:02:14Z</time>
      </trkpt>
      <trkpt lat="43.88872" lon="1.80826">
        <ele>149</ele>
        <time>2012-12-20T11:02:19Z</time>
      </trkpt>
      <trkpt lat="43.88875" lon="1.80832">
        <ele>149</ele>
        <time>2012-12-20T11:02:24Z</time>
      </trkpt>
      <trkpt lat="43.88879" lon="1.80841">
        <ele>150</ele>
        <time>2012-12-20T11:02:33Z</time>
      </trkpt>
      <trkpt lat="43.88881" lon="1.80848">
        <ele>150</ele>
        <time>2012-12-20T11:02:36Z</time>
      </trkpt>
      <trkpt lat="43.88883" lon="1.80854">
        <ele>151</ele>
        <time>2012-12-20T11:02:41Z</time>
      </trkpt>
      <trkpt lat="43.88884" lon="1.8086">
        <ele>152</ele>
        <time>2012-12-20T11:02:48Z</time>
      </trkpt>
      <trkpt lat="43.88885" lon="1.80868">
        <ele>153</ele>
        <time>2012-12-20T11:02:52Z</time>
      </trkpt>
      <trkpt lat="43.88887" lon="1.80875">
        <ele>152</ele>
        <time>2012-12-20T11:02:58Z</time>
      </trkpt>
      <trkpt lat="43.88887" lon="1.80882">
        <ele>152</ele>
        <time>2012-12-20T11:03:03Z</time>
      </trkpt>
      <trkpt lat="43.88887" lon="1.80889">
        <ele>152</ele>
        <time>2012-12-20T11:03:07Z</time>
      </trkpt>
      <trkpt lat="43.88886" lon="1.80895">
        <ele>152</ele>
        <time>2012-12-20T11:03:13Z</time>
      </trkpt>
      <trkpt lat="43.88884" lon="1.80902">
        <ele>152</ele>
        <time>2012-12-20T11:03:18Z</time>
      </trkpt>
      <trkpt lat="43.88882" lon="1.8091">
        <ele>152</ele>
        <time>2012-12-20T11:03:23Z</time>
      </trkpt>
      <trkpt lat="43.88881" lon="1.80917">
        <ele>151</ele>
        <time>2012-12-20T11:03:28Z</time>
      </trkpt>
      <trkpt lat="43.8888" lon="1.80924">
        <ele>152</ele>
        <time>2012-12-20T11:03:32Z</time>
      </trkpt>
      <trkpt lat="43.88879" lon="1.80931">
        <ele>153</ele>
        <time>2012-12-20T11:03:38Z</time>
      </trkpt>
      <trkpt lat="43.88879" lon="1.80938">
        <ele>153</ele>
        <time>2012-12-20T11:03:43Z</time>
      </trkpt>
      <trkpt lat="43.8888" lon="1.80951">
        <ele>153</ele>
        <time>2012-12-20T11:03:50Z</time>
      </trkpt>
      <trkpt lat="43.88881" lon="1.80959">
        <ele>154</ele>
        <time>2012-12-20T11:03:56Z</time>
      </trkpt>
      <trkpt lat="43.88883" lon="1.80968">
        <ele>154</ele>
        <time>2012-12-20T11:04:02Z</time>
      </trkpt>
      <trkpt lat="43.88883" lon="1.80977">
        <ele>156</ele>
        <time>2012-12-20T11:04:07Z</time>
      </trkpt>
      <trkpt lat="43.88883" lon="1.80983">
        <ele>157</ele>
        <time>2012-12-20T11:04:11Z</time>
      </trkpt>
      <trkpt lat="43.88884" lon="1.8099">
        <ele>157</ele>
        <time>2012-12-20T11:04:16Z</time>
      </trkpt>
      <trkpt lat="43.88884" lon="1.80997">
        <ele>157</ele>
        <time>2012-12-20T11:04:19Z</time>
      </trkpt>
      <trkpt lat="43.88884" lon="1.81004">
        <ele>156</ele>
        <time>2012-12-20T11:04:24Z</time>
      </trkpt>
      <trkpt lat="43.88886" lon="1.8101">
        <ele>155</ele>
        <time>2012-12-20T11:04:28Z</time>
      </trkpt>
      <trkpt lat="43.88887" lon="1.81016">
        <ele>155</ele>
        <time>2012-12-20T11:04:32Z</time>
      </trkpt>
      <trkpt lat="43.88889" lon="1.81022">
        <ele>155</ele>
        <time>2012-12-20T11:04:36Z</time>
      </trkpt>
      <trkpt lat="43.8889" lon="1.81028">
        <ele>155</ele>
        <time>2012-12-20T11:04:42Z</time>
      </trkpt>
      <trkpt lat="43.88891" lon="1.81035">
        <ele>154</ele>
        <time>2012-12-20T11:04:47Z</time>
      </trkpt>
      <trkpt lat="43.88891" lon="1.81042">
        <ele>153</ele>
        <time>2012-12-20T11:04:52Z</time>
      </trkpt>
      <trkpt lat="43.88891" lon="1.8105">
        <ele>152</ele>
        <time>2012-12-20T11:04:56Z</time>
      </trkpt>
      <trkpt lat="43.88893" lon="1.81056">
        <ele>150</ele>
        <time>2012-12-20T11:05:01Z</time>
      </trkpt>
      <trkpt lat="43.88894" lon="1.81063">
        <ele>150</ele>
        <time>2012-12-20T11:05:06Z</time>
      </trkpt>
      <trkpt lat="43.88894" lon="1.8107">
        <ele>151</ele>
        <time>2012-12-20T11:05:11Z</time>
      </trkpt>
      <trkpt lat="43.88895" lon="1.81077">
        <ele>152</ele>
        <time>2012-12-20T11:05:15Z</time>
      </trkpt>
      <trkpt lat="43.88896" lon="1.81084">
        <ele>154</ele>
        <time>2012-12-20T11:05:21Z</time>
      </trkpt>
      <trkpt lat="43.88896" lon="1.81091">
        <ele>155</ele>
        <time>2012-12-20T11:05:28Z</time>
      </trkpt>
      <trkpt lat="43.88895" lon="1.81094">
        <ele>156</ele>
        <time>2012-12-20T11:05:34Z</time>
      </trkpt>
      <trkpt lat="43.88897" lon="1.811">
        <ele>155</ele>
        <time>2012-12-20T11:05:52Z</time>
      </trkpt>
      <trkpt lat="43.88896" lon="1.81106">
        <ele>153</ele>
        <time>2012-12-20T11:06:19Z</time>
      </trkpt>
      <trkpt lat="43.88895" lon="1.81113">
        <ele>154</ele>
        <time>2012-12-20T11:06:27Z</time>
      </trkpt>
      <trkpt lat="43.88895" lon="1.81119">
        <ele>154</ele>
        <time>2012-12-20T11:06:32Z</time>
      </trkpt>
      <trkpt lat="43.88894" lon="1.81127">
        <ele>154</ele>
        <time>2012-12-20T11:06:36Z</time>
      </trkpt>
      <trkpt lat="43.88894" lon="1.81134">
        <ele>154</ele>
        <time>2012-12-20T11:06:41Z</time>
      </trkpt>
      <trkpt lat="43.88893" lon="1.81141">
        <ele>154</ele>
        <time>2012-12-20T11:06:44Z</time>
      </trkpt>
      <trkpt lat="43.88892" lon="1.81148">
        <ele>153</ele>
        <time>2012-12-20T11:06:50Z</time>
      </trkpt>
      <trkpt lat="43.88893" lon="1.81157">
        <ele>152</ele>
        <time>2012-12-20T11:07:02Z</time>
      </trkpt>
      <trkpt lat="43.88894" lon="1.81163">
        <ele>153</ele>
        <time>2012-12-20T11:07:06Z</time>
      </trkpt>
      <trkpt lat="43.88896" lon="1.81169">
        <ele>153</ele>
        <time>2012-12-20T11:07:11Z</time>
      </trkpt>
      <trkpt lat="43.88898" lon="1.81175">
        <ele>152</ele>
        <time>2012-12-20T11:07:16Z</time>
      </trkpt>
      <trkpt lat="43.88899" lon="1.81183">
        <ele>151</ele>
        <time>2012-12-20T11:07:21Z</time>
      </trkpt>
      <trkpt lat="43.88901" lon="1.81189">
        <ele>151</ele>
        <time>2012-12-20T11:07:25Z</time>
      </trkpt>
      <trkpt lat="43.88903" lon="1.81195">
        <ele>151</ele>
        <time>2012-12-20T11:07:29Z</time>
      </trkpt>
      <trkpt lat="43.88905" lon="1.81201">
        <ele>151</ele>
        <time>2012-12-20T11:07:33Z</time>
      </trkpt>
      <trkpt lat="43.88907" lon="1.81207">
        <ele>151</ele>
        <time>2012-12-20T11:07:37Z</time>
      </trkpt>
      <trkpt lat="43.88909" lon="1.81213">
        <ele>151</ele>
        <time>2012-12-20T11:07:42Z</time>
      </trkpt>
      <trkpt lat="43.88911" lon="1.81219">
        <ele>151</ele>
        <time>2012-12-20T11:07:46Z</time>
      </trkpt>
      <trkpt lat="43.88913" lon="1.81225">
        <ele>151</ele>
        <time>2012-12-20T11:07:51Z</time>
      </trkpt>
      <trkpt lat="43.88916" lon="1.81233">
        <ele>152</ele>
        <time>2012-12-20T11:07:57Z</time>
      </trkpt>
      <trkpt lat="43.88917" lon="1.81239">
        <ele>153</ele>
        <time>2012-12-20T11:08:01Z</time>
      </trkpt>
      <trkpt lat="43.88919" lon="1.81246">
        <ele>153</ele>
        <time>2012-12-20T11:08:07Z</time>
      </trkpt>
      <trkpt lat="43.88919" lon="1.81252">
        <ele>153</ele>
        <time>2012-12-20T11:08:11Z</time>
      </trkpt>
      <trkpt lat="43.88919" lon="1.8126">
        <ele>153</ele>
        <time>2012-12-20T11:08:14Z</time>
      </trkpt>
      <trkpt lat="43.8892" lon="1.81267">
        <ele>152</ele>
        <time>2012-12-20T11:08:20Z</time>
      </trkpt>
      <trkpt lat="43.88921" lon="1.81273">
        <ele>152</ele>
        <time>2012-12-20T11:08:24Z</time>
      </trkpt>
      <trkpt lat="43.88921" lon="1.81281">
        <ele>150</ele>
        <time>2012-12-20T11:08:30Z</time>
      </trkpt>
      <trkpt lat="43.88921" lon="1.81288">
        <ele>150</ele>
        <time>2012-12-20T11:08:34Z</time>
      </trkpt>
      <trkpt lat="43.88921" lon="1.81295">
        <ele>150</ele>
        <time>2012-12-20T11:08:38Z</time>
      </trkpt>
      <trkpt lat="43.88921" lon="1.81302">
        <ele>149</ele>
        <time>2012-12-20T11:08:42Z</time>
      </trkpt>
      <trkpt lat="43.88922" lon="1.81308">
        <ele>149</ele>
        <time>2012-12-20T11:08:46Z</time>
      </trkpt>
      <trkpt lat="43.88923" lon="1.81315">
        <ele>148</ele>
        <time>2012-12-20T11:08:50Z</time>
      </trkpt>
      <trkpt lat="43.88924" lon="1.81321">
        <ele>149</ele>
        <time>2012-12-20T11:08:55Z</time>
      </trkpt>
      <trkpt lat="43.88925" lon="1.81329">
        <ele>150</ele>
        <time>2012-12-20T11:08:59Z</time>
      </trkpt>
      <trkpt lat="43.88927" lon="1.81336">
        <ele>150</ele>
        <time>2012-12-20T11:09:05Z</time>
      </trkpt>
      <trkpt lat="43.88928" lon="1.81343">
        <ele>150</ele>
        <time>2012-12-20T11:09:09Z</time>
      </trkpt>
      <trkpt lat="43.88929" lon="1.8135">
        <ele>150</ele>
        <time>2012-12-20T11:09:13Z</time>
      </trkpt>
      <trkpt lat="43.8893" lon="1.81357">
        <ele>150</ele>
        <time>2012-12-20T11:09:16Z</time>
      </trkpt>
      <trkpt lat="43.88931" lon="1.81364">
        <ele>150</ele>
        <time>2012-12-20T11:09:22Z</time>
      </trkpt>
      <trkpt lat="43.88931" lon="1.8137">
        <ele>149</ele>
        <time>2012-12-20T11:09:28Z</time>
      </trkpt>
      <trkpt lat="43.88932" lon="1.81377">
        <ele>148</ele>
        <time>2012-12-20T11:09:33Z</time>
      </trkpt>
      <trkpt lat="43.88927" lon="1.81384">
        <ele>149</ele>
        <time>2012-12-20T11:09:40Z</time>
      </trkpt>
      <trkpt lat="43.88923" lon="1.81387">
        <ele>149</ele>
        <time>2012-12-20T11:09:44Z</time>
      </trkpt>
      <trkpt lat="43.8892" lon="1.81393">
        <ele>150</ele>
        <time>2012-12-20T11:09:48Z</time>
      </trkpt>
      <trkpt lat="43.88918" lon="1.814">
        <ele>151</ele>
        <time>2012-12-20T11:09:53Z</time>
      </trkpt>
      <trkpt lat="43.88919" lon="1.81406">
        <ele>152</ele>
        <time>2012-12-20T11:09:57Z</time>
      </trkpt>
      <trkpt lat="43.88921" lon="1.81412">
        <ele>150</ele>
        <time>2012-12-20T11:10:02Z</time>
      </trkpt>
      <trkpt lat="43.88923" lon="1.81418">
        <ele>149</ele>
        <time>2012-12-20T11:10:06Z</time>
      </trkpt>
      <trkpt lat="43.88924" lon="1.81425">
        <ele>148</ele>
        <time>2012-12-20T11:10:11Z</time>
      </trkpt>
      <trkpt lat="43.88928" lon="1.81435">
        <ele>148</ele>
        <time>2012-12-20T11:10:18Z</time>
      </trkpt>
      <trkpt lat="43.8893" lon="1.81441">
        <ele>148</ele>
        <time>2012-12-20T11:10:24Z</time>
      </trkpt>
      <trkpt lat="43.88933" lon="1.81447">
        <ele>149</ele>
        <time>2012-12-20T11:10:29Z</time>
      </trkpt>
      <trkpt lat="43.88939" lon="1.81456">
        <ele>148</ele>
        <time>2012-12-20T11:10:38Z</time>
      </trkpt>
      <trkpt lat="43.88943" lon="1.81461">
        <ele>147</ele>
        <time>2012-12-20T11:10:44Z</time>
      </trkpt>
      <trkpt lat="43.88947" lon="1.81465">
        <ele>146</ele>
        <time>2012-12-20T11:10:51Z</time>
      </trkpt>
      <trkpt lat="43.8895" lon="1.81472">
        <ele>148</ele>
        <time>2012-12-20T11:11:01Z</time>
      </trkpt>
      <trkpt lat="43.8895" lon="1.81479">
        <ele>147</ele>
        <time>2012-12-20T11:11:06Z</time>
      </trkpt>
      <trkpt lat="43.8895" lon="1.81486">
        <ele>146</ele>
        <time>2012-12-20T11:11:10Z</time>
      </trkpt>
      <trkpt lat="43.88948" lon="1.81492">
        <ele>147</ele>
        <time>2012-12-20T11:11:14Z</time>
      </trkpt>
      <trkpt lat="43.88946" lon="1.81499">
        <ele>147</ele>
        <time>2012-12-20T11:11:18Z</time>
      </trkpt>
      <trkpt lat="43.88944" lon="1.81505">
        <ele>148</ele>
        <time>2012-12-20T11:11:22Z</time>
      </trkpt>
      <trkpt lat="43.88942" lon="1.81511">
        <ele>149</ele>
        <time>2012-12-20T11:11:28Z</time>
      </trkpt>
      <trkpt lat="43.88943" lon="1.81519">
        <ele>148</ele>
        <time>2012-12-20T11:11:33Z</time>
      </trkpt>
      <trkpt lat="43.88945" lon="1.81526">
        <ele>149</ele>
        <time>2012-12-20T11:11:38Z</time>
      </trkpt>
      <trkpt lat="43.88948" lon="1.81531">
        <ele>148</ele>
        <time>2012-12-20T11:11:42Z</time>
      </trkpt>
      <trkpt lat="43.88949" lon="1.81537">
        <ele>145</ele>
        <time>2012-12-20T11:11:48Z</time>
      </trkpt>
      <trkpt lat="43.88947" lon="1.81541">
        <ele>146</ele>
        <time>2012-12-20T11:12:02Z</time>
      </trkpt>
      <trkpt lat="43.88943" lon="1.81541">
        <ele>145</ele>
        <time>2012-12-20T11:12:33Z</time>
      </trkpt>
      <trkpt lat="43.88939" lon="1.81545">
        <ele>145</ele>
        <time>2012-12-20T11:12:38Z</time>
      </trkpt>
      <trkpt lat="43.88935" lon="1.81549">
        <ele>146</ele>
        <time>2012-12-20T11:12:42Z</time>
      </trkpt>
      <trkpt lat="43.88931" lon="1.81552">
        <ele>146</ele>
        <time>2012-12-20T11:12:48Z</time>
      </trkpt>
      <trkpt lat="43.88927" lon="1.81556">
        <ele>145</ele>
        <time>2012-12-20T11:12:53Z</time>
      </trkpt>
      <trkpt lat="43.88923" lon="1.81559">
        <ele>145</ele>
        <time>2012-12-20T11:12:57Z</time>
      </trkpt>
      <trkpt lat="43.88917" lon="1.81561">
        <ele>145</ele>
        <time>2012-12-20T11:13:02Z</time>
      </trkpt>
      <trkpt lat="43.88913" lon="1.81565">
        <ele>145</ele>
        <time>2012-12-20T11:13:07Z</time>
      </trkpt>
      <trkpt lat="43.88908" lon="1.81568">
        <ele>143</ele>
        <time>2012-12-20T11:13:12Z</time>
      </trkpt>
      <trkpt lat="43.88904" lon="1.81572">
        <ele>141</ele>
        <time>2012-12-20T11:13:16Z</time>
      </trkpt>
      <trkpt lat="43.88899" lon="1.81576">
        <ele>140</ele>
        <time>2012-12-20T11:13:20Z</time>
      </trkpt>
      <trkpt lat="43.88895" lon="1.8158">
        <ele>141</ele>
        <time>2012-12-20T11:13:25Z</time>
      </trkpt>
      <trkpt lat="43.88891" lon="1.81585">
        <ele>141</ele>
        <time>2012-12-20T11:13:30Z</time>
      </trkpt>
      <trkpt lat="43.88888" lon="1.81588">
        <ele>142</ele>
        <time>2012-12-20T11:13:34Z</time>
      </trkpt>
      <trkpt lat="43.88883" lon="1.81592">
        <ele>143</ele>
        <time>2012-12-20T11:13:38Z</time>
      </trkpt>
      <trkpt lat="43.88878" lon="1.81595">
        <ele>143</ele>
        <time>2012-12-20T11:13:42Z</time>
      </trkpt>
      <trkpt lat="43.88874" lon="1.81598">
        <ele>144</ele>
        <time>2012-12-20T11:13:46Z</time>
      </trkpt>
      <trkpt lat="43.88869" lon="1.816">
        <ele>144</ele>
        <time>2012-12-20T11:13:50Z</time>
      </trkpt>
      <trkpt lat="43.88861" lon="1.81599">
        <ele>145</ele>
        <time>2012-12-20T11:13:56Z</time>
      </trkpt>
      <trkpt lat="43.88857" lon="1.81603">
        <ele>145</ele>
        <time>2012-12-20T11:14:00Z</time>
      </trkpt>
      <trkpt lat="43.88853" lon="1.81608">
        <ele>145</ele>
        <time>2012-12-20T11:14:05Z</time>
      </trkpt>
      <trkpt lat="43.88849" lon="1.81611">
        <ele>146</ele>
        <time>2012-12-20T11:14:10Z</time>
      </trkpt>
      <trkpt lat="43.88845" lon="1.81616">
        <ele>146</ele>
        <time>2012-12-20T11:14:16Z</time>
      </trkpt>
      <trkpt lat="43.88841" lon="1.8162">
        <ele>146</ele>
        <time>2012-12-20T11:14:20Z</time>
      </trkpt>
      <trkpt lat="43.88837" lon="1.81622">
        <ele>146</ele>
        <time>2012-12-20T11:14:25Z</time>
      </trkpt>
      <trkpt lat="43.88832" lon="1.81627">
        <ele>146</ele>
        <time>2012-12-20T11:14:31Z</time>
      </trkpt>
      <trkpt lat="43.88823" lon="1.81632">
        <ele>144</ele>
        <time>2012-12-20T11:14:40Z</time>
      </trkpt>
      <trkpt lat="43.88814" lon="1.81635">
        <ele>143</ele>
        <time>2012-12-20T11:14:48Z</time>
      </trkpt>
      <trkpt lat="43.88806" lon="1.81638">
        <ele>141</ele>
        <time>2012-12-20T11:14:56Z</time>
      </trkpt>
      <trkpt lat="43.88802" lon="1.81641">
        <ele>141</ele>
        <time>2012-12-20T11:14:59Z</time>
      </trkpt>
      <trkpt lat="43.88797" lon="1.81642">
        <ele>141</ele>
        <time>2012-12-20T11:15:03Z</time>
      </trkpt>
      <trkpt lat="43.88793" lon="1.81644">
        <ele>141</ele>
        <time>2012-12-20T11:15:07Z</time>
      </trkpt>
      <trkpt lat="43.88787" lon="1.81645">
        <ele>143</ele>
        <time>2012-12-20T11:15:13Z</time>
      </trkpt>
      <trkpt lat="43.88783" lon="1.81647">
        <ele>144</ele>
        <time>2012-12-20T11:15:20Z</time>
      </trkpt>
      <trkpt lat="43.88778" lon="1.81647">
        <ele>144</ele>
        <time>2012-12-20T11:15:26Z</time>
      </trkpt>
      <trkpt lat="43.88773" lon="1.81645">
        <ele>144</ele>
        <time>2012-12-20T11:15:30Z</time>
      </trkpt>
      <trkpt lat="43.88767" lon="1.81645">
        <ele>144</ele>
        <time>2012-12-20T11:15:35Z</time>
      </trkpt>
      <trkpt lat="43.88762" lon="1.81641">
        <ele>143</ele>
        <time>2012-12-20T11:15:39Z</time>
      </trkpt>
      <trkpt lat="43.88755" lon="1.81638">
        <ele>143</ele>
        <time>2012-12-20T11:15:47Z</time>
      </trkpt>
      <trkpt lat="43.88744" lon="1.81642">
        <ele>144</ele>
        <time>2012-12-20T11:15:59Z</time>
      </trkpt>
      <trkpt lat="43.88736" lon="1.81647">
        <ele>146</ele>
        <time>2012-12-20T11:16:07Z</time>
      </trkpt>
      <trkpt lat="43.88727" lon="1.81651">
        <ele>146</ele>
        <time>2012-12-20T11:16:18Z</time>
      </trkpt>
      <trkpt lat="43.88718" lon="1.81654">
        <ele>146</ele>
        <time>2012-12-20T11:16:29Z</time>
      </trkpt>
      <trkpt lat="43.88714" lon="1.81658">
        <ele>145</ele>
        <time>2012-12-20T11:16:34Z</time>
      </trkpt>
      <trkpt lat="43.88713" lon="1.81667">
        <ele>144</ele>
        <time>2012-12-20T11:16:47Z</time>
      </trkpt>
      <trkpt lat="43.88714" lon="1.81674">
        <ele>143</ele>
        <time>2012-12-20T11:16:52Z</time>
      </trkpt>
      <trkpt lat="43.88715" lon="1.81688">
        <ele>143</ele>
        <time>2012-12-20T11:17:00Z</time>
      </trkpt>
      <trkpt lat="43.88719" lon="1.81694">
        <ele>143</ele>
        <time>2012-12-20T11:17:05Z</time>
      </trkpt>
      <trkpt lat="43.8872" lon="1.81699">
        <ele>141</ele>
        <time>2012-12-20T11:17:11Z</time>
      </trkpt>
      <trkpt lat="43.88723" lon="1.81705">
        <ele>141</ele>
        <time>2012-12-20T11:17:16Z</time>
      </trkpt>
      <trkpt lat="43.88729" lon="1.81715">
        <ele>137</ele>
        <time>2012-12-20T11:17:26Z</time>
      </trkpt>
      <trkpt lat="43.88729" lon="1.81729">
        <ele>132</ele>
        <time>2012-12-20T11:17:34Z</time>
      </trkpt>
      <trkpt lat="43.88731" lon="1.81738">
        <ele>131</ele>
        <time>2012-12-20T11:17:39Z</time>
      </trkpt>
      <trkpt lat="43.88733" lon="1.81747">
        <ele>131</ele>
        <time>2012-12-20T11:17:44Z</time>
      </trkpt>
      <trkpt lat="43.88734" lon="1.81754">
        <ele>132</ele>
        <time>2012-12-20T11:17:49Z</time>
      </trkpt>
      <trkpt lat="43.88735" lon="1.81762">
        <ele>132</ele>
        <time>2012-12-20T11:17:54Z</time>
      </trkpt>
      <trkpt lat="43.88737" lon="1.81769">
        <ele>132</ele>
        <time>2012-12-20T11:17:58Z</time>
      </trkpt>
      <trkpt lat="43.8874" lon="1.81783">
        <ele>133</ele>
        <time>2012-12-20T11:18:07Z</time>
      </trkpt>
      <trkpt lat="43.88746" lon="1.81794">
        <ele>132</ele>
        <time>2012-12-20T11:18:15Z</time>
      </trkpt>
      <trkpt lat="43.88746" lon="1.81807">
        <ele>135</ele>
        <time>2012-12-20T11:18:27Z</time>
      </trkpt>
      <trkpt lat="43.88748" lon="1.81822">
        <ele>135</ele>
        <time>2012-12-20T11:18:41Z</time>
      </trkpt>
      <trkpt lat="43.88747" lon="1.8183">
        <ele>134</ele>
        <time>2012-12-20T11:18:47Z</time>
      </trkpt>
      <trkpt lat="43.88749" lon="1.81836">
        <ele>134</ele>
        <time>2012-12-20T11:18:53Z</time>
      </trkpt>
      <trkpt lat="43.8875" lon="1.81842">
        <ele>134</ele>
        <time>2012-12-20T11:18:58Z</time>
      </trkpt>
      <trkpt lat="43.88751" lon="1.81854">
        <ele>135</ele>
        <time>2012-12-20T11:19:06Z</time>
      </trkpt>
      <trkpt lat="43.88754" lon="1.81861">
        <ele>136</ele>
        <time>2012-12-20T11:19:11Z</time>
      </trkpt>
      <trkpt lat="43.88755" lon="1.8187">
        <ele>136</ele>
        <time>2012-12-20T11:19:18Z</time>
      </trkpt>
      <trkpt lat="43.8876" lon="1.81882">
        <ele>135</ele>
        <time>2012-12-20T11:19:29Z</time>
      </trkpt>
      <trkpt lat="43.88762" lon="1.81888">
        <ele>134</ele>
        <time>2012-12-20T11:19:36Z</time>
      </trkpt>
      <trkpt lat="43.88764" lon="1.81896">
        <ele>133</ele>
        <time>2012-12-20T11:19:41Z</time>
      </trkpt>
      <trkpt lat="43.88765" lon="1.81903">
        <ele>132</ele>
        <time>2012-12-20T11:19:44Z</time>
      </trkpt>
      <trkpt lat="43.88767" lon="1.81912">
        <ele>132</ele>
        <time>2012-12-20T11:19:51Z</time>
      </trkpt>
      <trkpt lat="43.88767" lon="1.8192">
        <ele>131</ele>
        <time>2012-12-20T11:19:55Z</time>
      </trkpt>
      <trkpt lat="43.88772" lon="1.81932">
        <ele>131</ele>
        <time>2012-12-20T11:20:06Z</time>
      </trkpt>
      <trkpt lat="43.88778" lon="1.81944">
        <ele>131</ele>
        <time>2012-12-20T11:20:14Z</time>
      </trkpt>
      <trkpt lat="43.88785" lon="1.81952">
        <ele>133</ele>
        <time>2012-12-20T11:20:21Z</time>
      </trkpt>
      <trkpt lat="43.88792" lon="1.81962">
        <ele>134</ele>
        <time>2012-12-20T11:20:30Z</time>
      </trkpt>
      <trkpt lat="43.88796" lon="1.81973">
        <ele>137</ele>
        <time>2012-12-20T11:20:36Z</time>
      </trkpt>
      <trkpt lat="43.88802" lon="1.81983">
        <ele>141</ele>
        <time>2012-12-20T11:20:43Z</time>
      </trkpt>
      <trkpt lat="43.88806" lon="1.81989">
        <ele>141</ele>
        <time>2012-12-20T11:20:49Z</time>
      </trkpt>
      <trkpt lat="43.88812" lon="1.81996">
        <ele>139</ele>
        <time>2012-12-20T11:20:56Z</time>
      </trkpt>
      <trkpt lat="43.88815" lon="1.82002">
        <ele>139</ele>
        <time>2012-12-20T11:21:00Z</time>
      </trkpt>
      <trkpt lat="43.88819" lon="1.82008">
        <ele>138</ele>
        <time>2012-12-20T11:21:07Z</time>
      </trkpt>
      <trkpt lat="43.88823" lon="1.82013">
        <ele>138</ele>
        <time>2012-12-20T11:21:10Z</time>
      </trkpt>
      <trkpt lat="43.88827" lon="1.82017">
        <ele>138</ele>
        <time>2012-12-20T11:21:14Z</time>
      </trkpt>
      <trkpt lat="43.88832" lon="1.82022">
        <ele>137</ele>
        <time>2012-12-20T11:21:18Z</time>
      </trkpt>
      <trkpt lat="43.8884" lon="1.82027">
        <ele>136</ele>
        <time>2012-12-20T11:21:27Z</time>
      </trkpt>
      <trkpt lat="43.88845" lon="1.82029">
        <ele>137</ele>
        <time>2012-12-20T11:21:31Z</time>
      </trkpt>
      <trkpt lat="43.88848" lon="1.82033">
        <ele>137</ele>
        <time>2012-12-20T11:21:35Z</time>
      </trkpt>
      <trkpt lat="43.88851" lon="1.82039">
        <ele>137</ele>
        <time>2012-12-20T11:21:38Z</time>
      </trkpt>
      <trkpt lat="43.88855" lon="1.82046">
        <ele>136</ele>
        <time>2012-12-20T11:21:43Z</time>
      </trkpt>
      <trkpt lat="43.88861" lon="1.82056">
        <ele>136</ele>
        <time>2012-12-20T11:21:50Z</time>
      </trkpt>
      <trkpt lat="43.88865" lon="1.82067">
        <ele>136</ele>
        <time>2012-12-20T11:21:57Z</time>
      </trkpt>
      <trkpt lat="43.88871" lon="1.82078">
        <ele>135</ele>
        <time>2012-12-20T11:22:06Z</time>
      </trkpt>
      <trkpt lat="43.88879" lon="1.82088">
        <ele>133</ele>
        <time>2012-12-20T11:22:15Z</time>
      </trkpt>
      <trkpt lat="43.88885" lon="1.82088">
        <ele>134</ele>
        <time>2012-12-20T11:22:18Z</time>
      </trkpt>
      <trkpt lat="43.88894" lon="1.82093">
        <ele>136</ele>
        <time>2012-12-20T11:22:26Z</time>
      </trkpt>
      <trkpt lat="43.88899" lon="1.82098">
        <ele>138</ele>
        <time>2012-12-20T11:22:31Z</time>
      </trkpt>
      <trkpt lat="43.88903" lon="1.82102">
        <ele>137</ele>
        <time>2012-12-20T11:22:36Z</time>
      </trkpt>
      <trkpt lat="43.88906" lon="1.82109">
        <ele>136</ele>
        <time>2012-12-20T11:22:42Z</time>
      </trkpt>
      <trkpt lat="43.88909" lon="1.82114">
        <ele>136</ele>
        <time>2012-12-20T11:22:48Z</time>
      </trkpt>
      <trkpt lat="43.88907" lon="1.82117">
        <ele>139</ele>
        <time>2012-12-20T11:22:59Z</time>
      </trkpt>
      <trkpt lat="43.88911" lon="1.82131">
        <ele>142</ele>
        <time>2012-12-20T11:23:13Z</time>
      </trkpt>
      <trkpt lat="43.88916" lon="1.82144">
        <ele>140</ele>
        <time>2012-12-20T11:23:22Z</time>
      </trkpt>
      <trkpt lat="43.88922" lon="1.82154">
        <ele>139</ele>
        <time>2012-12-20T11:23:31Z</time>
      </trkpt>
      <trkpt lat="43.88928" lon="1.82164">
        <ele>137</ele>
        <time>2012-12-20T11:23:39Z</time>
      </trkpt>
      <trkpt lat="43.88934" lon="1.82176">
        <ele>134</ele>
        <time>2012-12-20T11:23:49Z</time>
      </trkpt>
      <trkpt lat="43.88937" lon="1.82189">
        <ele>135</ele>
        <time>2012-12-20T11:23:58Z</time>
      </trkpt>
      <trkpt lat="43.88936" lon="1.82195">
        <ele>136</ele>
        <time>2012-12-20T11:24:02Z</time>
      </trkpt>
      <trkpt lat="43.88936" lon="1.82205">
        <ele>136</ele>
        <time>2012-12-20T11:24:10Z</time>
      </trkpt>
      <trkpt lat="43.88938" lon="1.82216">
        <ele>134</ele>
        <time>2012-12-20T11:24:16Z</time>
      </trkpt>
      <trkpt lat="43.8894" lon="1.82222">
        <ele>132</ele>
        <time>2012-12-20T11:24:21Z</time>
      </trkpt>
      <trkpt lat="43.88944" lon="1.82228">
        <ele>132</ele>
        <time>2012-12-20T11:24:26Z</time>
      </trkpt>
      <trkpt lat="43.88942" lon="1.8223">
        <ele>139</ele>
        <time>2012-12-20T11:25:53Z</time>
      </trkpt>
      <trkpt lat="43.88947" lon="1.82241">
        <ele>138</ele>
        <time>2012-12-20T11:26:12Z</time>
      </trkpt>
      <trkpt lat="43.88951" lon="1.82253">
        <ele>137</ele>
        <time>2012-12-20T11:26:22Z</time>
      </trkpt>
      <trkpt lat="43.88951" lon="1.82266">
        <ele>135</ele>
        <time>2012-12-20T11:26:28Z</time>
      </trkpt>
      <trkpt lat="43.88955" lon="1.82278">
        <ele>130</ele>
        <time>2012-12-20T11:26:40Z</time>
      </trkpt>
      <trkpt lat="43.8896" lon="1.82289">
        <ele>128</ele>
        <time>2012-12-20T11:26:48Z</time>
      </trkpt>
      <trkpt lat="43.88965" lon="1.823">
        <ele>127</ele>
        <time>2012-12-20T11:26:55Z</time>
      </trkpt>
      <trkpt lat="43.88972" lon="1.82308">
        <ele>130</ele>
        <time>2012-12-20T11:27:03Z</time>
      </trkpt>
      <trkpt lat="43.88974" lon="1.82322">
        <ele>132</ele>
        <time>2012-12-20T11:27:13Z</time>
      </trkpt>
      <trkpt lat="43.88978" lon="1.82333">
        <ele>132</ele>
        <time>2012-12-20T11:27:22Z</time>
      </trkpt>
      <trkpt lat="43.88981" lon="1.82346">
        <ele>131</ele>
        <time>2012-12-20T11:27:30Z</time>
      </trkpt>
      <trkpt lat="43.88989" lon="1.82357">
        <ele>129</ele>
        <time>2012-12-20T11:27:39Z</time>
      </trkpt>
      <trkpt lat="43.88995" lon="1.82366">
        <ele>129</ele>
        <time>2012-12-20T11:27:48Z</time>
      </trkpt>
      <trkpt lat="43.89001" lon="1.82375">
        <ele>133</ele>
        <time>2012-12-20T11:28:01Z</time>
      </trkpt>
      <trkpt lat="43.89005" lon="1.82381">
        <ele>133</ele>
        <time>2012-12-20T11:28:05Z</time>
      </trkpt>
      <trkpt lat="43.89007" lon="1.82388">
        <ele>133</ele>
        <time>2012-12-20T11:28:09Z</time>
      </trkpt>
      <trkpt lat="43.89008" lon="1.82395">
        <ele>134</ele>
        <time>2012-12-20T11:28:14Z</time>
      </trkpt>
      <trkpt lat="43.89009" lon="1.82402">
        <ele>133</ele>
        <time>2012-12-20T11:28:19Z</time>
      </trkpt>
      <trkpt lat="43.89011" lon="1.82408">
        <ele>132</ele>
        <time>2012-12-20T11:28:23Z</time>
      </trkpt>
      <trkpt lat="43.89012" lon="1.82414">
        <ele>132</ele>
        <time>2012-12-20T11:28:28Z</time>
      </trkpt>
      <trkpt lat="43.89013" lon="1.82418">
        <ele>132</ele>
        <time>2012-12-20T11:28:34Z</time>
      </trkpt>
      <trkpt lat="43.89014" lon="1.82424">
        <ele>133</ele>
        <time>2012-12-20T11:28:47Z</time>
      </trkpt>
      <trkpt lat="43.89016" lon="1.82431">
        <ele>133</ele>
        <time>2012-12-20T11:28:53Z</time>
      </trkpt>
      <trkpt lat="43.89019" lon="1.82432">
        <ele>135</ele>
        <time>2012-12-20T11:29:14Z</time>
      </trkpt>
      <trkpt lat="43.89022" lon="1.82438">
        <ele>136</ele>
        <time>2012-12-20T11:29:17Z</time>
      </trkpt>
      <trkpt lat="43.89025" lon="1.82445">
        <ele>135</ele>
        <time>2012-12-20T11:29:23Z</time>
      </trkpt>
      <trkpt lat="43.89027" lon="1.82451">
        <ele>135</ele>
        <time>2012-12-20T11:29:28Z</time>
      </trkpt>
      <trkpt lat="43.89029" lon="1.82457">
        <ele>135</ele>
        <time>2012-12-20T11:29:34Z</time>
      </trkpt>
      <trkpt lat="43.89031" lon="1.82464">
        <ele>134</ele>
        <time>2012-12-20T11:29:39Z</time>
      </trkpt>
      <trkpt lat="43.89032" lon="1.82473">
        <ele>133</ele>
        <time>2012-12-20T11:29:45Z</time>
      </trkpt>
      <trkpt lat="43.89034" lon="1.82478">
        <ele>132</ele>
        <time>2012-12-20T11:29:50Z</time>
      </trkpt>
      <trkpt lat="43.89037" lon="1.82484">
        <ele>131</ele>
        <time>2012-12-20T11:29:55Z</time>
      </trkpt>
      <trkpt lat="43.89041" lon="1.82487">
        <ele>131</ele>
        <time>2012-12-20T11:30:00Z</time>
      </trkpt>
      <trkpt lat="43.89045" lon="1.82494">
        <ele>131</ele>
        <time>2012-12-20T11:30:06Z</time>
      </trkpt>
      <trkpt lat="43.89047" lon="1.82499">
        <ele>132</ele>
        <time>2012-12-20T11:30:10Z</time>
      </trkpt>
      <trkpt lat="43.89052" lon="1.8251">
        <ele>131</ele>
        <time>2012-12-20T11:30:18Z</time>
      </trkpt>
      <trkpt lat="43.89054" lon="1.82516">
        <ele>131</ele>
        <time>2012-12-20T11:30:21Z</time>
      </trkpt>
      <trkpt lat="43.89056" lon="1.82523">
        <ele>131</ele>
        <time>2012-12-20T11:30:26Z</time>
      </trkpt>
      <trkpt lat="43.89059" lon="1.82529">
        <ele>130</ele>
        <time>2012-12-20T11:30:32Z</time>
      </trkpt>
      <trkpt lat="43.89062" lon="1.82534">
        <ele>130</ele>
        <time>2012-12-20T11:30:36Z</time>
      </trkpt>
      <trkpt lat="43.89065" lon="1.8254">
        <ele>131</ele>
        <time>2012-12-20T11:30:40Z</time>
      </trkpt>
      <trkpt lat="43.89067" lon="1.82546">
        <ele>132</ele>
        <time>2012-12-20T11:30:44Z</time>
      </trkpt>
      <trkpt lat="43.8907" lon="1.82551">
        <ele>134</ele>
        <time>2012-12-20T11:30:48Z</time>
      </trkpt>
      <trkpt lat="43.89073" lon="1.82556">
        <ele>134</ele>
        <time>2012-12-20T11:30:52Z</time>
      </trkpt>
      <trkpt lat="43.89077" lon="1.82564">
        <ele>134</ele>
        <time>2012-12-20T11:30:58Z</time>
      </trkpt>
      <trkpt lat="43.89081" lon="1.8257">
        <ele>134</ele>
        <time>2012-12-20T11:31:04Z</time>
      </trkpt>
      <trkpt lat="43.89085" lon="1.82574">
        <ele>134</ele>
        <time>2012-12-20T11:31:08Z</time>
      </trkpt>
      <trkpt lat="43.89087" lon="1.82581">
        <ele>135</ele>
        <time>2012-12-20T11:31:12Z</time>
      </trkpt>
      <trkpt lat="43.89095" lon="1.82591">
        <ele>135</ele>
        <time>2012-12-20T11:31:21Z</time>
      </trkpt>
      <trkpt lat="43.89103" lon="1.82599">
        <ele>137</ele>
        <time>2012-12-20T11:31:30Z</time>
      </trkpt>
      <trkpt lat="43.8911" lon="1.82609">
        <ele>136</ele>
        <time>2012-12-20T11:31:39Z</time>
      </trkpt>
      <trkpt lat="43.89117" lon="1.82617">
        <ele>136</ele>
        <time>2012-12-20T11:31:47Z</time>
      </trkpt>
      <trkpt lat="43.89123" lon="1.82623">
        <ele>137</ele>
        <time>2012-12-20T11:31:54Z</time>
      </trkpt>
      <trkpt lat="43.89127" lon="1.82627">
        <ele>136</ele>
        <time>2012-12-20T11:31:59Z</time>
      </trkpt>
      <trkpt lat="43.89135" lon="1.82629">
        <ele>134</ele>
        <time>2012-12-20T11:32:07Z</time>
      </trkpt>
      <trkpt lat="43.89138" lon="1.82631">
        <ele>134</ele>
        <time>2012-12-20T11:32:14Z</time>
      </trkpt>
      <trkpt lat="43.89142" lon="1.82626">
        <ele>134</ele>
        <time>2012-12-20T11:32:20Z</time>
      </trkpt>
      <trkpt lat="43.89138" lon="1.82615">
        <ele>135</ele>
        <time>2012-12-20T11:32:33Z</time>
      </trkpt>
      <trkpt lat="43.89139" lon="1.82609">
        <ele>135</ele>
        <time>2012-12-20T11:34:04Z</time>
      </trkpt>
      <trkpt lat="43.89139" lon="1.82609">
        <ele>134</ele>
        <time>2012-12-20T11:35:25Z</time>
      </trkpt>
      <trkpt lat="43.89136" lon="1.82615">
        <ele>132</ele>
        <time>2012-12-20T11:37:32Z</time>
      </trkpt>
      <trkpt lat="43.8914" lon="1.82614">
        <ele>131</ele>
        <time>2012-12-20T11:42:31Z</time>
      </trkpt>
      <trkpt lat="43.8914" lon="1.82607">
        <ele>130</ele>
        <time>2012-12-20T11:43:48Z</time>
      </trkpt>
      <trkpt lat="43.89136" lon="1.82614">
        <ele>130</ele>
        <time>2012-12-20T11:45:01Z</time>
      </trkpt>
      <trkpt lat="43.89142" lon="1.82613">
        <ele>131</ele>
        <time>2012-12-20T11:45:36Z</time>
      </trkpt>
      <trkpt lat="43.89141" lon="1.8261">
        <ele>131</ele>
        <time>2012-12-20T11:46:26Z</time>
      </trkpt>
      <trkpt lat="43.89136" lon="1.82617">
        <ele>131</ele>
        <time>2012-12-20T11:49:22Z</time>
      </trkpt>
      <trkpt lat="43.89137" lon="1.82613">
        <ele>132</ele>
        <time>2012-12-20T11:50:32Z</time>
      </trkpt>
      <trkpt lat="43.89139" lon="1.82608">
        <ele>132</ele>
        <time>2012-12-20T11:50:37Z</time>
      </trkpt>
      <trkpt lat="43.89139" lon="1.82619">
        <ele>131</ele>
        <time>2012-12-20T11:52:55Z</time>
      </trkpt>
      <trkpt lat="43.89137" lon="1.82615">
        <ele>131</ele>
        <time>2012-12-20T11:53:12Z</time>
      </trkpt>
      <trkpt lat="43.89136" lon="1.82612">
        <ele>131</ele>
        <time>2012-12-20T11:53:25Z</time>
      </trkpt>
      <trkpt lat="43.89137" lon="1.82606">
        <ele>131</ele>
        <time>2012-12-20T11:53:53Z</time>
      </trkpt>
      <trkpt lat="43.89137" lon="1.82604">
        <ele>133</ele>
        <time>2012-12-20T11:57:00Z</time>
      </trkpt>
      <trkpt lat="43.89133" lon="1.82613">
        <ele>133</ele>
        <time>2012-12-20T11:59:20Z</time>
      </trkpt>
      <trkpt lat="43.89139" lon="1.82607">
        <ele>132</ele>
        <time>2012-12-20T12:01:13Z</time>
      </trkpt>
      <trkpt lat="43.89141" lon="1.82611">
        <ele>135</ele>
        <time>2012-12-20T12:04:42Z</time>
      </trkpt>
      <trkpt lat="43.89141" lon="1.82623">
        <ele>136</ele>
        <time>2012-12-20T12:09:56Z</time>
      </trkpt>
      <trkpt lat="43.8914" lon="1.8263">
        <ele>135</ele>
        <time>2012-12-20T12:10:05Z</time>
      </trkpt>
      <trkpt lat="43.89139" lon="1.82636">
        <ele>135</ele>
        <time>2012-12-20T12:10:15Z</time>
      </trkpt>
      <trkpt lat="43.89149" lon="1.82647">
        <ele>136</ele>
        <time>2012-12-20T12:11:12Z</time>
      </trkpt>
      <trkpt lat="43.89158" lon="1.82653">
        <ele>135</ele>
        <time>2012-12-20T12:11:20Z</time>
      </trkpt>
      <trkpt lat="43.89163" lon="1.82655">
        <ele>135</ele>
        <time>2012-12-20T12:11:31Z</time>
      </trkpt>
      <trkpt lat="43.89169" lon="1.82664">
        <ele>136</ele>
        <time>2012-12-20T12:11:39Z</time>
      </trkpt>
      <trkpt lat="43.89175" lon="1.82675">
        <ele>136</ele>
        <time>2012-12-20T12:11:48Z</time>
      </trkpt>
      <trkpt lat="43.89181" lon="1.82685">
        <ele>135</ele>
        <time>2012-12-20T12:11:54Z</time>
      </trkpt>
      <trkpt lat="43.89186" lon="1.82696">
        <ele>137</ele>
        <time>2012-12-20T12:12:07Z</time>
      </trkpt>
      <trkpt lat="43.89197" lon="1.82696">
        <ele>137</ele>
        <time>2012-12-20T12:12:15Z</time>
      </trkpt>
      <trkpt lat="43.89207" lon="1.82695">
        <ele>137</ele>
        <time>2012-12-20T12:12:23Z</time>
      </trkpt>
      <trkpt lat="43.89217" lon="1.82699">
        <ele>137</ele>
        <time>2012-12-20T12:12:33Z</time>
      </trkpt>
      <trkpt lat="43.89227" lon="1.82704">
        <ele>138</ele>
        <time>2012-12-20T12:12:43Z</time>
      </trkpt>
      <trkpt lat="43.89235" lon="1.82711">
        <ele>138</ele>
        <time>2012-12-20T12:12:54Z</time>
      </trkpt>
      <trkpt lat="43.89244" lon="1.82716">
        <ele>137</ele>
        <time>2012-12-20T12:13:05Z</time>
      </trkpt>
      <trkpt lat="43.8925" lon="1.82721">
        <ele>138</ele>
        <time>2012-12-20T12:13:13Z</time>
      </trkpt>
      <trkpt lat="43.89258" lon="1.82729">
        <ele>139</ele>
        <time>2012-12-20T12:13:22Z</time>
      </trkpt>
      <trkpt lat="43.89265" lon="1.82735">
        <ele>138</ele>
        <time>2012-12-20T12:13:31Z</time>
      </trkpt>
      <trkpt lat="43.89269" lon="1.82738">
        <ele>138</ele>
        <time>2012-12-20T12:13:36Z</time>
      </trkpt>
      <trkpt lat="43.89275" lon="1.82741">
        <ele>137</ele>
        <time>2012-12-20T12:13:43Z</time>
      </trkpt>
      <trkpt lat="43.89282" lon="1.82745">
        <ele>137</ele>
        <time>2012-12-20T12:13:50Z</time>
      </trkpt>
      <trkpt lat="43.8929" lon="1.8275">
        <ele>139</ele>
        <time>2012-12-20T12:13:58Z</time>
      </trkpt>
      <trkpt lat="43.893" lon="1.82753">
        <ele>139</ele>
        <time>2012-12-20T12:14:09Z</time>
      </trkpt>
      <trkpt lat="43.89307" lon="1.82761">
        <ele>139</ele>
        <time>2012-12-20T12:14:18Z</time>
      </trkpt>
      <trkpt lat="43.89311" lon="1.82765">
        <ele>139</ele>
        <time>2012-12-20T12:14:22Z</time>
      </trkpt>
      <trkpt lat="43.89315" lon="1.82768">
        <ele>140</ele>
        <time>2012-12-20T12:14:27Z</time>
      </trkpt>
      <trkpt lat="43.89319" lon="1.82771">
        <ele>140</ele>
        <time>2012-12-20T12:14:33Z</time>
      </trkpt>
      <trkpt lat="43.8933" lon="1.82781">
        <ele>138</ele>
        <time>2012-12-20T12:14:51Z</time>
      </trkpt>
      <trkpt lat="43.89338" lon="1.82786">
        <ele>138</ele>
        <time>2012-12-20T12:15:00Z</time>
      </trkpt>
      <trkpt lat="43.8935" lon="1.82789">
        <ele>136</ele>
        <time>2012-12-20T12:15:13Z</time>
      </trkpt>
      <trkpt lat="43.89359" lon="1.82792">
        <ele>136</ele>
        <time>2012-12-20T12:15:22Z</time>
      </trkpt>
      <trkpt lat="43.89365" lon="1.82796">
        <ele>136</ele>
        <time>2012-12-20T12:15:30Z</time>
      </trkpt>
      <trkpt lat="43.89369" lon="1.82797">
        <ele>136</ele>
        <time>2012-12-20T12:15:34Z</time>
      </trkpt>
      <trkpt lat="43.89374" lon="1.828">
        <ele>136</ele>
        <time>2012-12-20T12:15:40Z</time>
      </trkpt>
      <trkpt lat="43.89378" lon="1.82803">
        <ele>136</ele>
        <time>2012-12-20T12:15:45Z</time>
      </trkpt>
      <trkpt lat="43.89382" lon="1.82806">
        <ele>137</ele>
        <time>2012-12-20T12:15:50Z</time>
      </trkpt>
      <trkpt lat="43.89392" lon="1.8281">
        <ele>138</ele>
        <time>2012-12-20T12:16:02Z</time>
      </trkpt>
      <trkpt lat="43.89402" lon="1.82812">
        <ele>140</ele>
        <time>2012-12-20T12:16:13Z</time>
      </trkpt>
      <trkpt lat="43.89408" lon="1.82816">
        <ele>140</ele>
        <time>2012-12-20T12:16:18Z</time>
      </trkpt>
      <trkpt lat="43.89414" lon="1.8282">
        <ele>140</ele>
        <time>2012-12-20T12:16:32Z</time>
      </trkpt>
      <trkpt lat="43.89417" lon="1.82825">
        <ele>142</ele>
        <time>2012-12-20T12:16:48Z</time>
      </trkpt>
      <trkpt lat="43.89417" lon="1.82835">
        <ele>141</ele>
        <time>2012-12-20T12:17:24Z</time>
      </trkpt>
      <trkpt lat="43.89536" lon="1.83784">
        <ele>145.1</ele>
        <time>2012-12-20T12:31:13Z</time>
      </trkpt>
      <trkpt lat="43.89548" lon="1.83946">
        <ele>142</ele>
        <time>2012-12-20T12:31:58Z</time>
      </trkpt>
      <trkpt lat="43.89551" lon="1.83959">
        <ele>141</ele>
        <time>2012-12-20T12:32:10Z</time>
      </trkpt>
      <trkpt lat="43.89554" lon="1.83964">
        <ele>141</ele>
        <time>2012-12-20T12:32:15Z</time>
      </trkpt>
      <trkpt lat="43.89555" lon="1.83971">
        <ele>140</ele>
        <time>2012-12-20T12:32:24Z</time>
      </trkpt>
      <trkpt lat="43.8956" lon="1.83985">
        <ele>140</ele>
        <time>2012-12-20T12:32:34Z</time>
      </trkpt>
      <trkpt lat="43.89562" lon="1.83997">
        <ele>141</ele>
        <time>2012-12-20T12:32:40Z</time>
      </trkpt>
      <trkpt lat="43.89567" lon="1.84009">
        <ele>142</ele>
        <time>2012-12-20T12:32:47Z</time>
      </trkpt>
      <trkpt lat="43.89569" lon="1.84014">
        <ele>140</ele>
        <time>2012-12-20T12:32:53Z</time>
      </trkpt>
      <trkpt lat="43.89571" lon="1.84025">
        <ele>141</ele>
        <time>2012-12-20T12:32:59Z</time>
      </trkpt>
      <trkpt lat="43.89572" lon="1.84033">
        <ele>141</ele>
        <time>2012-12-20T12:33:02Z</time>
      </trkpt>
      <trkpt lat="43.89572" lon="1.84039">
        <ele>141</ele>
        <time>2012-12-20T12:33:05Z</time>
      </trkpt>
      <trkpt lat="43.89575" lon="1.84046">
        <ele>143</ele>
        <time>2012-12-20T12:33:12Z</time>
      </trkpt>
      <trkpt lat="43.89584" lon="1.84055">
        <ele>142</ele>
        <time>2012-12-20T12:33:31Z</time>
      </trkpt>
      <trkpt lat="43.89589" lon="1.84067">
        <ele>140</ele>
        <time>2012-12-20T12:33:40Z</time>
      </trkpt>
      <trkpt lat="43.89593" lon="1.8408">
        <ele>139</ele>
        <time>2012-12-20T12:33:47Z</time>
      </trkpt>
      <trkpt lat="43.89597" lon="1.84092">
        <ele>137</ele>
        <time>2012-12-20T12:33:53Z</time>
      </trkpt>
      <trkpt lat="43.89601" lon="1.84105">
        <ele>137</ele>
        <time>2012-12-20T12:34:00Z</time>
      </trkpt>
      <trkpt lat="43.89602" lon="1.8412">
        <ele>138</ele>
        <time>2012-12-20T12:34:06Z</time>
      </trkpt>
      <trkpt lat="43.89603" lon="1.84127">
        <ele>139</ele>
        <time>2012-12-20T12:34:09Z</time>
      </trkpt>
      <trkpt lat="43.89603" lon="1.84133">
        <ele>138</ele>
        <time>2012-12-20T12:34:19Z</time>
      </trkpt>
      <trkpt lat="43.896" lon="1.84138">
        <ele>139</ele>
        <time>2012-12-20T12:34:24Z</time>
      </trkpt>
      <trkpt lat="43.89594" lon="1.84143">
        <ele>139</ele>
        <time>2012-12-20T12:34:33Z</time>
      </trkpt>
      <trkpt lat="43.89587" lon="1.84144">
        <ele>140</ele>
        <time>2012-12-20T12:34:39Z</time>
      </trkpt>
      <trkpt lat="43.89581" lon="1.84145">
        <ele>140</ele>
        <time>2012-12-20T12:34:43Z</time>
      </trkpt>
      <trkpt lat="43.89576" lon="1.84147">
        <ele>141</ele>
        <time>2012-12-20T12:34:48Z</time>
      </trkpt>
      <trkpt lat="43.89571" lon="1.8415">
        <ele>142</ele>
        <time>2012-12-20T12:34:52Z</time>
      </trkpt>
      <trkpt lat="43.89565" lon="1.84152">
        <ele>142</ele>
        <time>2012-12-20T12:34:58Z</time>
      </trkpt>
      <trkpt lat="43.89561" lon="1.84155">
        <ele>141</ele>
        <time>2012-12-20T12:35:03Z</time>
      </trkpt>
      <trkpt lat="43.89556" lon="1.84157">
        <ele>141</ele>
        <time>2012-12-20T12:35:07Z</time>
      </trkpt>
      <trkpt lat="43.89549" lon="1.84161">
        <ele>142</ele>
        <time>2012-12-20T12:35:14Z</time>
      </trkpt>
      <trkpt lat="43.89546" lon="1.84166">
        <ele>142</ele>
        <time>2012-12-20T12:35:19Z</time>
      </trkpt>
      <trkpt lat="43.89541" lon="1.84169">
        <ele>141</ele>
        <time>2012-12-20T12:35:24Z</time>
      </trkpt>
      <trkpt lat="43.89532" lon="1.84174">
        <ele>140</ele>
        <time>2012-12-20T12:35:33Z</time>
      </trkpt>
      <trkpt lat="43.89524" lon="1.84178">
        <ele>140</ele>
        <time>2012-12-20T12:35:41Z</time>
      </trkpt>
      <trkpt lat="43.89515" lon="1.84183">
        <ele>139</ele>
        <time>2012-12-20T12:35:50Z</time>
      </trkpt>
      <trkpt lat="43.89509" lon="1.84193">
        <ele>138</ele>
        <time>2012-12-20T12:36:02Z</time>
      </trkpt>
      <trkpt lat="43.89499" lon="1.84197">
        <ele>136</ele>
        <time>2012-12-20T12:36:11Z</time>
      </trkpt>
      <trkpt lat="43.8949" lon="1.84201">
        <ele>135</ele>
        <time>2012-12-20T12:36:22Z</time>
      </trkpt>
      <trkpt lat="43.89484" lon="1.84206">
        <ele>135</ele>
        <time>2012-12-20T12:36:27Z</time>
      </trkpt>
      <trkpt lat="43.89475" lon="1.84211">
        <ele>134</ele>
        <time>2012-12-20T12:36:39Z</time>
      </trkpt>
      <trkpt lat="43.89465" lon="1.84211">
        <ele>134</ele>
        <time>2012-12-20T12:36:48Z</time>
      </trkpt>
      <trkpt lat="43.8946" lon="1.84213">
        <ele>134</ele>
        <time>2012-12-20T12:36:53Z</time>
      </trkpt>
      <trkpt lat="43.89454" lon="1.84221">
        <ele>133</ele>
        <time>2012-12-20T12:37:01Z</time>
      </trkpt>
      <trkpt lat="43.89445" lon="1.84226">
        <ele>133</ele>
        <time>2012-12-20T12:37:11Z</time>
      </trkpt>
      <trkpt lat="43.89435" lon="1.84232">
        <ele>133</ele>
        <time>2012-12-20T12:37:23Z</time>
      </trkpt>
      <trkpt lat="43.89424" lon="1.84237">
        <ele>132</ele>
        <time>2012-12-20T12:37:32Z</time>
      </trkpt>
      <trkpt lat="43.89416" lon="1.84243">
        <ele>131</ele>
        <time>2012-12-20T12:37:40Z</time>
      </trkpt>
      <trkpt lat="43.89406" lon="1.84248">
        <ele>133</ele>
        <time>2012-12-20T12:37:50Z</time>
      </trkpt>
      <trkpt lat="43.89399" lon="1.84256">
        <ele>133</ele>
        <time>2012-12-20T12:38:00Z</time>
      </trkpt>
      <trkpt lat="43.8939" lon="1.84262">
        <ele>133</ele>
        <time>2012-12-20T12:38:11Z</time>
      </trkpt>
      <trkpt lat="43.89377" lon="1.84261">
        <ele>136</ele>
        <time>2012-12-20T12:38:25Z</time>
      </trkpt>
      <trkpt lat="43.89365" lon="1.84271">
        <ele>139</ele>
        <time>2012-12-20T12:38:39Z</time>
      </trkpt>
      <trkpt lat="43.89354" lon="1.84277">
        <ele>139</ele>
        <time>2012-12-20T12:38:53Z</time>
      </trkpt>
      <trkpt lat="43.89344" lon="1.8428">
        <ele>140</ele>
        <time>2012-12-20T12:39:00Z</time>
      </trkpt>
      <trkpt lat="43.89334" lon="1.84286">
        <ele>139</ele>
        <time>2012-12-20T12:39:10Z</time>
      </trkpt>
      <trkpt lat="43.89317" lon="1.84291">
        <ele>138</ele>
        <time>2012-12-20T12:39:28Z</time>
      </trkpt>
      <trkpt lat="43.89307" lon="1.84294">
        <ele>136</ele>
        <time>2012-12-20T12:39:35Z</time>
      </trkpt>
      <trkpt lat="43.89298" lon="1.84294">
        <ele>135</ele>
        <time>2012-12-20T12:39:40Z</time>
      </trkpt>
      <trkpt lat="43.89288" lon="1.84302">
        <ele>132</ele>
        <time>2012-12-20T12:39:57Z</time>
      </trkpt>
      <trkpt lat="43.89279" lon="1.84304">
        <ele>132</ele>
        <time>2012-12-20T12:40:03Z</time>
      </trkpt>
      <trkpt lat="43.8927" lon="1.84308">
        <ele>132</ele>
        <time>2012-12-20T12:40:12Z</time>
      </trkpt>
      <trkpt lat="43.89261" lon="1.84312">
        <ele>131</ele>
        <time>2012-12-20T12:40:19Z</time>
      </trkpt>
      <trkpt lat="43.89252" lon="1.84316">
        <ele>131</ele>
        <time>2012-12-20T12:40:27Z</time>
      </trkpt>
      <trkpt lat="43.89244" lon="1.84322">
        <ele>131</ele>
        <time>2012-12-20T12:40:36Z</time>
      </trkpt>
      <trkpt lat="43.89235" lon="1.8433">
        <ele>130</ele>
        <time>2012-12-20T12:40:45Z</time>
      </trkpt>
      <trkpt lat="43.89229" lon="1.8434">
        <ele>129</ele>
        <time>2012-12-20T12:40:53Z</time>
      </trkpt>
      <trkpt lat="43.89221" lon="1.84346">
        <ele>127</ele>
        <time>2012-12-20T12:41:01Z</time>
      </trkpt>
      <trkpt lat="43.89214" lon="1.84356">
        <ele>126</ele>
        <time>2012-12-20T12:41:09Z</time>
      </trkpt>
      <trkpt lat="43.89208" lon="1.84366">
        <ele>123</ele>
        <time>2012-12-20T12:41:19Z</time>
      </trkpt>
      <trkpt lat="43.89203" lon="1.8438">
        <ele>122</ele>
        <time>2012-12-20T12:41:29Z</time>
      </trkpt>
      <trkpt lat="43.89198" lon="1.84393">
        <ele>122</ele>
        <time>2012-12-20T12:41:36Z</time>
      </trkpt>
      <trkpt lat="43.89192" lon="1.84406">
        <ele>121</ele>
        <time>2012-12-20T12:41:45Z</time>
      </trkpt>
      <trkpt lat="43.89186" lon="1.84418">
        <ele>118</ele>
        <time>2012-12-20T12:41:59Z</time>
      </trkpt>
      <trkpt lat="43.89183" lon="1.8443">
        <ele>117</ele>
        <time>2012-12-20T12:42:10Z</time>
      </trkpt>
      <trkpt lat="43.89178" lon="1.84442">
        <ele>117</ele>
        <time>2012-12-20T12:42:17Z</time>
      </trkpt>
      <trkpt lat="43.89171" lon="1.84452">
        <ele>118</ele>
        <time>2012-12-20T12:42:24Z</time>
      </trkpt>
      <trkpt lat="43.89165" lon="1.84462">
        <ele>117</ele>
        <time>2012-12-20T12:42:31Z</time>
      </trkpt>
      <trkpt lat="43.89158" lon="1.84471">
        <ele>119</ele>
        <time>2012-12-20T12:42:38Z</time>
      </trkpt>
      <trkpt lat="43.89152" lon="1.84482">
        <ele>123</ele>
        <time>2012-12-20T12:42:47Z</time>
      </trkpt>
      <trkpt lat="43.89135" lon="1.8451">
        <ele>135</ele>
        <time>2012-12-20T12:43:10Z</time>
      </trkpt>
      <trkpt lat="43.89132" lon="1.84515">
        <ele>135</ele>
        <time>2012-12-20T12:43:14Z</time>
      </trkpt>
      <trkpt lat="43.89129" lon="1.8452">
        <ele>135</ele>
        <time>2012-12-20T12:43:18Z</time>
      </trkpt>
      <trkpt lat="43.89126" lon="1.84526">
        <ele>134</ele>
        <time>2012-12-20T12:43:23Z</time>
      </trkpt>
      <trkpt lat="43.89123" lon="1.84531">
        <ele>134</ele>
        <time>2012-12-20T12:43:28Z</time>
      </trkpt>
      <trkpt lat="43.89119" lon="1.84536">
        <ele>132</ele>
        <time>2012-12-20T12:43:33Z</time>
      </trkpt>
      <trkpt lat="43.89114" lon="1.84543">
        <ele>131</ele>
        <time>2012-12-20T12:43:38Z</time>
      </trkpt>
      <trkpt lat="43.89109" lon="1.84547">
        <ele>130</ele>
        <time>2012-12-20T12:43:42Z</time>
      </trkpt>
      <trkpt lat="43.89105" lon="1.84552">
        <ele>130</ele>
        <time>2012-12-20T12:43:47Z</time>
      </trkpt>
      <trkpt lat="43.89102" lon="1.84558">
        <ele>129</ele>
        <time>2012-12-20T12:43:51Z</time>
      </trkpt>
      <trkpt lat="43.89096" lon="1.84568">
        <ele>128</ele>
        <time>2012-12-20T12:44:00Z</time>
      </trkpt>
      <trkpt lat="43.89088" lon="1.84576">
        <ele>130</ele>
        <time>2012-12-20T12:44:11Z</time>
      </trkpt>
      <trkpt lat="43.89081" lon="1.84585">
        <ele>133</ele>
        <time>2012-12-20T12:44:20Z</time>
      </trkpt>
      <trkpt lat="43.89076" lon="1.84586">
        <ele>135</ele>
        <time>2012-12-20T12:44:48Z</time>
      </trkpt>
      <trkpt lat="43.89067" lon="1.84599">
        <ele>137</ele>
        <time>2012-12-20T12:45:01Z</time>
      </trkpt>
      <trkpt lat="43.8906" lon="1.84607">
        <ele>138</ele>
        <time>2012-12-20T12:45:10Z</time>
      </trkpt>
      <trkpt lat="43.89053" lon="1.84615">
        <ele>137</ele>
        <time>2012-12-20T12:45:20Z</time>
      </trkpt>
      <trkpt lat="43.89045" lon="1.84625">
        <ele>136</ele>
        <time>2012-12-20T12:45:29Z</time>
      </trkpt>
      <trkpt lat="43.89035" lon="1.84627">
        <ele>134</ele>
        <time>2012-12-20T12:45:36Z</time>
      </trkpt>
      <trkpt lat="43.89028" lon="1.84638">
        <ele>135</ele>
        <time>2012-12-20T12:45:44Z</time>
      </trkpt>
      <trkpt lat="43.89022" lon="1.84649">
        <ele>137</ele>
        <time>2012-12-20T12:45:52Z</time>
      </trkpt>
      <trkpt lat="43.89016" lon="1.84658">
        <ele>141</ele>
        <time>2012-12-20T12:46:00Z</time>
      </trkpt>
      <trkpt lat="43.89007" lon="1.84663">
        <ele>139</ele>
        <time>2012-12-20T12:46:09Z</time>
      </trkpt>
      <trkpt lat="43.88999" lon="1.8467">
        <ele>139</ele>
        <time>2012-12-20T12:46:16Z</time>
      </trkpt>
      <trkpt lat="43.88991" lon="1.84678">
        <ele>138</ele>
        <time>2012-12-20T12:46:26Z</time>
      </trkpt>
      <trkpt lat="43.88984" lon="1.84685">
        <ele>137</ele>
        <time>2012-12-20T12:46:33Z</time>
      </trkpt>
      <trkpt lat="43.88975" lon="1.84691">
        <ele>137</ele>
        <time>2012-12-20T12:46:42Z</time>
      </trkpt>
      <trkpt lat="43.88969" lon="1.84701">
        <ele>136</ele>
        <time>2012-12-20T12:46:50Z</time>
      </trkpt>
      <trkpt lat="43.88964" lon="1.84707">
        <ele>136</ele>
        <time>2012-12-20T12:46:55Z</time>
      </trkpt>
      <trkpt lat="43.8896" lon="1.84711">
        <ele>135</ele>
        <time>2012-12-20T12:46:59Z</time>
      </trkpt>
      <trkpt lat="43.88956" lon="1.84715">
        <ele>134</ele>
        <time>2012-12-20T12:47:05Z</time>
      </trkpt>
      <trkpt lat="43.88952" lon="1.84718">
        <ele>134</ele>
        <time>2012-12-20T12:47:10Z</time>
      </trkpt>
      <trkpt lat="43.88947" lon="1.84722">
        <ele>134</ele>
        <time>2012-12-20T12:47:15Z</time>
      </trkpt>
      <trkpt lat="43.88943" lon="1.84726">
        <ele>134</ele>
        <time>2012-12-20T12:47:19Z</time>
      </trkpt>
      <trkpt lat="43.8894" lon="1.84731">
        <ele>134</ele>
        <time>2012-12-20T12:47:23Z</time>
      </trkpt>
      <trkpt lat="43.88932" lon="1.84734">
        <ele>136</ele>
        <time>2012-12-20T12:47:30Z</time>
      </trkpt>
      <trkpt lat="43.88927" lon="1.84736">
        <ele>136</ele>
        <time>2012-12-20T12:47:35Z</time>
      </trkpt>
      <trkpt lat="43.88923" lon="1.84739">
        <ele>135</ele>
        <time>2012-12-20T12:47:39Z</time>
      </trkpt>
      <trkpt lat="43.88918" lon="1.8474">
        <ele>135</ele>
        <time>2012-12-20T12:47:43Z</time>
      </trkpt>
      <trkpt lat="43.88909" lon="1.84744">
        <ele>135</ele>
        <time>2012-12-20T12:47:50Z</time>
      </trkpt>
      <trkpt lat="43.88904" lon="1.84746">
        <ele>134</ele>
        <time>2012-12-20T12:47:54Z</time>
      </trkpt>
      <trkpt lat="43.889" lon="1.84748">
        <ele>134</ele>
        <time>2012-12-20T12:47:58Z</time>
      </trkpt>
      <trkpt lat="43.8889" lon="1.84755">
        <ele>136</ele>
        <time>2012-12-20T12:48:08Z</time>
      </trkpt>
      <trkpt lat="43.88881" lon="1.84758">
        <ele>134</ele>
        <time>2012-12-20T12:48:16Z</time>
      </trkpt>
      <trkpt lat="43.88876" lon="1.84761">
        <ele>133</ele>
        <time>2012-12-20T12:48:22Z</time>
      </trkpt>
      <trkpt lat="43.88872" lon="1.84763">
        <ele>133</ele>
        <time>2012-12-20T12:48:27Z</time>
      </trkpt>
      <trkpt lat="43.88867" lon="1.84765">
        <ele>134</ele>
        <time>2012-12-20T12:48:31Z</time>
      </trkpt>
      <trkpt lat="43.88862" lon="1.84769">
        <ele>136</ele>
        <time>2012-12-20T12:48:36Z</time>
      </trkpt>
      <trkpt lat="43.88857" lon="1.84771">
        <ele>136</ele>
        <time>2012-12-20T12:48:40Z</time>
      </trkpt>
      <trkpt lat="43.88852" lon="1.84774">
        <ele>136</ele>
        <time>2012-12-20T12:48:45Z</time>
      </trkpt>
      <trkpt lat="43.88848" lon="1.84777">
        <ele>135</ele>
        <time>2012-12-20T12:48:49Z</time>
      </trkpt>
      <trkpt lat="43.88843" lon="1.8478">
        <ele>135</ele>
        <time>2012-12-20T12:48:52Z</time>
      </trkpt>
      <trkpt lat="43.88834" lon="1.84784">
        <ele>136</ele>
        <time>2012-12-20T12:49:00Z</time>
      </trkpt>
      <trkpt lat="43.88824" lon="1.8479">
        <ele>135</ele>
        <time>2012-12-20T12:49:10Z</time>
      </trkpt>
      <trkpt lat="43.88816" lon="1.84798">
        <ele>134</ele>
        <time>2012-12-20T12:49:19Z</time>
      </trkpt>
      <trkpt lat="43.88805" lon="1.84801">
        <ele>134</ele>
        <time>2012-12-20T12:49:28Z</time>
      </trkpt>
      <trkpt lat="43.88796" lon="1.84805">
        <ele>134</ele>
        <time>2012-12-20T12:49:38Z</time>
      </trkpt>
      <trkpt lat="43.88786" lon="1.84806">
        <ele>133</ele>
        <time>2012-12-20T12:49:45Z</time>
      </trkpt>
      <trkpt lat="43.88776" lon="1.84809">
        <ele>132</ele>
        <time>2012-12-20T12:49:54Z</time>
      </trkpt>
      <trkpt lat="43.88767" lon="1.84814">
        <ele>132</ele>
        <time>2012-12-20T12:50:02Z</time>
      </trkpt>
      <trkpt lat="43.88755" lon="1.84817">
        <ele>131</ele>
        <time>2012-12-20T12:50:10Z</time>
      </trkpt>
      <trkpt lat="43.8875" lon="1.84818">
        <ele>129</ele>
        <time>2012-12-20T12:50:15Z</time>
      </trkpt>
      <trkpt lat="43.88745" lon="1.84821">
        <ele>129</ele>
        <time>2012-12-20T12:50:20Z</time>
      </trkpt>
      <trkpt lat="43.88741" lon="1.84823">
        <ele>128</ele>
        <time>2012-12-20T12:50:23Z</time>
      </trkpt>
      <trkpt lat="43.88737" lon="1.84825">
        <ele>128</ele>
        <time>2012-12-20T12:50:27Z</time>
      </trkpt>
      <trkpt lat="43.88732" lon="1.84827">
        <ele>129</ele>
        <time>2012-12-20T12:50:32Z</time>
      </trkpt>
      <trkpt lat="43.88727" lon="1.84829">
        <ele>131</ele>
        <time>2012-12-20T12:50:37Z</time>
      </trkpt>
      <trkpt lat="43.88722" lon="1.84831">
        <ele>131</ele>
        <time>2012-12-20T12:50:43Z</time>
      </trkpt>
      <trkpt lat="43.88714" lon="1.8484">
        <ele>129</ele>
        <time>2012-12-20T12:50:52Z</time>
      </trkpt>
      <trkpt lat="43.88706" lon="1.84846">
        <ele>127</ele>
        <time>2012-12-20T12:51:00Z</time>
      </trkpt>
      <trkpt lat="43.88696" lon="1.84851">
        <ele>124</ele>
        <time>2012-12-20T12:51:07Z</time>
      </trkpt>
      <trkpt lat="43.88688" lon="1.84858">
        <ele>126</ele>
        <time>2012-12-20T12:51:16Z</time>
      </trkpt>
      <trkpt lat="43.88678" lon="1.84857">
        <ele>129</ele>
        <time>2012-12-20T12:51:23Z</time>
      </trkpt>
      <trkpt lat="43.88668" lon="1.84856">
        <ele>131</ele>
        <time>2012-12-20T12:51:30Z</time>
      </trkpt>
      <trkpt lat="43.88663" lon="1.84857">
        <ele>132</ele>
        <time>2012-12-20T12:51:34Z</time>
      </trkpt>
      <trkpt lat="43.88653" lon="1.84857">
        <ele>134</ele>
        <time>2012-12-20T12:51:43Z</time>
      </trkpt>
      <trkpt lat="43.88648" lon="1.84857">
        <ele>133</ele>
        <time>2012-12-20T12:51:48Z</time>
      </trkpt>
      <trkpt lat="43.88639" lon="1.8486">
        <ele>132</ele>
        <time>2012-12-20T12:51:58Z</time>
      </trkpt>
      <trkpt lat="43.88628" lon="1.84861">
        <ele>134</ele>
        <time>2012-12-20T12:52:08Z</time>
      </trkpt>
      <trkpt lat="43.88619" lon="1.84856">
        <ele>135</ele>
        <time>2012-12-20T12:52:14Z</time>
      </trkpt>
      <trkpt lat="43.88609" lon="1.84852">
        <ele>132</ele>
        <time>2012-12-20T12:52:21Z</time>
      </trkpt>
      <trkpt lat="43.88604" lon="1.8485">
        <ele>132</ele>
        <time>2012-12-20T12:52:25Z</time>
      </trkpt>
      <trkpt lat="43.88595" lon="1.84847">
        <ele>133</ele>
        <time>2012-12-20T12:52:33Z</time>
      </trkpt>
      <trkpt lat="43.88586" lon="1.84843">
        <ele>133</ele>
        <time>2012-12-20T12:52:40Z</time>
      </trkpt>
      <trkpt lat="43.88577" lon="1.8484">
        <ele>132</ele>
        <time>2012-12-20T12:52:46Z</time>
      </trkpt>
      <trkpt lat="43.88568" lon="1.84841">
        <ele>132</ele>
        <time>2012-12-20T12:52:53Z</time>
      </trkpt>
      <trkpt lat="43.88558" lon="1.84838">
        <ele>132</ele>
        <time>2012-12-20T12:53:00Z</time>
      </trkpt>
      <trkpt lat="43.88547" lon="1.8484">
        <ele>130</ele>
        <time>2012-12-20T12:53:14Z</time>
      </trkpt>
      <trkpt lat="43.88539" lon="1.84845">
        <ele>130</ele>
        <time>2012-12-20T12:53:21Z</time>
      </trkpt>
      <trkpt lat="43.88534" lon="1.84841">
        <ele>129</ele>
        <time>2012-12-20T12:53:34Z</time>
      </trkpt>
      <trkpt lat="43.88532" lon="1.84823">
        <ele>130</ele>
        <time>2012-12-20T12:53:42Z</time>
      </trkpt>
      <trkpt lat="43.88529" lon="1.84812">
        <ele>132</ele>
        <time>2012-12-20T12:53:48Z</time>
      </trkpt>
      <trkpt lat="43.88527" lon="1.84797">
        <ele>134</ele>
        <time>2012-12-20T12:53:52Z</time>
      </trkpt>
      <trkpt lat="43.88526" lon="1.84784">
        <ele>136</ele>
        <time>2012-12-20T12:53:58Z</time>
      </trkpt>
      <trkpt lat="43.88525" lon="1.84772">
        <ele>136</ele>
        <time>2012-12-20T12:54:18Z</time>
      </trkpt>
      <trkpt lat="43.88523" lon="1.84759">
        <ele>136</ele>
        <time>2012-12-20T12:54:26Z</time>
      </trkpt>
      <trkpt lat="43.88518" lon="1.84747">
        <ele>136</ele>
        <time>2012-12-20T12:54:33Z</time>
      </trkpt>
      <trkpt lat="43.88518" lon="1.84734">
        <ele>133</ele>
        <time>2012-12-20T12:54:41Z</time>
      </trkpt>
      <trkpt lat="43.88517" lon="1.84721">
        <ele>131</ele>
        <time>2012-12-20T12:54:50Z</time>
      </trkpt>
      <trkpt lat="43.88516" lon="1.84708">
        <ele>134</ele>
        <time>2012-12-20T12:55:07Z</time>
      </trkpt>
      <trkpt lat="43.88509" lon="1.84694">
        <ele>136</ele>
        <time>2012-12-20T12:55:21Z</time>
      </trkpt>
      <trkpt lat="43.88507" lon="1.84687">
        <ele>135</ele>
        <time>2012-12-20T12:55:27Z</time>
      </trkpt>
      <trkpt lat="43.88505" lon="1.84679">
        <ele>134</ele>
        <time>2012-12-20T12:55:31Z</time>
      </trkpt>
      <trkpt lat="43.88504" lon="1.84673">
        <ele>132</ele>
        <time>2012-12-20T12:55:35Z</time>
      </trkpt>
      <trkpt lat="43.88502" lon="1.84666">
        <ele>130</ele>
        <time>2012-12-20T12:55:40Z</time>
      </trkpt>
      <trkpt lat="43.88498" lon="1.84656">
        <ele>129</ele>
        <time>2012-12-20T12:55:46Z</time>
      </trkpt>
      <trkpt lat="43.88496" lon="1.8465">
        <ele>129</ele>
        <time>2012-12-20T12:55:50Z</time>
      </trkpt>
      <trkpt lat="43.88493" lon="1.84642">
        <ele>129</ele>
        <time>2012-12-20T12:55:57Z</time>
      </trkpt>
      <trkpt lat="43.8849" lon="1.84635">
        <ele>128</ele>
        <time>2012-12-20T12:56:02Z</time>
      </trkpt>
      <trkpt lat="43.88486" lon="1.84623">
        <ele>128</ele>
        <time>2012-12-20T12:56:08Z</time>
      </trkpt>
      <trkpt lat="43.88484" lon="1.84617">
        <ele>129</ele>
        <time>2012-12-20T12:56:13Z</time>
      </trkpt>
      <trkpt lat="43.8848" lon="1.84605">
        <ele>133</ele>
        <time>2012-12-20T12:56:23Z</time>
      </trkpt>
      <trkpt lat="43.88478" lon="1.84599">
        <ele>132</ele>
        <time>2012-12-20T12:56:28Z</time>
      </trkpt>
      <trkpt lat="43.88476" lon="1.84593">
        <ele>132</ele>
        <time>2012-12-20T12:56:32Z</time>
      </trkpt>
      <trkpt lat="43.88473" lon="1.84586">
        <ele>132</ele>
        <time>2012-12-20T12:56:36Z</time>
      </trkpt>
      <trkpt lat="43.88471" lon="1.8458">
        <ele>132</ele>
        <time>2012-12-20T12:56:40Z</time>
      </trkpt>
      <trkpt lat="43.88468" lon="1.84573">
        <ele>133</ele>
        <time>2012-12-20T12:56:45Z</time>
      </trkpt>
      <trkpt lat="43.88465" lon="1.84566">
        <ele>132</ele>
        <time>2012-12-20T12:56:51Z</time>
      </trkpt>
      <trkpt lat="43.88462" lon="1.84559">
        <ele>132</ele>
        <time>2012-12-20T12:56:56Z</time>
      </trkpt>
      <trkpt lat="43.88459" lon="1.84552">
        <ele>133</ele>
        <time>2012-12-20T12:57:00Z</time>
      </trkpt>
      <trkpt lat="43.88457" lon="1.84547">
        <ele>132</ele>
        <time>2012-12-20T12:57:03Z</time>
      </trkpt>
      <trkpt lat="43.88454" lon="1.84541">
        <ele>132</ele>
        <time>2012-12-20T12:57:07Z</time>
      </trkpt>
      <trkpt lat="43.8845" lon="1.84536">
        <ele>132</ele>
        <time>2012-12-20T12:57:11Z</time>
      </trkpt>
      <trkpt lat="43.88445" lon="1.84529">
        <ele>131</ele>
        <time>2012-12-20T12:57:16Z</time>
      </trkpt>
      <trkpt lat="43.88442" lon="1.84515">
        <ele>131</ele>
        <time>2012-12-20T12:57:25Z</time>
      </trkpt>
      <trkpt lat="43.88439" lon="1.84507">
        <ele>132</ele>
        <time>2012-12-20T12:57:31Z</time>
      </trkpt>
      <trkpt lat="43.88437" lon="1.84502">
        <ele>131</ele>
        <time>2012-12-20T12:57:36Z</time>
      </trkpt>
      <trkpt lat="43.88434" lon="1.84495">
        <ele>130</ele>
        <time>2012-12-20T12:57:40Z</time>
      </trkpt>
      <trkpt lat="43.88434" lon="1.84487">
        <ele>130</ele>
        <time>2012-12-20T12:57:45Z</time>
      </trkpt>
      <trkpt lat="43.88432" lon="1.84472">
        <ele>129</ele>
        <time>2012-12-20T12:57:54Z</time>
      </trkpt>
      <trkpt lat="43.88427" lon="1.84461">
        <ele>130</ele>
        <time>2012-12-20T12:58:02Z</time>
      </trkpt>
      <trkpt lat="43.88424" lon="1.84449">
        <ele>129</ele>
        <time>2012-12-20T12:58:10Z</time>
      </trkpt>
      <trkpt lat="43.88421" lon="1.84436">
        <ele>129</ele>
        <time>2012-12-20T12:58:18Z</time>
      </trkpt>
      <trkpt lat="43.88419" lon="1.8443">
        <ele>128</ele>
        <time>2012-12-20T12:58:22Z</time>
      </trkpt>
      <trkpt lat="43.88417" lon="1.84424">
        <ele>127</ele>
        <time>2012-12-20T12:58:27Z</time>
      </trkpt>
      <trkpt lat="43.88415" lon="1.84414">
        <ele>128</ele>
        <time>2012-12-20T12:58:32Z</time>
      </trkpt>
      <trkpt lat="43.88413" lon="1.84409">
        <ele>128</ele>
        <time>2012-12-20T12:58:35Z</time>
      </trkpt>
      <trkpt lat="43.88411" lon="1.84402">
        <ele>127</ele>
        <time>2012-12-20T12:58:40Z</time>
      </trkpt>
      <trkpt lat="43.88412" lon="1.84395">
        <ele>128</ele>
        <time>2012-12-20T12:58:45Z</time>
      </trkpt>
      <trkpt lat="43.88411" lon="1.84388">
        <ele>129</ele>
        <time>2012-12-20T12:58:50Z</time>
      </trkpt>
      <trkpt lat="43.88409" lon="1.84381">
        <ele>130</ele>
        <time>2012-12-20T12:58:55Z</time>
      </trkpt>
      <trkpt lat="43.88409" lon="1.84374">
        <ele>131</ele>
        <time>2012-12-20T12:58:59Z</time>
      </trkpt>
      <trkpt lat="43.88407" lon="1.84367">
        <ele>130</ele>
        <time>2012-12-20T12:59:04Z</time>
      </trkpt>
      <trkpt lat="43.88405" lon="1.8436">
        <ele>129</ele>
        <time>2012-12-20T12:59:09Z</time>
      </trkpt>
      <trkpt lat="43.88405" lon="1.84352">
        <ele>131</ele>
        <time>2012-12-20T12:59:14Z</time>
      </trkpt>
      <trkpt lat="43.88403" lon="1.8434">
        <ele>132</ele>
        <time>2012-12-20T12:59:23Z</time>
      </trkpt>
      <trkpt lat="43.88399" lon="1.84328">
        <ele>132</ele>
        <time>2012-12-20T12:59:31Z</time>
      </trkpt>
      <trkpt lat="43.88397" lon="1.84315">
        <ele>131</ele>
        <time>2012-12-20T12:59:41Z</time>
      </trkpt>
      <trkpt lat="43.88394" lon="1.843">
        <ele>130</ele>
        <time>2012-12-20T12:59:52Z</time>
      </trkpt>
      <trkpt lat="43.88391" lon="1.84287">
        <ele>132</ele>
        <time>2012-12-20T12:59:58Z</time>
      </trkpt>
      <trkpt lat="43.8839" lon="1.84274">
        <ele>131</ele>
        <time>2012-12-20T13:00:06Z</time>
      </trkpt>
      <trkpt lat="43.88386" lon="1.8426">
        <ele>128</ele>
        <time>2012-12-20T13:00:17Z</time>
      </trkpt>
      <trkpt lat="43.88383" lon="1.84247">
        <ele>127</ele>
        <time>2012-12-20T13:00:26Z</time>
      </trkpt>
      <trkpt lat="43.8838" lon="1.84233">
        <ele>126</ele>
        <time>2012-12-20T13:00:36Z</time>
      </trkpt>
      <trkpt lat="43.88379" lon="1.84219">
        <ele>127</ele>
        <time>2012-12-20T13:00:45Z</time>
      </trkpt>
      <trkpt lat="43.88377" lon="1.84206">
        <ele>125</ele>
        <time>2012-12-20T13:00:53Z</time>
      </trkpt>
      <trkpt lat="43.88374" lon="1.842">
        <ele>124</ele>
        <time>2012-12-20T13:00:58Z</time>
      </trkpt>
      <trkpt lat="43.88373" lon="1.84194">
        <ele>125</ele>
        <time>2012-12-20T13:01:02Z</time>
      </trkpt>
      <trkpt lat="43.88371" lon="1.84181">
        <ele>126</ele>
        <time>2012-12-20T13:01:13Z</time>
      </trkpt>
      <trkpt lat="43.88367" lon="1.84169">
        <ele>128</ele>
        <time>2012-12-20T13:01:22Z</time>
      </trkpt>
      <trkpt lat="43.88363" lon="1.84156">
        <ele>129</ele>
        <time>2012-12-20T13:01:34Z</time>
      </trkpt>
      <trkpt lat="43.88362" lon="1.84148">
        <ele>130</ele>
        <time>2012-12-20T13:01:39Z</time>
      </trkpt>
      <trkpt lat="43.8836" lon="1.84135">
        <ele>130</ele>
        <time>2012-12-20T13:01:48Z</time>
      </trkpt>
      <trkpt lat="43.88355" lon="1.84122">
        <ele>130</ele>
        <time>2012-12-20T13:01:57Z</time>
      </trkpt>
      <trkpt lat="43.88353" lon="1.84115">
        <ele>131</ele>
        <time>2012-12-20T13:02:01Z</time>
      </trkpt>
      <trkpt lat="43.88347" lon="1.84105">
        <ele>131</ele>
        <time>2012-12-20T13:02:09Z</time>
      </trkpt>
      <trkpt lat="43.88344" lon="1.84093">
        <ele>132</ele>
        <time>2012-12-20T13:02:18Z</time>
      </trkpt>
      <trkpt lat="43.88342" lon="1.8408">
        <ele>131</ele>
        <time>2012-12-20T13:02:31Z</time>
      </trkpt>
      <trkpt lat="43.88341" lon="1.84074">
        <ele>130</ele>
        <time>2012-12-20T13:02:37Z</time>
      </trkpt>
      <trkpt lat="43.88339" lon="1.84068">
        <ele>129</ele>
        <time>2012-12-20T13:02:41Z</time>
      </trkpt>
      <trkpt lat="43.88336" lon="1.84061">
        <ele>129</ele>
        <time>2012-12-20T13:02:46Z</time>
      </trkpt>
      <trkpt lat="43.88331" lon="1.84053">
        <ele>130</ele>
        <time>2012-12-20T13:02:53Z</time>
      </trkpt>
      <trkpt lat="43.88331" lon="1.84045">
        <ele>130</ele>
        <time>2012-12-20T13:03:00Z</time>
      </trkpt>
      <trkpt lat="43.88329" lon="1.84039">
        <ele>129</ele>
        <time>2012-12-20T13:03:06Z</time>
      </trkpt>
      <trkpt lat="43.88327" lon="1.84031">
        <ele>129</ele>
        <time>2012-12-20T13:03:10Z</time>
      </trkpt>
      <trkpt lat="43.88325" lon="1.84024">
        <ele>129</ele>
        <time>2012-12-20T13:03:16Z</time>
      </trkpt>
      <trkpt lat="43.88323" lon="1.84017">
        <ele>129</ele>
        <time>2012-12-20T13:03:21Z</time>
      </trkpt>
      <trkpt lat="43.8832" lon="1.84011">
        <ele>129</ele>
        <time>2012-12-20T13:03:25Z</time>
      </trkpt>
      <trkpt lat="43.88318" lon="1.84006">
        <ele>130</ele>
        <time>2012-12-20T13:03:29Z</time>
      </trkpt>
      <trkpt lat="43.88315" lon="1.84">
        <ele>130</ele>
        <time>2012-12-20T13:03:33Z</time>
      </trkpt>
      <trkpt lat="43.88314" lon="1.83993">
        <ele>131</ele>
        <time>2012-12-20T13:03:38Z</time>
      </trkpt>
      <trkpt lat="43.88311" lon="1.83986">
        <ele>131</ele>
        <time>2012-12-20T13:03:42Z</time>
      </trkpt>
      <trkpt lat="43.88309" lon="1.8398">
        <ele>131</ele>
        <time>2012-12-20T13:03:47Z</time>
      </trkpt>
      <trkpt lat="43.88307" lon="1.83973">
        <ele>131</ele>
        <time>2012-12-20T13:03:52Z</time>
      </trkpt>
      <trkpt lat="43.88304" lon="1.83962">
        <ele>131</ele>
        <time>2012-12-20T13:04:00Z</time>
      </trkpt>
      <trkpt lat="43.88301" lon="1.83957">
        <ele>131</ele>
        <time>2012-12-20T13:04:04Z</time>
      </trkpt>
      <trkpt lat="43.883" lon="1.8395">
        <ele>131</ele>
        <time>2012-12-20T13:04:08Z</time>
      </trkpt>
      <trkpt lat="43.88297" lon="1.83944">
        <ele>131</ele>
        <time>2012-12-20T13:04:12Z</time>
      </trkpt>
      <trkpt lat="43.88294" lon="1.83938">
        <ele>129</ele>
        <time>2012-12-20T13:04:18Z</time>
      </trkpt>
      <trkpt lat="43.88291" lon="1.83932">
        <ele>128</ele>
        <time>2012-12-20T13:04:22Z</time>
      </trkpt>
      <trkpt lat="43.88289" lon="1.83925">
        <ele>127</ele>
        <time>2012-12-20T13:04:26Z</time>
      </trkpt>
      <trkpt lat="43.88285" lon="1.83914">
        <ele>125</ele>
        <time>2012-12-20T13:04:36Z</time>
      </trkpt>
      <trkpt lat="43.88283" lon="1.83901">
        <ele>126</ele>
        <time>2012-12-20T13:04:45Z</time>
      </trkpt>
      <trkpt lat="43.8828" lon="1.83888">
        <ele>125</ele>
        <time>2012-12-20T13:04:54Z</time>
      </trkpt>
      <trkpt lat="43.88279" lon="1.83875">
        <ele>128</ele>
        <time>2012-12-20T13:05:03Z</time>
      </trkpt>
      <trkpt lat="43.88277" lon="1.83862">
        <ele>128</ele>
        <time>2012-12-20T13:05:12Z</time>
      </trkpt>
      <trkpt lat="43.88274" lon="1.8385">
        <ele>129</ele>
        <time>2012-12-20T13:05:21Z</time>
      </trkpt>
      <trkpt lat="43.8827" lon="1.83839">
        <ele>129</ele>
        <time>2012-12-20T13:05:29Z</time>
      </trkpt>
      <trkpt lat="43.88268" lon="1.83826">
        <ele>129</ele>
        <time>2012-12-20T13:05:36Z</time>
      </trkpt>
      <trkpt lat="43.88263" lon="1.83813">
        <ele>128</ele>
        <time>2012-12-20T13:05:45Z</time>
      </trkpt>
      <trkpt lat="43.88261" lon="1.838">
        <ele>129</ele>
        <time>2012-12-20T13:05:54Z</time>
      </trkpt>
      <trkpt lat="43.88262" lon="1.83786">
        <ele>127</ele>
        <time>2012-12-20T13:06:04Z</time>
      </trkpt>
      <trkpt lat="43.88259" lon="1.83769">
        <ele>125</ele>
        <time>2012-12-20T13:06:18Z</time>
      </trkpt>
      <trkpt lat="43.88254" lon="1.83758">
        <ele>124</ele>
        <time>2012-12-20T13:06:25Z</time>
      </trkpt>
      <trkpt lat="43.88252" lon="1.83745">
        <ele>124</ele>
        <time>2012-12-20T13:06:35Z</time>
      </trkpt>
      <trkpt lat="43.88251" lon="1.83732">
        <ele>122</ele>
        <time>2012-12-20T13:06:43Z</time>
      </trkpt>
      <trkpt lat="43.88254" lon="1.83719">
        <ele>121</ele>
        <time>2012-12-20T13:06:51Z</time>
      </trkpt>
      <trkpt lat="43.88257" lon="1.83704">
        <ele>120</ele>
        <time>2012-12-20T13:07:00Z</time>
      </trkpt>
      <trkpt lat="43.88258" lon="1.83691">
        <ele>121</ele>
        <time>2012-12-20T13:07:07Z</time>
      </trkpt>
      <trkpt lat="43.88259" lon="1.83682">
        <ele>123</ele>
        <time>2012-12-20T13:07:12Z</time>
      </trkpt>
      <trkpt lat="43.8826" lon="1.83675">
        <ele>123</ele>
        <time>2012-12-20T13:07:16Z</time>
      </trkpt>
      <trkpt lat="43.88261" lon="1.83668">
        <ele>124</ele>
        <time>2012-12-20T13:07:21Z</time>
      </trkpt>
      <trkpt lat="43.88261" lon="1.83662">
        <ele>125</ele>
        <time>2012-12-20T13:07:25Z</time>
      </trkpt>
      <trkpt lat="43.8826" lon="1.83656">
        <ele>126</ele>
        <time>2012-12-20T13:07:29Z</time>
      </trkpt>
      <trkpt lat="43.88255" lon="1.83643">
        <ele>126</ele>
        <time>2012-12-20T13:07:37Z</time>
      </trkpt>
      <trkpt lat="43.88252" lon="1.83637">
        <ele>127</ele>
        <time>2012-12-20T13:07:42Z</time>
      </trkpt>
      <trkpt lat="43.88247" lon="1.83631">
        <ele>129</ele>
        <time>2012-12-20T13:07:48Z</time>
      </trkpt>
      <trkpt lat="43.88246" lon="1.83624">
        <ele>129</ele>
        <time>2012-12-20T13:07:52Z</time>
      </trkpt>
      <trkpt lat="43.88244" lon="1.83616">
        <ele>128</ele>
        <time>2012-12-20T13:07:57Z</time>
      </trkpt>
      <trkpt lat="43.8824" lon="1.8361">
        <ele>128</ele>
        <time>2012-12-20T13:08:02Z</time>
      </trkpt>
      <trkpt lat="43.88234" lon="1.836">
        <ele>130</ele>
        <time>2012-12-20T13:08:10Z</time>
      </trkpt>
      <trkpt lat="43.88231" lon="1.83586">
        <ele>129</ele>
        <time>2012-12-20T13:08:19Z</time>
      </trkpt>
      <trkpt lat="43.88227" lon="1.83575">
        <ele>129</ele>
        <time>2012-12-20T13:08:26Z</time>
      </trkpt>
      <trkpt lat="43.88223" lon="1.83566">
        <ele>129</ele>
        <time>2012-12-20T13:08:31Z</time>
      </trkpt>
      <trkpt lat="43.88219" lon="1.83557">
        <ele>130</ele>
        <time>2012-12-20T13:08:39Z</time>
      </trkpt>
      <trkpt lat="43.88216" lon="1.83552">
        <ele>129</ele>
        <time>2012-12-20T13:08:44Z</time>
      </trkpt>
      <trkpt lat="43.88214" lon="1.83545">
        <ele>128</ele>
        <time>2012-12-20T13:08:48Z</time>
      </trkpt>
      <trkpt lat="43.8821" lon="1.83537">
        <ele>126</ele>
        <time>2012-12-20T13:08:54Z</time>
      </trkpt>
      <trkpt lat="43.88207" lon="1.83531">
        <ele>125</ele>
        <time>2012-12-20T13:08:58Z</time>
      </trkpt>
      <trkpt lat="43.88206" lon="1.83525">
        <ele>126</ele>
        <time>2012-12-20T13:09:02Z</time>
      </trkpt>
      <trkpt lat="43.88205" lon="1.83517">
        <ele>126</ele>
        <time>2012-12-20T13:09:08Z</time>
      </trkpt>
      <trkpt lat="43.88203" lon="1.83509">
        <ele>126</ele>
        <time>2012-12-20T13:09:15Z</time>
      </trkpt>
      <trkpt lat="43.88199" lon="1.83503">
        <ele>127</ele>
        <time>2012-12-20T13:09:21Z</time>
      </trkpt>
      <trkpt lat="43.88195" lon="1.83495">
        <ele>129</ele>
        <time>2012-12-20T13:09:27Z</time>
      </trkpt>
      <trkpt lat="43.8819" lon="1.83492">
        <ele>131</ele>
        <time>2012-12-20T13:09:32Z</time>
      </trkpt>
      <trkpt lat="43.88185" lon="1.83494">
        <ele>131</ele>
        <time>2012-12-20T13:09:36Z</time>
      </trkpt>
      <trkpt lat="43.88181" lon="1.83494">
        <ele>131</ele>
        <time>2012-12-20T13:09:45Z</time>
      </trkpt>
      <trkpt lat="43.88178" lon="1.83495">
        <ele>131</ele>
        <time>2012-12-20T13:10:03Z</time>
      </trkpt>
      <trkpt lat="43.88171" lon="1.83506">
        <ele>131</ele>
        <time>2012-12-20T13:10:15Z</time>
      </trkpt>
      <trkpt lat="43.88163" lon="1.83511">
        <ele>131</ele>
        <time>2012-12-20T13:10:24Z</time>
      </trkpt>
      <trkpt lat="43.88159" lon="1.83514">
        <ele>131</ele>
        <time>2012-12-20T13:10:29Z</time>
      </trkpt>
      <trkpt lat="43.88154" lon="1.83517">
        <ele>130</ele>
        <time>2012-12-20T13:10:33Z</time>
      </trkpt>
      <trkpt lat="43.88149" lon="1.83518">
        <ele>129</ele>
        <time>2012-12-20T13:10:37Z</time>
      </trkpt>
      <trkpt lat="43.88144" lon="1.83517">
        <ele>127</ele>
        <time>2012-12-20T13:10:42Z</time>
      </trkpt>
      <trkpt lat="43.88136" lon="1.8351">
        <ele>124</ele>
        <time>2012-12-20T13:10:50Z</time>
      </trkpt>
      <trkpt lat="43.88132" lon="1.83505">
        <ele>123</ele>
        <time>2012-12-20T13:10:53Z</time>
      </trkpt>
      <trkpt lat="43.8813" lon="1.83499">
        <ele>122</ele>
        <time>2012-12-20T13:10:57Z</time>
      </trkpt>
      <trkpt lat="43.88127" lon="1.83492">
        <ele>123</ele>
        <time>2012-12-20T13:11:01Z</time>
      </trkpt>
      <trkpt lat="43.88124" lon="1.83486">
        <ele>124</ele>
        <time>2012-12-20T13:11:05Z</time>
      </trkpt>
      <trkpt lat="43.88119" lon="1.83474">
        <ele>126</ele>
        <time>2012-12-20T13:11:13Z</time>
      </trkpt>
      <trkpt lat="43.88115" lon="1.83465">
        <ele>127</ele>
        <time>2012-12-20T13:11:18Z</time>
      </trkpt>
      <trkpt lat="43.88112" lon="1.83459">
        <ele>127</ele>
        <time>2012-12-20T13:11:23Z</time>
      </trkpt>
      <trkpt lat="43.8811" lon="1.83452">
        <ele>126</ele>
        <time>2012-12-20T13:11:28Z</time>
      </trkpt>
      <trkpt lat="43.88105" lon="1.83442">
        <ele>127</ele>
        <time>2012-12-20T13:11:35Z</time>
      </trkpt>
      <trkpt lat="43.88102" lon="1.83437">
        <ele>128</ele>
        <time>2012-12-20T13:11:38Z</time>
      </trkpt>
      <trkpt lat="43.88099" lon="1.83431">
        <ele>128</ele>
        <time>2012-12-20T13:11:42Z</time>
      </trkpt>
      <trkpt lat="43.88095" lon="1.83427">
        <ele>128</ele>
        <time>2012-12-20T13:11:48Z</time>
      </trkpt>
      <trkpt lat="43.88093" lon="1.83421">
        <ele>128</ele>
        <time>2012-12-20T13:11:53Z</time>
      </trkpt>
      <trkpt lat="43.88087" lon="1.83409">
        <ele>128</ele>
        <time>2012-12-20T13:12:02Z</time>
      </trkpt>
      <trkpt lat="43.88081" lon="1.83399">
        <ele>128</ele>
        <time>2012-12-20T13:12:13Z</time>
      </trkpt>
      <trkpt lat="43.88076" lon="1.83389">
        <ele>127</ele>
        <time>2012-12-20T13:12:21Z</time>
      </trkpt>
      <trkpt lat="43.88073" lon="1.83375">
        <ele>126</ele>
        <time>2012-12-20T13:12:28Z</time>
      </trkpt>
      <trkpt lat="43.88067" lon="1.83364">
        <ele>126</ele>
        <time>2012-12-20T13:12:35Z</time>
      </trkpt>
      <trkpt lat="43.8806" lon="1.83356">
        <ele>128</ele>
        <time>2012-12-20T13:12:44Z</time>
      </trkpt>
      <trkpt lat="43.88052" lon="1.83348">
        <ele>127</ele>
        <time>2012-12-20T13:12:52Z</time>
      </trkpt>
      <trkpt lat="43.88047" lon="1.83341">
        <ele>126</ele>
        <time>2012-12-20T13:12:58Z</time>
      </trkpt>
      <trkpt lat="43.88038" lon="1.83334">
        <ele>127</ele>
        <time>2012-12-20T13:13:06Z</time>
      </trkpt>
      <trkpt lat="43.88029" lon="1.83328">
        <ele>127</ele>
        <time>2012-12-20T13:13:11Z</time>
      </trkpt>
      <trkpt lat="43.8802" lon="1.83333">
        <ele>128</ele>
        <time>2012-12-20T13:13:20Z</time>
      </trkpt>
      <trkpt lat="43.88016" lon="1.83339">
        <ele>130</ele>
        <time>2012-12-20T13:13:25Z</time>
      </trkpt>
      <trkpt lat="43.88013" lon="1.83344">
        <ele>129</ele>
        <time>2012-12-20T13:13:30Z</time>
      </trkpt>
      <trkpt lat="43.88008" lon="1.83352">
        <ele>129</ele>
        <time>2012-12-20T13:13:37Z</time>
      </trkpt>
      <trkpt lat="43.88005" lon="1.83358">
        <ele>129</ele>
        <time>2012-12-20T13:13:41Z</time>
      </trkpt>
      <trkpt lat="43.88001" lon="1.83362">
        <ele>129</ele>
        <time>2012-12-20T13:13:45Z</time>
      </trkpt>
      <trkpt lat="43.87997" lon="1.83367">
        <ele>128</ele>
        <time>2012-12-20T13:13:50Z</time>
      </trkpt>
      <trkpt lat="43.87992" lon="1.83372">
        <ele>128</ele>
        <time>2012-12-20T13:13:56Z</time>
      </trkpt>
      <trkpt lat="43.87987" lon="1.83377">
        <ele>128</ele>
        <time>2012-12-20T13:14:01Z</time>
      </trkpt>
      <trkpt lat="43.87983" lon="1.83381">
        <ele>127</ele>
        <time>2012-12-20T13:14:04Z</time>
      </trkpt>
      <trkpt lat="43.8798" lon="1.83386">
        <ele>126</ele>
        <time>2012-12-20T13:14:08Z</time>
      </trkpt>
      <trkpt lat="43.87977" lon="1.83391">
        <ele>126</ele>
        <time>2012-12-20T13:14:13Z</time>
      </trkpt>
      <trkpt lat="43.87972" lon="1.83393">
        <ele>125</ele>
        <time>2012-12-20T13:14:17Z</time>
      </trkpt>
      <trkpt lat="43.87968" lon="1.83397">
        <ele>124</ele>
        <time>2012-12-20T13:14:21Z</time>
      </trkpt>
      <trkpt lat="43.87964" lon="1.834">
        <ele>123</ele>
        <time>2012-12-20T13:14:25Z</time>
      </trkpt>
      <trkpt lat="43.87959" lon="1.83405">
        <ele>126</ele>
        <time>2012-12-20T13:14:31Z</time>
      </trkpt>
      <trkpt lat="43.87955" lon="1.83409">
        <ele>127</ele>
        <time>2012-12-20T13:14:35Z</time>
      </trkpt>
      <trkpt lat="43.8795" lon="1.83413">
        <ele>127</ele>
        <time>2012-12-20T13:14:40Z</time>
      </trkpt>
      <trkpt lat="43.87947" lon="1.83416">
        <ele>127</ele>
        <time>2012-12-20T13:14:44Z</time>
      </trkpt>
      <trkpt lat="43.87942" lon="1.8342">
        <ele>128</ele>
        <time>2012-12-20T13:14:49Z</time>
      </trkpt>
      <trkpt lat="43.87938" lon="1.83423">
        <ele>128</ele>
        <time>2012-12-20T13:14:53Z</time>
      </trkpt>
      <trkpt lat="43.87929" lon="1.83431">
        <ele>129</ele>
        <time>2012-12-20T13:15:02Z</time>
      </trkpt>
      <trkpt lat="43.87925" lon="1.83434">
        <ele>128</ele>
        <time>2012-12-20T13:15:06Z</time>
      </trkpt>
      <trkpt lat="43.87921" lon="1.83439">
        <ele>128</ele>
        <time>2012-12-20T13:15:11Z</time>
      </trkpt>
      <trkpt lat="43.87914" lon="1.83448">
        <ele>129</ele>
        <time>2012-12-20T13:15:18Z</time>
      </trkpt>
      <trkpt lat="43.8791" lon="1.83451">
        <ele>129</ele>
        <time>2012-12-20T13:15:22Z</time>
      </trkpt>
      <trkpt lat="43.87906" lon="1.83454">
        <ele>129</ele>
        <time>2012-12-20T13:15:27Z</time>
      </trkpt>
      <trkpt lat="43.87901" lon="1.83458">
        <ele>129</ele>
        <time>2012-12-20T13:15:32Z</time>
      </trkpt>
      <trkpt lat="43.87895" lon="1.83464">
        <ele>129</ele>
        <time>2012-12-20T13:15:38Z</time>
      </trkpt>
      <trkpt lat="43.87892" lon="1.83469">
        <ele>128</ele>
        <time>2012-12-20T13:15:43Z</time>
      </trkpt>
      <trkpt lat="43.87887" lon="1.83473">
        <ele>129</ele>
        <time>2012-12-20T13:15:48Z</time>
      </trkpt>
      <trkpt lat="43.87883" lon="1.83476">
        <ele>129</ele>
        <time>2012-12-20T13:15:52Z</time>
      </trkpt>
      <trkpt lat="43.87879" lon="1.8348">
        <ele>129</ele>
        <time>2012-12-20T13:15:57Z</time>
      </trkpt>
      <trkpt lat="43.87875" lon="1.83484">
        <ele>128</ele>
        <time>2012-12-20T13:16:01Z</time>
      </trkpt>
      <trkpt lat="43.8787" lon="1.83488">
        <ele>127</ele>
        <time>2012-12-20T13:16:05Z</time>
      </trkpt>
      <trkpt lat="43.87866" lon="1.83492">
        <ele>127</ele>
        <time>2012-12-20T13:16:09Z</time>
      </trkpt>
      <trkpt lat="43.87862" lon="1.83495">
        <ele>128</ele>
        <time>2012-12-20T13:16:14Z</time>
      </trkpt>
      <trkpt lat="43.87858" lon="1.83499">
        <ele>128</ele>
        <time>2012-12-20T13:16:17Z</time>
      </trkpt>
      <trkpt lat="43.87854" lon="1.83504">
        <ele>129</ele>
        <time>2012-12-20T13:16:21Z</time>
      </trkpt>
      <trkpt lat="43.87848" lon="1.83512">
        <ele>127</ele>
        <time>2012-12-20T13:16:28Z</time>
      </trkpt>
      <trkpt lat="43.87844" lon="1.83515">
        <ele>127</ele>
        <time>2012-12-20T13:16:32Z</time>
      </trkpt>
      <trkpt lat="43.8784" lon="1.83518">
        <ele>126</ele>
        <time>2012-12-20T13:16:36Z</time>
      </trkpt>
      <trkpt lat="43.87836" lon="1.83523">
        <ele>128</ele>
        <time>2012-12-20T13:16:41Z</time>
      </trkpt>
      <trkpt lat="43.87832" lon="1.83528">
        <ele>129</ele>
        <time>2012-12-20T13:16:46Z</time>
      </trkpt>
      <trkpt lat="43.87827" lon="1.83534">
        <ele>128</ele>
        <time>2012-12-20T13:16:50Z</time>
      </trkpt>
      <trkpt lat="43.87823" lon="1.83539">
        <ele>127</ele>
        <time>2012-12-20T13:16:55Z</time>
      </trkpt>
      <trkpt lat="43.87819" lon="1.83542">
        <ele>127</ele>
        <time>2012-12-20T13:16:59Z</time>
      </trkpt>
      <trkpt lat="43.87815" lon="1.83547">
        <ele>127</ele>
        <time>2012-12-20T13:17:05Z</time>
      </trkpt>
      <trkpt lat="43.87812" lon="1.83552">
        <ele>128</ele>
        <time>2012-12-20T13:17:09Z</time>
      </trkpt>
      <trkpt lat="43.87807" lon="1.83556">
        <ele>130</ele>
        <time>2012-12-20T13:17:13Z</time>
      </trkpt>
      <trkpt lat="43.878" lon="1.83565">
        <ele>131</ele>
        <time>2012-12-20T13:17:20Z</time>
      </trkpt>
      <trkpt lat="43.87796" lon="1.8357">
        <ele>132</ele>
        <time>2012-12-20T13:17:24Z</time>
      </trkpt>
      <trkpt lat="43.87793" lon="1.83575">
        <ele>133</ele>
        <time>2012-12-20T13:17:28Z</time>
      </trkpt>
      <trkpt lat="43.87789" lon="1.8358">
        <ele>132</ele>
        <time>2012-12-20T13:17:32Z</time>
      </trkpt>
      <trkpt lat="43.87786" lon="1.83585">
        <ele>130</ele>
        <time>2012-12-20T13:17:36Z</time>
      </trkpt>
      <trkpt lat="43.87779" lon="1.83596">
        <ele>128</ele>
        <time>2012-12-20T13:17:45Z</time>
      </trkpt>
      <trkpt lat="43.87774" lon="1.83602">
        <ele>127</ele>
        <time>2012-12-20T13:17:52Z</time>
      </trkpt>
      <trkpt lat="43.87771" lon="1.83607">
        <ele>126</ele>
        <time>2012-12-20T13:17:56Z</time>
      </trkpt>
      <trkpt lat="43.87766" lon="1.8361">
        <ele>128</ele>
        <time>2012-12-20T13:18:01Z</time>
      </trkpt>
      <trkpt lat="43.8776" lon="1.83617">
        <ele>129</ele>
        <time>2012-12-20T13:18:08Z</time>
      </trkpt>
      <trkpt lat="43.87756" lon="1.83622">
        <ele>130</ele>
        <time>2012-12-20T13:18:12Z</time>
      </trkpt>
      <trkpt lat="43.87754" lon="1.83629">
        <ele>130</ele>
        <time>2012-12-20T13:18:16Z</time>
      </trkpt>
      <trkpt lat="43.87748" lon="1.83638">
        <ele>129</ele>
        <time>2012-12-20T13:18:23Z</time>
      </trkpt>
      <trkpt lat="43.87746" lon="1.83644">
        <ele>130</ele>
        <time>2012-12-20T13:18:28Z</time>
      </trkpt>
      <trkpt lat="43.87741" lon="1.83648">
        <ele>129</ele>
        <time>2012-12-20T13:18:34Z</time>
      </trkpt>
      <trkpt lat="43.87731" lon="1.83652">
        <ele>129</ele>
        <time>2012-12-20T13:18:59Z</time>
      </trkpt>
      <trkpt lat="43.87729" lon="1.83644">
        <ele>126</ele>
        <time>2012-12-20T13:19:07Z</time>
      </trkpt>
      <trkpt lat="43.87726" lon="1.83634">
        <ele>124</ele>
        <time>2012-12-20T13:19:15Z</time>
      </trkpt>
      <trkpt lat="43.87725" lon="1.83628">
        <ele>124</ele>
        <time>2012-12-20T13:19:19Z</time>
      </trkpt>
      <trkpt lat="43.87722" lon="1.83615">
        <ele>124</ele>
        <time>2012-12-20T13:19:26Z</time>
      </trkpt>
      <trkpt lat="43.8772" lon="1.83607">
        <ele>124</ele>
        <time>2012-12-20T13:19:30Z</time>
      </trkpt>
      <trkpt lat="43.87718" lon="1.83601">
        <ele>124</ele>
        <time>2012-12-20T13:19:35Z</time>
      </trkpt>
      <trkpt lat="43.87715" lon="1.83596">
        <ele>125</ele>
        <time>2012-12-20T13:19:39Z</time>
      </trkpt>
      <trkpt lat="43.87712" lon="1.83588">
        <ele>126</ele>
        <time>2012-12-20T13:19:44Z</time>
      </trkpt>
      <trkpt lat="43.87711" lon="1.83581">
        <ele>125</ele>
        <time>2012-12-20T13:19:49Z</time>
      </trkpt>
      <trkpt lat="43.8771" lon="1.83575">
        <ele>125</ele>
        <time>2012-12-20T13:19:53Z</time>
      </trkpt>
      <trkpt lat="43.87709" lon="1.83567">
        <ele>123</ele>
        <time>2012-12-20T13:19:58Z</time>
      </trkpt>
      <trkpt lat="43.87708" lon="1.83559">
        <ele>123</ele>
        <time>2012-12-20T13:20:02Z</time>
      </trkpt>
      <trkpt lat="43.87707" lon="1.83551">
        <ele>122</ele>
        <time>2012-12-20T13:20:06Z</time>
      </trkpt>
      <trkpt lat="43.87705" lon="1.83544">
        <ele>122</ele>
        <time>2012-12-20T13:20:11Z</time>
      </trkpt>
      <trkpt lat="43.87703" lon="1.83538">
        <ele>121</ele>
        <time>2012-12-20T13:20:18Z</time>
      </trkpt>
      <trkpt lat="43.87701" lon="1.83532">
        <ele>122</ele>
        <time>2012-12-20T13:20:22Z</time>
      </trkpt>
      <trkpt lat="43.87699" lon="1.83526">
        <ele>123</ele>
        <time>2012-12-20T13:20:27Z</time>
      </trkpt>
      <trkpt lat="43.87698" lon="1.8352">
        <ele>124</ele>
        <time>2012-12-20T13:20:33Z</time>
      </trkpt>
      <trkpt lat="43.87696" lon="1.83514">
        <ele>124</ele>
        <time>2012-12-20T13:20:38Z</time>
      </trkpt>
      <trkpt lat="43.87694" lon="1.83505">
        <ele>124</ele>
        <time>2012-12-20T13:20:43Z</time>
      </trkpt>
      <trkpt lat="43.87692" lon="1.83498">
        <ele>125</ele>
        <time>2012-12-20T13:20:47Z</time>
      </trkpt>
      <trkpt lat="43.8769" lon="1.83491">
        <ele>126</ele>
        <time>2012-12-20T13:20:51Z</time>
      </trkpt>
      <trkpt lat="43.87689" lon="1.83484">
        <ele>127</ele>
        <time>2012-12-20T13:20:55Z</time>
      </trkpt>
      <trkpt lat="43.87687" lon="1.83476">
        <ele>127</ele>
        <time>2012-12-20T13:21:02Z</time>
      </trkpt>
      <trkpt lat="43.87684" lon="1.8347">
        <ele>127</ele>
        <time>2012-12-20T13:21:06Z</time>
      </trkpt>
      <trkpt lat="43.87682" lon="1.83463">
        <ele>129</ele>
        <time>2012-12-20T13:21:10Z</time>
      </trkpt>
      <trkpt lat="43.8768" lon="1.83457">
        <ele>129</ele>
        <time>2012-12-20T13:21:15Z</time>
      </trkpt>
      <trkpt lat="43.87678" lon="1.83444">
        <ele>128</ele>
        <time>2012-12-20T13:21:23Z</time>
      </trkpt>
      <trkpt lat="43.87677" lon="1.83438">
        <ele>128</ele>
        <time>2012-12-20T13:21:28Z</time>
      </trkpt>
      <trkpt lat="43.87675" lon="1.8343">
        <ele>126</ele>
        <time>2012-12-20T13:21:33Z</time>
      </trkpt>
      <trkpt lat="43.87674" lon="1.83424">
        <ele>125</ele>
        <time>2012-12-20T13:21:37Z</time>
      </trkpt>
      <trkpt lat="43.87673" lon="1.83418">
        <ele>123</ele>
        <time>2012-12-20T13:21:41Z</time>
      </trkpt>
      <trkpt lat="43.8767" lon="1.8341">
        <ele>122</ele>
        <time>2012-12-20T13:21:46Z</time>
      </trkpt>
      <trkpt lat="43.87668" lon="1.83404">
        <ele>122</ele>
        <time>2012-12-20T13:21:50Z</time>
      </trkpt>
      <trkpt lat="43.87667" lon="1.83399">
        <ele>124</ele>
        <time>2012-12-20T13:21:54Z</time>
      </trkpt>
      <trkpt lat="43.87664" lon="1.83392">
        <ele>123</ele>
        <time>2012-12-20T13:21:59Z</time>
      </trkpt>
      <trkpt lat="43.87662" lon="1.83386">
        <ele>125</ele>
        <time>2012-12-20T13:22:04Z</time>
      </trkpt>
      <trkpt lat="43.87661" lon="1.83377">
        <ele>126</ele>
        <time>2012-12-20T13:22:10Z</time>
      </trkpt>
      <trkpt lat="43.8766" lon="1.8337">
        <ele>126</ele>
        <time>2012-12-20T13:22:14Z</time>
      </trkpt>
      <trkpt lat="43.87658" lon="1.83363">
        <ele>126</ele>
        <time>2012-12-20T13:22:18Z</time>
      </trkpt>
      <trkpt lat="43.87657" lon="1.83355">
        <ele>127</ele>
        <time>2012-12-20T13:22:22Z</time>
      </trkpt>
      <trkpt lat="43.87656" lon="1.83349">
        <ele>127</ele>
        <time>2012-12-20T13:22:26Z</time>
      </trkpt>
      <trkpt lat="43.87654" lon="1.83341">
        <ele>127</ele>
        <time>2012-12-20T13:22:31Z</time>
      </trkpt>
      <trkpt lat="43.87652" lon="1.83334">
        <ele>125</ele>
        <time>2012-12-20T13:22:37Z</time>
      </trkpt>
      <trkpt lat="43.8765" lon="1.83328">
        <ele>123</ele>
        <time>2012-12-20T13:22:42Z</time>
      </trkpt>
      <trkpt lat="43.87648" lon="1.83321">
        <ele>122</ele>
        <time>2012-12-20T13:22:46Z</time>
      </trkpt>
      <trkpt lat="43.87645" lon="1.83314">
        <ele>123</ele>
        <time>2012-12-20T13:22:50Z</time>
      </trkpt>
      <trkpt lat="43.87642" lon="1.83303">
        <ele>123</ele>
        <time>2012-12-20T13:22:58Z</time>
      </trkpt>
      <trkpt lat="43.87641" lon="1.83296">
        <ele>123</ele>
        <time>2012-12-20T13:23:02Z</time>
      </trkpt>
      <trkpt lat="43.8764" lon="1.83288">
        <ele>122</ele>
        <time>2012-12-20T13:23:07Z</time>
      </trkpt>
      <trkpt lat="43.87638" lon="1.83281">
        <ele>122</ele>
        <time>2012-12-20T13:23:13Z</time>
      </trkpt>
      <trkpt lat="43.87634" lon="1.83276">
        <ele>122</ele>
        <time>2012-12-20T13:23:18Z</time>
      </trkpt>
      <trkpt lat="43.87629" lon="1.83272">
        <ele>120</ele>
        <time>2012-12-20T13:23:23Z</time>
      </trkpt>
      <trkpt lat="43.87623" lon="1.83272">
        <ele>122</ele>
        <time>2012-12-20T13:23:28Z</time>
      </trkpt>
      <trkpt lat="43.87619" lon="1.83275">
        <ele>122</ele>
        <time>2012-12-20T13:23:32Z</time>
      </trkpt>
      <trkpt lat="43.87614" lon="1.83279">
        <ele>122</ele>
        <time>2012-12-20T13:23:36Z</time>
      </trkpt>
      <trkpt lat="43.87609" lon="1.83283">
        <ele>122</ele>
        <time>2012-12-20T13:23:42Z</time>
      </trkpt>
      <trkpt lat="43.87606" lon="1.83287">
        <ele>122</ele>
        <time>2012-12-20T13:23:45Z</time>
      </trkpt>
      <trkpt lat="43.87601" lon="1.83291">
        <ele>121</ele>
        <time>2012-12-20T13:23:49Z</time>
      </trkpt>
      <trkpt lat="43.87597" lon="1.83294">
        <ele>121</ele>
        <time>2012-12-20T13:23:53Z</time>
      </trkpt>
      <trkpt lat="43.8759" lon="1.83298">
        <ele>121</ele>
        <time>2012-12-20T13:23:59Z</time>
      </trkpt>
      <trkpt lat="43.87586" lon="1.83302">
        <ele>121</ele>
        <time>2012-12-20T13:24:04Z</time>
      </trkpt>
      <trkpt lat="43.87582" lon="1.83305">
        <ele>120</ele>
        <time>2012-12-20T13:24:08Z</time>
      </trkpt>
      <trkpt lat="43.87577" lon="1.83308">
        <ele>120</ele>
        <time>2012-12-20T13:24:13Z</time>
      </trkpt>
      <trkpt lat="43.87574" lon="1.83313">
        <ele>120</ele>
        <time>2012-12-20T13:24:17Z</time>
      </trkpt>
      <trkpt lat="43.87566" lon="1.83321">
        <ele>121</ele>
        <time>2012-12-20T13:24:26Z</time>
      </trkpt>
      <trkpt lat="43.87561" lon="1.83325">
        <ele>123</ele>
        <time>2012-12-20T13:24:30Z</time>
      </trkpt>
      <trkpt lat="43.87557" lon="1.8333">
        <ele>123</ele>
        <time>2012-12-20T13:24:34Z</time>
      </trkpt>
      <trkpt lat="43.87552" lon="1.83332">
        <ele>123</ele>
        <time>2012-12-20T13:24:38Z</time>
      </trkpt>
      <trkpt lat="43.87547" lon="1.83334">
        <ele>123</ele>
        <time>2012-12-20T13:24:42Z</time>
      </trkpt>
      <trkpt lat="43.87542" lon="1.83338">
        <ele>123</ele>
        <time>2012-12-20T13:24:47Z</time>
      </trkpt>
      <trkpt lat="43.87536" lon="1.83342">
        <ele>123</ele>
        <time>2012-12-20T13:24:52Z</time>
      </trkpt>
      <trkpt lat="43.87532" lon="1.83345">
        <ele>122</ele>
        <time>2012-12-20T13:24:56Z</time>
      </trkpt>
      <trkpt lat="43.87528" lon="1.83348">
        <ele>121</ele>
        <time>2012-12-20T13:25:02Z</time>
      </trkpt>
      <trkpt lat="43.87523" lon="1.83351">
        <ele>121</ele>
        <time>2012-12-20T13:25:06Z</time>
      </trkpt>
      <trkpt lat="43.87514" lon="1.83357">
        <ele>120</ele>
        <time>2012-12-20T13:25:15Z</time>
      </trkpt>
      <trkpt lat="43.87508" lon="1.83364">
        <ele>123</ele>
        <time>2012-12-20T13:25:22Z</time>
      </trkpt>
      <trkpt lat="43.87505" lon="1.83369">
        <ele>124</ele>
        <time>2012-12-20T13:25:27Z</time>
      </trkpt>
      <trkpt lat="43.875" lon="1.83374">
        <ele>126</ele>
        <time>2012-12-20T13:25:32Z</time>
      </trkpt>
      <trkpt lat="43.87496" lon="1.83378">
        <ele>127</ele>
        <time>2012-12-20T13:25:36Z</time>
      </trkpt>
      <trkpt lat="43.87492" lon="1.83382">
        <ele>126</ele>
        <time>2012-12-20T13:25:40Z</time>
      </trkpt>
      <trkpt lat="43.87488" lon="1.83386">
        <ele>125</ele>
        <time>2012-12-20T13:25:44Z</time>
      </trkpt>
      <trkpt lat="43.87483" lon="1.8339">
        <ele>125</ele>
        <time>2012-12-20T13:25:49Z</time>
      </trkpt>
      <trkpt lat="43.87479" lon="1.83393">
        <ele>125</ele>
        <time>2012-12-20T13:25:53Z</time>
      </trkpt>
      <trkpt lat="43.87474" lon="1.83397">
        <ele>125</ele>
        <time>2012-12-20T13:25:57Z</time>
      </trkpt>
      <trkpt lat="43.8747" lon="1.834">
        <ele>124</ele>
        <time>2012-12-20T13:26:01Z</time>
      </trkpt>
      <trkpt lat="43.87462" lon="1.83406">
        <ele>121</ele>
        <time>2012-12-20T13:26:08Z</time>
      </trkpt>
      <trkpt lat="43.87457" lon="1.8341">
        <ele>120</ele>
        <time>2012-12-20T13:26:12Z</time>
      </trkpt>
      <trkpt lat="43.87453" lon="1.83414">
        <ele>119</ele>
        <time>2012-12-20T13:26:17Z</time>
      </trkpt>
      <trkpt lat="43.87448" lon="1.83417">
        <ele>120</ele>
        <time>2012-12-20T13:26:22Z</time>
      </trkpt>
      <trkpt lat="43.87439" lon="1.83415">
        <ele>122</ele>
        <time>2012-12-20T13:26:30Z</time>
      </trkpt>
      <trkpt lat="43.87435" lon="1.83412">
        <ele>124</ele>
        <time>2012-12-20T13:26:34Z</time>
      </trkpt>
      <trkpt lat="43.87432" lon="1.83407">
        <ele>124</ele>
        <time>2012-12-20T13:26:38Z</time>
      </trkpt>
      <trkpt lat="43.87429" lon="1.83401">
        <ele>124</ele>
        <time>2012-12-20T13:26:42Z</time>
      </trkpt>
      <trkpt lat="43.87427" lon="1.83396">
        <ele>124</ele>
        <time>2012-12-20T13:26:46Z</time>
      </trkpt>
      <trkpt lat="43.87424" lon="1.83389">
        <ele>123</ele>
        <time>2012-12-20T13:26:51Z</time>
      </trkpt>
      <trkpt lat="43.87417" lon="1.83378">
        <ele>123</ele>
        <time>2012-12-20T13:27:00Z</time>
      </trkpt>
      <trkpt lat="43.87412" lon="1.83367">
        <ele>123</ele>
        <time>2012-12-20T13:27:08Z</time>
      </trkpt>
      <trkpt lat="43.87407" lon="1.83355">
        <ele>125</ele>
        <time>2012-12-20T13:27:17Z</time>
      </trkpt>
      <trkpt lat="43.87402" lon="1.83345">
        <ele>126</ele>
        <time>2012-12-20T13:27:24Z</time>
      </trkpt>
      <trkpt lat="43.87397" lon="1.83333">
        <ele>128</ele>
        <time>2012-12-20T13:27:30Z</time>
      </trkpt>
      <trkpt lat="43.87392" lon="1.8332">
        <ele>129</ele>
        <time>2012-12-20T13:27:39Z</time>
      </trkpt>
      <trkpt lat="43.8739" lon="1.83306">
        <ele>129</ele>
        <time>2012-12-20T13:27:48Z</time>
      </trkpt>
      <trkpt lat="43.87386" lon="1.83293">
        <ele>125</ele>
        <time>2012-12-20T13:27:57Z</time>
      </trkpt>
      <trkpt lat="43.87383" lon="1.8328">
        <ele>126</ele>
        <time>2012-12-20T13:28:06Z</time>
      </trkpt>
      <trkpt lat="43.87382" lon="1.83267">
        <ele>124</ele>
        <time>2012-12-20T13:28:16Z</time>
      </trkpt>
      <trkpt lat="43.87379" lon="1.83254">
        <ele>123</ele>
        <time>2012-12-20T13:28:25Z</time>
      </trkpt>
      <trkpt lat="43.87374" lon="1.83242">
        <ele>123</ele>
        <time>2012-12-20T13:28:34Z</time>
      </trkpt>
      <trkpt lat="43.87369" lon="1.8323">
        <ele>122</ele>
        <time>2012-12-20T13:28:41Z</time>
      </trkpt>
      <trkpt lat="43.87364" lon="1.83218">
        <ele>122</ele>
        <time>2012-12-20T13:28:49Z</time>
      </trkpt>
      <trkpt lat="43.87362" lon="1.8321">
        <ele>121</ele>
        <time>2012-12-20T13:28:54Z</time>
      </trkpt>
      <trkpt lat="43.87358" lon="1.83198">
        <ele>122</ele>
        <time>2012-12-20T13:29:02Z</time>
      </trkpt>
      <trkpt lat="43.87355" lon="1.83186">
        <ele>121</ele>
        <time>2012-12-20T13:29:10Z</time>
      </trkpt>
      <trkpt lat="43.87349" lon="1.83173">
        <ele>120</ele>
        <time>2012-12-20T13:29:19Z</time>
      </trkpt>
      <trkpt lat="43.87345" lon="1.83161">
        <ele>123</ele>
        <time>2012-12-20T13:29:26Z</time>
      </trkpt>
      <trkpt lat="43.8734" lon="1.83149">
        <ele>123</ele>
        <time>2012-12-20T13:29:34Z</time>
      </trkpt>
      <trkpt lat="43.87337" lon="1.83136">
        <ele>125</ele>
        <time>2012-12-20T13:29:42Z</time>
      </trkpt>
      <trkpt lat="43.87334" lon="1.83123">
        <ele>125</ele>
        <time>2012-12-20T13:29:50Z</time>
      </trkpt>
      <trkpt lat="43.87329" lon="1.83112">
        <ele>126</ele>
        <time>2012-12-20T13:30:01Z</time>
      </trkpt>
      <trkpt lat="43.87325" lon="1.83096">
        <ele>124</ele>
        <time>2012-12-20T13:30:15Z</time>
      </trkpt>
      <trkpt lat="43.87319" lon="1.83084">
        <ele>124</ele>
        <time>2012-12-20T13:30:21Z</time>
      </trkpt>
      <trkpt lat="43.87322" lon="1.83082">
        <ele>123</ele>
        <time>2012-12-20T13:30:48Z</time>
      </trkpt>
      <trkpt lat="43.87315" lon="1.83071">
        <ele>123</ele>
        <time>2012-12-20T13:31:08Z</time>
      </trkpt>
      <trkpt lat="43.87309" lon="1.8306">
        <ele>123</ele>
        <time>2012-12-20T13:31:15Z</time>
      </trkpt>
      <trkpt lat="43.87304" lon="1.83049">
        <ele>124</ele>
        <time>2012-12-20T13:31:26Z</time>
      </trkpt>
      <trkpt lat="43.87301" lon="1.83036">
        <ele>122</ele>
        <time>2012-12-20T13:31:33Z</time>
      </trkpt>
      <trkpt lat="43.87295" lon="1.83025">
        <ele>122</ele>
        <time>2012-12-20T13:31:41Z</time>
      </trkpt>
      <trkpt lat="43.8729" lon="1.83014">
        <ele>124</ele>
        <time>2012-12-20T13:31:49Z</time>
      </trkpt>
      <trkpt lat="43.87286" lon="1.83002">
        <ele>125</ele>
        <time>2012-12-20T13:31:57Z</time>
      </trkpt>
      <trkpt lat="43.87283" lon="1.82989">
        <ele>125</ele>
        <time>2012-12-20T13:32:07Z</time>
      </trkpt>
      <trkpt lat="43.87279" lon="1.82977">
        <ele>126</ele>
        <time>2012-12-20T13:32:16Z</time>
      </trkpt>
      <trkpt lat="43.87277" lon="1.82964">
        <ele>126</ele>
        <time>2012-12-20T13:32:24Z</time>
      </trkpt>
      <trkpt lat="43.87276" lon="1.82951">
        <ele>125</ele>
        <time>2012-12-20T13:32:36Z</time>
      </trkpt>
      <trkpt lat="43.87273" lon="1.82937">
        <ele>124</ele>
        <time>2012-12-20T13:32:44Z</time>
      </trkpt>
      <trkpt lat="43.87271" lon="1.82925">
        <ele>123</ele>
        <time>2012-12-20T13:32:51Z</time>
      </trkpt>
      <trkpt lat="43.87267" lon="1.82913">
        <ele>122</ele>
        <time>2012-12-20T13:33:00Z</time>
      </trkpt>
      <trkpt lat="43.87262" lon="1.82902">
        <ele>121</ele>
        <time>2012-12-20T13:33:07Z</time>
      </trkpt>
      <trkpt lat="43.87258" lon="1.82889">
        <ele>119</ele>
        <time>2012-12-20T13:33:16Z</time>
      </trkpt>
      <trkpt lat="43.87257" lon="1.8288">
        <ele>119</ele>
        <time>2012-12-20T13:33:23Z</time>
      </trkpt>
      <trkpt lat="43.87255" lon="1.82872">
        <ele>119</ele>
        <time>2012-12-20T13:33:28Z</time>
      </trkpt>
      <trkpt lat="43.87253" lon="1.82865">
        <ele>120</ele>
        <time>2012-12-20T13:33:32Z</time>
      </trkpt>
      <trkpt lat="43.87251" lon="1.82852">
        <ele>121</ele>
        <time>2012-12-20T13:33:40Z</time>
      </trkpt>
      <trkpt lat="43.87249" lon="1.8284">
        <ele>124</ele>
        <time>2012-12-20T13:33:48Z</time>
      </trkpt>
      <trkpt lat="43.87246" lon="1.8283">
        <ele>124</ele>
        <time>2012-12-20T13:33:55Z</time>
      </trkpt>
      <trkpt lat="43.87244" lon="1.82816">
        <ele>124</ele>
        <time>2012-12-20T13:34:03Z</time>
      </trkpt>
      <trkpt lat="43.87242" lon="1.82809">
        <ele>124</ele>
        <time>2012-12-20T13:34:07Z</time>
      </trkpt>
      <trkpt lat="43.8724" lon="1.82803">
        <ele>123</ele>
        <time>2012-12-20T13:34:10Z</time>
      </trkpt>
      <trkpt lat="43.87239" lon="1.82795">
        <ele>122</ele>
        <time>2012-12-20T13:34:16Z</time>
      </trkpt>
      <trkpt lat="43.87236" lon="1.82782">
        <ele>120</ele>
        <time>2012-12-20T13:34:25Z</time>
      </trkpt>
      <trkpt lat="43.87232" lon="1.8277">
        <ele>119</ele>
        <time>2012-12-20T13:34:34Z</time>
      </trkpt>
      <trkpt lat="43.87229" lon="1.82756">
        <ele>120</ele>
        <time>2012-12-20T13:34:45Z</time>
      </trkpt>
      <trkpt lat="43.87226" lon="1.82742">
        <ele>120</ele>
        <time>2012-12-20T13:34:52Z</time>
      </trkpt>
      <trkpt lat="43.87223" lon="1.8273">
        <ele>119</ele>
        <time>2012-12-20T13:34:59Z</time>
      </trkpt>
      <trkpt lat="43.8722" lon="1.82718">
        <ele>119</ele>
        <time>2012-12-20T13:35:07Z</time>
      </trkpt>
      <trkpt lat="43.87219" lon="1.82705">
        <ele>119</ele>
        <time>2012-12-20T13:35:15Z</time>
      </trkpt>
      <trkpt lat="43.87216" lon="1.82693">
        <ele>118</ele>
        <time>2012-12-20T13:35:22Z</time>
      </trkpt>
      <trkpt lat="43.87213" lon="1.8268">
        <ele>118</ele>
        <time>2012-12-20T13:35:31Z</time>
      </trkpt>
      <trkpt lat="43.8721" lon="1.82667">
        <ele>117</ele>
        <time>2012-12-20T13:35:38Z</time>
      </trkpt>
      <trkpt lat="43.87206" lon="1.82656">
        <ele>117</ele>
        <time>2012-12-20T13:35:54Z</time>
      </trkpt>
      <trkpt lat="43.87204" lon="1.82651">
        <ele>119</ele>
        <time>2012-12-20T13:36:17Z</time>
      </trkpt>
      <trkpt lat="43.87198" lon="1.82656">
        <ele>121</ele>
        <time>2012-12-20T13:36:28Z</time>
      </trkpt>
      <trkpt lat="43.87194" lon="1.82659">
        <ele>122</ele>
        <time>2012-12-20T13:36:32Z</time>
      </trkpt>
      <trkpt lat="43.87188" lon="1.82663">
        <ele>123</ele>
        <time>2012-12-20T13:36:38Z</time>
      </trkpt>
      <trkpt lat="43.87184" lon="1.82668">
        <ele>122</ele>
        <time>2012-12-20T13:36:43Z</time>
      </trkpt>
      <trkpt lat="43.8718" lon="1.82672">
        <ele>122</ele>
        <time>2012-12-20T13:36:47Z</time>
      </trkpt>
      <trkpt lat="43.87174" lon="1.82678">
        <ele>122</ele>
        <time>2012-12-20T13:36:55Z</time>
      </trkpt>
      <trkpt lat="43.87169" lon="1.82681">
        <ele>122</ele>
        <time>2012-12-20T13:37:00Z</time>
      </trkpt>
      <trkpt lat="43.87164" lon="1.82685">
        <ele>123</ele>
        <time>2012-12-20T13:37:05Z</time>
      </trkpt>
      <trkpt lat="43.87159" lon="1.82689">
        <ele>124</ele>
        <time>2012-12-20T13:37:10Z</time>
      </trkpt>
      <trkpt lat="43.87154" lon="1.82692">
        <ele>124</ele>
        <time>2012-12-20T13:37:15Z</time>
      </trkpt>
      <trkpt lat="43.8715" lon="1.82694">
        <ele>124</ele>
        <time>2012-12-20T13:37:19Z</time>
      </trkpt>
      <trkpt lat="43.87145" lon="1.82698">
        <ele>124</ele>
        <time>2012-12-20T13:37:23Z</time>
      </trkpt>
      <trkpt lat="43.8714" lon="1.82701">
        <ele>125</ele>
        <time>2012-12-20T13:37:27Z</time>
      </trkpt>
      <trkpt lat="43.87133" lon="1.82711">
        <ele>123</ele>
        <time>2012-12-20T13:37:35Z</time>
      </trkpt>
      <trkpt lat="43.87127" lon="1.82722">
        <ele>121</ele>
        <time>2012-12-20T13:37:42Z</time>
      </trkpt>
      <trkpt lat="43.87123" lon="1.82726">
        <ele>120</ele>
        <time>2012-12-20T13:37:49Z</time>
      </trkpt>
      <trkpt lat="43.8712" lon="1.82731">
        <ele>119</ele>
        <time>2012-12-20T13:37:54Z</time>
      </trkpt>
      <trkpt lat="43.87115" lon="1.82736">
        <ele>119</ele>
        <time>2012-12-20T13:37:58Z</time>
      </trkpt>
      <trkpt lat="43.87111" lon="1.82741">
        <ele>120</ele>
        <time>2012-12-20T13:38:02Z</time>
      </trkpt>
      <trkpt lat="43.87107" lon="1.82745">
        <ele>120</ele>
        <time>2012-12-20T13:38:06Z</time>
      </trkpt>
      <trkpt lat="43.87103" lon="1.82748">
        <ele>120</ele>
        <time>2012-12-20T13:38:11Z</time>
      </trkpt>
      <trkpt lat="43.87096" lon="1.82757">
        <ele>121</ele>
        <time>2012-12-20T13:38:19Z</time>
      </trkpt>
      <trkpt lat="43.87088" lon="1.82761">
        <ele>122</ele>
        <time>2012-12-20T13:38:38Z</time>
      </trkpt>
      <trkpt lat="43.8708" lon="1.82773">
        <ele>119</ele>
        <time>2012-12-20T13:39:12Z</time>
      </trkpt>
      <trkpt lat="43.87072" lon="1.8278">
        <ele>119</ele>
        <time>2012-12-20T13:39:19Z</time>
      </trkpt>
      <trkpt lat="43.87065" lon="1.82789">
        <ele>119</ele>
        <time>2012-12-20T13:39:27Z</time>
      </trkpt>
      <trkpt lat="43.87056" lon="1.82797">
        <ele>118</ele>
        <time>2012-12-20T13:39:37Z</time>
      </trkpt>
      <trkpt lat="43.87049" lon="1.82804">
        <ele>117</ele>
        <time>2012-12-20T13:39:46Z</time>
      </trkpt>
      <trkpt lat="43.87041" lon="1.82813">
        <ele>117</ele>
        <time>2012-12-20T13:39:56Z</time>
      </trkpt>
      <trkpt lat="43.87033" lon="1.82821">
        <ele>117</ele>
        <time>2012-12-20T13:40:04Z</time>
      </trkpt>
      <trkpt lat="43.87028" lon="1.82826">
        <ele>117</ele>
        <time>2012-12-20T13:40:08Z</time>
      </trkpt>
      <trkpt lat="43.87025" lon="1.82831">
        <ele>118</ele>
        <time>2012-12-20T13:40:12Z</time>
      </trkpt>
      <trkpt lat="43.8702" lon="1.82834">
        <ele>118</ele>
        <time>2012-12-20T13:40:18Z</time>
      </trkpt>
      <trkpt lat="43.87017" lon="1.82838">
        <ele>119</ele>
        <time>2012-12-20T13:40:23Z</time>
      </trkpt>
      <trkpt lat="43.87012" lon="1.82841">
        <ele>119</ele>
        <time>2012-12-20T13:40:27Z</time>
      </trkpt>
      <trkpt lat="43.87003" lon="1.82847">
        <ele>120</ele>
        <time>2012-12-20T13:40:35Z</time>
      </trkpt>
      <trkpt lat="43.86996" lon="1.82856">
        <ele>119</ele>
        <time>2012-12-20T13:40:43Z</time>
      </trkpt>
      <trkpt lat="43.86989" lon="1.82865">
        <ele>119</ele>
        <time>2012-12-20T13:40:52Z</time>
      </trkpt>
      <trkpt lat="43.86981" lon="1.82872">
        <ele>119</ele>
        <time>2012-12-20T13:40:59Z</time>
      </trkpt>
      <trkpt lat="43.86974" lon="1.8288">
        <ele>119</ele>
        <time>2012-12-20T13:41:06Z</time>
      </trkpt>
      <trkpt lat="43.86969" lon="1.82891">
        <ele>117</ele>
        <time>2012-12-20T13:41:15Z</time>
      </trkpt>
      <trkpt lat="43.8696" lon="1.82899">
        <ele>115</ele>
        <time>2012-12-20T13:41:26Z</time>
      </trkpt>
      <trkpt lat="43.86941" lon="1.82916">
        <ele>116</ele>
        <time>2012-12-20T13:42:09Z</time>
      </trkpt>
      <trkpt lat="43.86931" lon="1.82922">
        <ele>114</ele>
        <time>2012-12-20T13:42:25Z</time>
      </trkpt>
      <trkpt lat="43.86922" lon="1.82927">
        <ele>115</ele>
        <time>2012-12-20T13:42:33Z</time>
      </trkpt>
      <trkpt lat="43.86914" lon="1.82934">
        <ele>117</ele>
        <time>2012-12-20T13:42:43Z</time>
      </trkpt>
      <trkpt lat="43.86904" lon="1.82937">
        <ele>118</ele>
        <time>2012-12-20T13:42:53Z</time>
      </trkpt>
      <trkpt lat="43.86895" lon="1.82931">
        <ele>118</ele>
        <time>2012-12-20T13:43:02Z</time>
      </trkpt>
      <trkpt lat="43.86885" lon="1.82926">
        <ele>117</ele>
        <time>2012-12-20T13:43:08Z</time>
      </trkpt>
      <trkpt lat="43.86877" lon="1.8292">
        <ele>118</ele>
        <time>2012-12-20T13:43:15Z</time>
      </trkpt>
      <trkpt lat="43.86871" lon="1.82911">
        <ele>119</ele>
        <time>2012-12-20T13:43:22Z</time>
      </trkpt>
      <trkpt lat="43.86864" lon="1.82901">
        <ele>119</ele>
        <time>2012-12-20T13:43:30Z</time>
      </trkpt>
      <trkpt lat="43.86859" lon="1.8289">
        <ele>120</ele>
        <time>2012-12-20T13:43:40Z</time>
      </trkpt>
      <trkpt lat="43.86852" lon="1.8288">
        <ele>121</ele>
        <time>2012-12-20T13:43:49Z</time>
      </trkpt>
      <trkpt lat="43.86844" lon="1.82875">
        <ele>120</ele>
        <time>2012-12-20T13:43:55Z</time>
      </trkpt>
      <trkpt lat="43.8684" lon="1.82871">
        <ele>120</ele>
        <time>2012-12-20T13:44:00Z</time>
      </trkpt>
      <trkpt lat="43.86835" lon="1.82866">
        <ele>119</ele>
        <time>2012-12-20T13:44:05Z</time>
      </trkpt>
      <trkpt lat="43.86831" lon="1.82861">
        <ele>119</ele>
        <time>2012-12-20T13:44:09Z</time>
      </trkpt>
      <trkpt lat="43.86827" lon="1.82856">
        <ele>117</ele>
        <time>2012-12-20T13:44:14Z</time>
      </trkpt>
      <trkpt lat="43.86823" lon="1.82852">
        <ele>117</ele>
        <time>2012-12-20T13:44:18Z</time>
      </trkpt>
      <trkpt lat="43.86819" lon="1.82848">
        <ele>117</ele>
        <time>2012-12-20T13:44:22Z</time>
      </trkpt>
      <trkpt lat="43.86816" lon="1.82843">
        <ele>118</ele>
        <time>2012-12-20T13:44:26Z</time>
      </trkpt>
      <trkpt lat="43.86812" lon="1.8284">
        <ele>118</ele>
        <time>2012-12-20T13:44:30Z</time>
      </trkpt>
      <trkpt lat="43.86809" lon="1.82836">
        <ele>118</ele>
        <time>2012-12-20T13:44:34Z</time>
      </trkpt>
      <trkpt lat="43.86805" lon="1.82831">
        <ele>118</ele>
        <time>2012-12-20T13:44:38Z</time>
      </trkpt>
      <trkpt lat="43.86801" lon="1.82826">
        <ele>118</ele>
        <time>2012-12-20T13:44:42Z</time>
      </trkpt>
      <trkpt lat="43.86797" lon="1.8282">
        <ele>116</ele>
        <time>2012-12-20T13:44:47Z</time>
      </trkpt>
      <trkpt lat="43.86793" lon="1.82816">
        <ele>117</ele>
        <time>2012-12-20T13:44:52Z</time>
      </trkpt>
      <trkpt lat="43.86788" lon="1.82812">
        <ele>120</ele>
        <time>2012-12-20T13:44:58Z</time>
      </trkpt>
      <trkpt lat="43.86785" lon="1.8281">
        <ele>121</ele>
        <time>2012-12-20T13:45:14Z</time>
      </trkpt>
      <trkpt lat="43.86782" lon="1.82806">
        <ele>118</ele>
        <time>2012-12-20T13:45:21Z</time>
      </trkpt>
      <trkpt lat="43.86777" lon="1.82801">
        <ele>117</ele>
        <time>2012-12-20T13:45:25Z</time>
      </trkpt>
      <trkpt lat="43.86772" lon="1.82793">
        <ele>117</ele>
        <time>2012-12-20T13:45:32Z</time>
      </trkpt>
      <trkpt lat="43.86769" lon="1.82786">
        <ele>117</ele>
        <time>2012-12-20T13:45:38Z</time>
      </trkpt>
      <trkpt lat="43.86765" lon="1.82781">
        <ele>117</ele>
        <time>2012-12-20T13:45:42Z</time>
      </trkpt>
      <trkpt lat="43.8676" lon="1.82776">
        <ele>119</ele>
        <time>2012-12-20T13:45:48Z</time>
      </trkpt>
      <trkpt lat="43.86755" lon="1.82769">
        <ele>119</ele>
        <time>2012-12-20T13:45:53Z</time>
      </trkpt>
      <trkpt lat="43.86752" lon="1.82764">
        <ele>119</ele>
        <time>2012-12-20T13:45:59Z</time>
      </trkpt>
      <trkpt lat="43.86749" lon="1.82758">
        <ele>120</ele>
        <time>2012-12-20T13:46:03Z</time>
      </trkpt>
      <trkpt lat="43.86745" lon="1.82752">
        <ele>120</ele>
        <time>2012-12-20T13:46:08Z</time>
      </trkpt>
      <trkpt lat="43.86741" lon="1.82747">
        <ele>120</ele>
        <time>2012-12-20T13:46:12Z</time>
      </trkpt>
      <trkpt lat="43.86737" lon="1.82742">
        <ele>120</ele>
        <time>2012-12-20T13:46:16Z</time>
      </trkpt>
      <trkpt lat="43.86732" lon="1.82736">
        <ele>120</ele>
        <time>2012-12-20T13:46:21Z</time>
      </trkpt>
      <trkpt lat="43.86728" lon="1.82728">
        <ele>120</ele>
        <time>2012-12-20T13:46:28Z</time>
      </trkpt>
      <trkpt lat="43.86724" lon="1.82724">
        <ele>118</ele>
        <time>2012-12-20T13:46:33Z</time>
      </trkpt>
      <trkpt lat="43.8672" lon="1.82718">
        <ele>117</ele>
        <time>2012-12-20T13:46:38Z</time>
      </trkpt>
      <trkpt lat="43.86716" lon="1.82713">
        <ele>117</ele>
        <time>2012-12-20T13:46:43Z</time>
      </trkpt>
      <trkpt lat="43.86712" lon="1.82707">
        <ele>118</ele>
        <time>2012-12-20T13:46:48Z</time>
      </trkpt>
      <trkpt lat="43.86707" lon="1.82701">
        <ele>117</ele>
        <time>2012-12-20T13:46:54Z</time>
      </trkpt>
      <trkpt lat="43.86704" lon="1.82695">
        <ele>116</ele>
        <time>2012-12-20T13:46:58Z</time>
      </trkpt>
      <trkpt lat="43.86701" lon="1.82691">
        <ele>116</ele>
        <time>2012-12-20T13:47:02Z</time>
      </trkpt>
      <trkpt lat="43.86697" lon="1.82686">
        <ele>115</ele>
        <time>2012-12-20T13:47:07Z</time>
      </trkpt>
      <trkpt lat="43.86693" lon="1.82681">
        <ele>114</ele>
        <time>2012-12-20T13:47:11Z</time>
      </trkpt>
      <trkpt lat="43.86689" lon="1.82676">
        <ele>115</ele>
        <time>2012-12-20T13:47:16Z</time>
      </trkpt>
      <trkpt lat="43.86686" lon="1.8267">
        <ele>116</ele>
        <time>2012-12-20T13:47:21Z</time>
      </trkpt>
      <trkpt lat="43.86683" lon="1.82664">
        <ele>116</ele>
        <time>2012-12-20T13:47:25Z</time>
      </trkpt>
      <trkpt lat="43.86681" lon="1.82658">
        <ele>116</ele>
        <time>2012-12-20T13:47:30Z</time>
      </trkpt>
      <trkpt lat="43.86677" lon="1.82652">
        <ele>117</ele>
        <time>2012-12-20T13:47:35Z</time>
      </trkpt>
      <trkpt lat="43.86674" lon="1.82647">
        <ele>117</ele>
        <time>2012-12-20T13:47:39Z</time>
      </trkpt>
      <trkpt lat="43.8667" lon="1.82641">
        <ele>117</ele>
        <time>2012-12-20T13:47:44Z</time>
      </trkpt>
      <trkpt lat="43.86668" lon="1.82634">
        <ele>116</ele>
        <time>2012-12-20T13:47:49Z</time>
      </trkpt>
      <trkpt lat="43.86666" lon="1.82627">
        <ele>116</ele>
        <time>2012-12-20T13:47:54Z</time>
      </trkpt>
      <trkpt lat="43.86662" lon="1.82622">
        <ele>117</ele>
        <time>2012-12-20T13:47:59Z</time>
      </trkpt>
      <trkpt lat="43.8666" lon="1.82615">
        <ele>118</ele>
        <time>2012-12-20T13:48:03Z</time>
      </trkpt>
      <trkpt lat="43.86657" lon="1.82608">
        <ele>118</ele>
        <time>2012-12-20T13:48:08Z</time>
      </trkpt>
      <trkpt lat="43.86654" lon="1.82602">
        <ele>119</ele>
        <time>2012-12-20T13:48:11Z</time>
      </trkpt>
      <trkpt lat="43.86651" lon="1.82596">
        <ele>120</ele>
        <time>2012-12-20T13:48:16Z</time>
      </trkpt>
      <trkpt lat="43.86648" lon="1.8259">
        <ele>120</ele>
        <time>2012-12-20T13:48:20Z</time>
      </trkpt>
      <trkpt lat="43.86645" lon="1.82584">
        <ele>120</ele>
        <time>2012-12-20T13:48:25Z</time>
      </trkpt>
      <trkpt lat="43.86642" lon="1.82578">
        <ele>120</ele>
        <time>2012-12-20T13:48:29Z</time>
      </trkpt>
      <trkpt lat="43.86638" lon="1.82573">
        <ele>120</ele>
        <time>2012-12-20T13:48:32Z</time>
      </trkpt>
      <trkpt lat="43.86636" lon="1.82567">
        <ele>118</ele>
        <time>2012-12-20T13:48:37Z</time>
      </trkpt>
      <trkpt lat="43.86634" lon="1.82559">
        <ele>117</ele>
        <time>2012-12-20T13:48:42Z</time>
      </trkpt>
      <trkpt lat="43.86632" lon="1.82552">
        <ele>119</ele>
        <time>2012-12-20T13:48:47Z</time>
      </trkpt>
      <trkpt lat="43.86629" lon="1.82546">
        <ele>121</ele>
        <time>2012-12-20T13:48:51Z</time>
      </trkpt>
      <trkpt lat="43.86627" lon="1.8254">
        <ele>122</ele>
        <time>2012-12-20T13:48:55Z</time>
      </trkpt>
      <trkpt lat="43.86625" lon="1.82533">
        <ele>121</ele>
        <time>2012-12-20T13:48:59Z</time>
      </trkpt>
      <trkpt lat="43.86622" lon="1.82528">
        <ele>120</ele>
        <time>2012-12-20T13:49:04Z</time>
      </trkpt>
      <trkpt lat="43.8662" lon="1.82521">
        <ele>120</ele>
        <time>2012-12-20T13:49:08Z</time>
      </trkpt>
      <trkpt lat="43.86618" lon="1.82514">
        <ele>119</ele>
        <time>2012-12-20T13:49:12Z</time>
      </trkpt>
      <trkpt lat="43.86617" lon="1.82506">
        <ele>120</ele>
        <time>2012-12-20T13:49:17Z</time>
      </trkpt>
      <trkpt lat="43.86615" lon="1.82499">
        <ele>120</ele>
        <time>2012-12-20T13:49:20Z</time>
      </trkpt>
      <trkpt lat="43.86614" lon="1.82493">
        <ele>120</ele>
        <time>2012-12-20T13:49:25Z</time>
      </trkpt>
      <trkpt lat="43.8661" lon="1.82481">
        <ele>119</ele>
        <time>2012-12-20T13:49:34Z</time>
      </trkpt>
      <trkpt lat="43.86606" lon="1.8247">
        <ele>121</ele>
        <time>2012-12-20T13:49:41Z</time>
      </trkpt>
      <trkpt lat="43.86602" lon="1.82458">
        <ele>122</ele>
        <time>2012-12-20T13:49:47Z</time>
      </trkpt>
      <trkpt lat="43.86598" lon="1.82445">
        <ele>124</ele>
        <time>2012-12-20T13:49:53Z</time>
      </trkpt>
      <trkpt lat="43.86597" lon="1.82432">
        <ele>125</ele>
        <time>2012-12-20T13:50:02Z</time>
      </trkpt>
      <trkpt lat="43.86593" lon="1.8242">
        <ele>123</ele>
        <time>2012-12-20T13:50:11Z</time>
      </trkpt>
      <trkpt lat="43.86585" lon="1.82407">
        <ele>121</ele>
        <time>2012-12-20T13:50:22Z</time>
      </trkpt>
      <trkpt lat="43.8658" lon="1.82396">
        <ele>121</ele>
        <time>2012-12-20T13:50:30Z</time>
      </trkpt>
      <trkpt lat="43.86575" lon="1.82385">
        <ele>121</ele>
        <time>2012-12-20T13:50:38Z</time>
      </trkpt>
      <trkpt lat="43.8657" lon="1.82374">
        <ele>123</ele>
        <time>2012-12-20T13:50:47Z</time>
      </trkpt>
      <trkpt lat="43.86562" lon="1.82367">
        <ele>125</ele>
        <time>2012-12-20T13:50:53Z</time>
      </trkpt>
      <trkpt lat="43.86554" lon="1.82359">
        <ele>126</ele>
        <time>2012-12-20T13:51:02Z</time>
      </trkpt>
      <trkpt lat="43.8655" lon="1.82355">
        <ele>125</ele>
        <time>2012-12-20T13:51:07Z</time>
      </trkpt>
      <trkpt lat="43.86545" lon="1.82351">
        <ele>124</ele>
        <time>2012-12-20T13:51:11Z</time>
      </trkpt>
      <trkpt lat="43.86542" lon="1.82345">
        <ele>123</ele>
        <time>2012-12-20T13:51:16Z</time>
      </trkpt>
      <trkpt lat="43.86537" lon="1.82342">
        <ele>122</ele>
        <time>2012-12-20T13:51:21Z</time>
      </trkpt>
      <trkpt lat="43.86532" lon="1.82339">
        <ele>121</ele>
        <time>2012-12-20T13:51:25Z</time>
      </trkpt>
      <trkpt lat="43.86528" lon="1.82335">
        <ele>120</ele>
        <time>2012-12-20T13:51:31Z</time>
      </trkpt>
      <trkpt lat="43.86524" lon="1.82332">
        <ele>120</ele>
        <time>2012-12-20T13:51:36Z</time>
      </trkpt>
      <trkpt lat="43.8652" lon="1.82329">
        <ele>119</ele>
        <time>2012-12-20T13:51:40Z</time>
      </trkpt>
      <trkpt lat="43.86516" lon="1.82324">
        <ele>119</ele>
        <time>2012-12-20T13:51:45Z</time>
      </trkpt>
      <trkpt lat="43.86512" lon="1.8232">
        <ele>119</ele>
        <time>2012-12-20T13:51:50Z</time>
      </trkpt>
      <trkpt lat="43.86509" lon="1.82315">
        <ele>120</ele>
        <time>2012-12-20T13:51:55Z</time>
      </trkpt>
      <trkpt lat="43.86504" lon="1.82307">
        <ele>120</ele>
        <time>2012-12-20T13:52:01Z</time>
      </trkpt>
      <trkpt lat="43.865" lon="1.82304">
        <ele>120</ele>
        <time>2012-12-20T13:52:04Z</time>
      </trkpt>
      <trkpt lat="43.86497" lon="1.82299">
        <ele>120</ele>
        <time>2012-12-20T13:52:08Z</time>
      </trkpt>
      <trkpt lat="43.86493" lon="1.82293">
        <ele>120</ele>
        <time>2012-12-20T13:52:12Z</time>
      </trkpt>
      <trkpt lat="43.8649" lon="1.82287">
        <ele>120</ele>
        <time>2012-12-20T13:52:17Z</time>
      </trkpt>
      <trkpt lat="43.86486" lon="1.82281">
        <ele>119</ele>
        <time>2012-12-20T13:52:22Z</time>
      </trkpt>
      <trkpt lat="43.86482" lon="1.82276">
        <ele>119</ele>
        <time>2012-12-20T13:52:28Z</time>
      </trkpt>
      <trkpt lat="43.86478" lon="1.82272">
        <ele>119</ele>
        <time>2012-12-20T13:52:32Z</time>
      </trkpt>
      <trkpt lat="43.86475" lon="1.82267">
        <ele>119</ele>
        <time>2012-12-20T13:52:36Z</time>
      </trkpt>
      <trkpt lat="43.86472" lon="1.8226">
        <ele>119</ele>
        <time>2012-12-20T13:52:41Z</time>
      </trkpt>
      <trkpt lat="43.8647" lon="1.82255">
        <ele>118</ele>
        <time>2012-12-20T13:52:45Z</time>
      </trkpt>
      <trkpt lat="43.86466" lon="1.8225">
        <ele>116</ele>
        <time>2012-12-20T13:52:50Z</time>
      </trkpt>
      <trkpt lat="43.86463" lon="1.82245">
        <ele>114</ele>
        <time>2012-12-20T13:52:53Z</time>
      </trkpt>
      <trkpt lat="43.86459" lon="1.82239">
        <ele>114</ele>
        <time>2012-12-20T13:52:57Z</time>
      </trkpt>
      <trkpt lat="43.86456" lon="1.82234">
        <ele>116</ele>
        <time>2012-12-20T13:53:02Z</time>
      </trkpt>
      <trkpt lat="43.86453" lon="1.82228">
        <ele>117</ele>
        <time>2012-12-20T13:53:06Z</time>
      </trkpt>
      <trkpt lat="43.86451" lon="1.82223">
        <ele>118</ele>
        <time>2012-12-20T13:53:10Z</time>
      </trkpt>
      <trkpt lat="43.86447" lon="1.82217">
        <ele>119</ele>
        <time>2012-12-20T13:53:14Z</time>
      </trkpt>
      <trkpt lat="43.86444" lon="1.82205">
        <ele>118</ele>
        <time>2012-12-20T13:53:21Z</time>
      </trkpt>
      <trkpt lat="43.86442" lon="1.82199">
        <ele>118</ele>
        <time>2012-12-20T13:53:26Z</time>
      </trkpt>
      <trkpt lat="43.86436" lon="1.82189">
        <ele>119</ele>
        <time>2012-12-20T13:53:34Z</time>
      </trkpt>
      <trkpt lat="43.86433" lon="1.82183">
        <ele>117</ele>
        <time>2012-12-20T13:53:38Z</time>
      </trkpt>
      <trkpt lat="43.86429" lon="1.82175">
        <ele>115</ele>
        <time>2012-12-20T13:53:43Z</time>
      </trkpt>
      <trkpt lat="43.86427" lon="1.82169">
        <ele>114</ele>
        <time>2012-12-20T13:53:49Z</time>
      </trkpt>
      <trkpt lat="43.86425" lon="1.82163">
        <ele>114</ele>
        <time>2012-12-20T13:53:53Z</time>
      </trkpt>
      <trkpt lat="43.86423" lon="1.82155">
        <ele>116</ele>
        <time>2012-12-20T13:53:59Z</time>
      </trkpt>
      <trkpt lat="43.8642" lon="1.8215">
        <ele>115</ele>
        <time>2012-12-20T13:54:03Z</time>
      </trkpt>
      <trkpt lat="43.86417" lon="1.82144">
        <ele>115</ele>
        <time>2012-12-20T13:54:08Z</time>
      </trkpt>
      <trkpt lat="43.86414" lon="1.82138">
        <ele>115</ele>
        <time>2012-12-20T13:54:13Z</time>
      </trkpt>
      <trkpt lat="43.86412" lon="1.8213">
        <ele>116</ele>
        <time>2012-12-20T13:54:20Z</time>
      </trkpt>
      <trkpt lat="43.86408" lon="1.82123">
        <ele>118</ele>
        <time>2012-12-20T13:54:26Z</time>
      </trkpt>
      <trkpt lat="43.86406" lon="1.82116">
        <ele>119</ele>
        <time>2012-12-20T13:54:32Z</time>
      </trkpt>
      <trkpt lat="43.86403" lon="1.8211">
        <ele>118</ele>
        <time>2012-12-20T13:54:36Z</time>
      </trkpt>
      <trkpt lat="43.86401" lon="1.82104">
        <ele>118</ele>
        <time>2012-12-20T13:54:39Z</time>
      </trkpt>
      <trkpt lat="43.86396" lon="1.82093">
        <ele>116</ele>
        <time>2012-12-20T13:54:46Z</time>
      </trkpt>
      <trkpt lat="43.86393" lon="1.82086">
        <ele>116</ele>
        <time>2012-12-20T13:54:51Z</time>
      </trkpt>
      <trkpt lat="43.8639" lon="1.8208">
        <ele>117</ele>
        <time>2012-12-20T13:54:55Z</time>
      </trkpt>
      <trkpt lat="43.86387" lon="1.82074">
        <ele>118</ele>
        <time>2012-12-20T13:55:01Z</time>
      </trkpt>
      <trkpt lat="43.86385" lon="1.82068">
        <ele>118</ele>
        <time>2012-12-20T13:55:05Z</time>
      </trkpt>
      <trkpt lat="43.86383" lon="1.82062">
        <ele>118</ele>
        <time>2012-12-20T13:55:10Z</time>
      </trkpt>
      <trkpt lat="43.8638" lon="1.82056">
        <ele>116</ele>
        <time>2012-12-20T13:55:15Z</time>
      </trkpt>
      <trkpt lat="43.86377" lon="1.8205">
        <ele>115</ele>
        <time>2012-12-20T13:55:20Z</time>
      </trkpt>
      <trkpt lat="43.86373" lon="1.82043">
        <ele>113</ele>
        <time>2012-12-20T13:55:24Z</time>
      </trkpt>
      <trkpt lat="43.8637" lon="1.82037">
        <ele>114</ele>
        <time>2012-12-20T13:55:29Z</time>
      </trkpt>
      <trkpt lat="43.86368" lon="1.82031">
        <ele>116</ele>
        <time>2012-12-20T13:55:34Z</time>
      </trkpt>
      <trkpt lat="43.86365" lon="1.82024">
        <ele>117</ele>
        <time>2012-12-20T13:55:39Z</time>
      </trkpt>
      <trkpt lat="43.86363" lon="1.82018">
        <ele>116</ele>
        <time>2012-12-20T13:55:44Z</time>
      </trkpt>
      <trkpt lat="43.86361" lon="1.82011">
        <ele>115</ele>
        <time>2012-12-20T13:55:49Z</time>
      </trkpt>
      <trkpt lat="43.86357" lon="1.82007">
        <ele>115</ele>
        <time>2012-12-20T13:55:53Z</time>
      </trkpt>
      <trkpt lat="43.86351" lon="1.81994">
        <ele>115</ele>
        <time>2012-12-20T13:56:02Z</time>
      </trkpt>
      <trkpt lat="43.86348" lon="1.81986">
        <ele>116</ele>
        <time>2012-12-20T13:56:07Z</time>
      </trkpt>
      <trkpt lat="43.86345" lon="1.81978">
        <ele>117</ele>
        <time>2012-12-20T13:56:13Z</time>
      </trkpt>
      <trkpt lat="43.86342" lon="1.81972">
        <ele>116</ele>
        <time>2012-12-20T13:56:17Z</time>
      </trkpt>
      <trkpt lat="43.86341" lon="1.81966">
        <ele>116</ele>
        <time>2012-12-20T13:56:22Z</time>
      </trkpt>
      <trkpt lat="43.86339" lon="1.8196">
        <ele>116</ele>
        <time>2012-12-20T13:56:26Z</time>
      </trkpt>
      <trkpt lat="43.86336" lon="1.81951">
        <ele>117</ele>
        <time>2012-12-20T13:56:32Z</time>
      </trkpt>
      <trkpt lat="43.86334" lon="1.81945">
        <ele>118</ele>
        <time>2012-12-20T13:56:36Z</time>
      </trkpt>
      <trkpt lat="43.86332" lon="1.8194">
        <ele>118</ele>
        <time>2012-12-20T13:56:40Z</time>
      </trkpt>
      <trkpt lat="43.86329" lon="1.81934">
        <ele>117</ele>
        <time>2012-12-20T13:56:45Z</time>
      </trkpt>
      <trkpt lat="43.86325" lon="1.81929">
        <ele>118</ele>
        <time>2012-12-20T13:56:51Z</time>
      </trkpt>
      <trkpt lat="43.86322" lon="1.81919">
        <ele>117</ele>
        <time>2012-12-20T13:56:58Z</time>
      </trkpt>
      <trkpt lat="43.86319" lon="1.81907">
        <ele>118</ele>
        <time>2012-12-20T13:57:06Z</time>
      </trkpt>
      <trkpt lat="43.86318" lon="1.819">
        <ele>116</ele>
        <time>2012-12-20T13:57:09Z</time>
      </trkpt>
      <trkpt lat="43.86317" lon="1.81893">
        <ele>115</ele>
        <time>2012-12-20T13:57:13Z</time>
      </trkpt>
      <trkpt lat="43.86314" lon="1.81882">
        <ele>116</ele>
        <time>2012-12-20T13:57:20Z</time>
      </trkpt>
      <trkpt lat="43.86311" lon="1.81876">
        <ele>117</ele>
        <time>2012-12-20T13:57:24Z</time>
      </trkpt>
      <trkpt lat="43.86308" lon="1.81869">
        <ele>117</ele>
        <time>2012-12-20T13:57:29Z</time>
      </trkpt>
      <trkpt lat="43.86305" lon="1.81863">
        <ele>115</ele>
        <time>2012-12-20T13:57:34Z</time>
      </trkpt>
      <trkpt lat="43.86302" lon="1.81856">
        <ele>116</ele>
        <time>2012-12-20T13:57:38Z</time>
      </trkpt>
      <trkpt lat="43.863" lon="1.81851">
        <ele>115</ele>
        <time>2012-12-20T13:57:43Z</time>
      </trkpt>
      <trkpt lat="43.86297" lon="1.81844">
        <ele>114</ele>
        <time>2012-12-20T13:57:48Z</time>
      </trkpt>
      <trkpt lat="43.86295" lon="1.81838">
        <ele>113</ele>
        <time>2012-12-20T13:57:52Z</time>
      </trkpt>
      <trkpt lat="43.86292" lon="1.81826">
        <ele>112</ele>
        <time>2012-12-20T13:57:59Z</time>
      </trkpt>
      <trkpt lat="43.86289" lon="1.81819">
        <ele>113</ele>
        <time>2012-12-20T13:58:05Z</time>
      </trkpt>
      <trkpt lat="43.86288" lon="1.81813">
        <ele>114</ele>
        <time>2012-12-20T13:58:09Z</time>
      </trkpt>
      <trkpt lat="43.86287" lon="1.81806">
        <ele>114</ele>
        <time>2012-12-20T13:58:13Z</time>
      </trkpt>
      <trkpt lat="43.86283" lon="1.81797">
        <ele>115</ele>
        <time>2012-12-20T13:58:21Z</time>
      </trkpt>
      <trkpt lat="43.86281" lon="1.81788">
        <ele>114</ele>
        <time>2012-12-20T13:58:27Z</time>
      </trkpt>
      <trkpt lat="43.86284" lon="1.81779">
        <ele>115</ele>
        <time>2012-12-20T13:58:32Z</time>
      </trkpt>
      <trkpt lat="43.86288" lon="1.81767">
        <ele>115</ele>
        <time>2012-12-20T13:58:44Z</time>
      </trkpt>
      <trkpt lat="43.8629" lon="1.81759">
        <ele>119</ele>
        <time>2012-12-20T13:59:09Z</time>
      </trkpt>
      <trkpt lat="43.86289" lon="1.81755">
        <ele>118</ele>
        <time>2012-12-20T13:59:17Z</time>
      </trkpt>
    </trkseg>
  </trk>
</gpx>